<?xml version="1.0" encoding="UTF-8" standalone="no" ?>
<gpx xmlns="http://www.topografix.com/GPX/1/1" creator="www.cicloide.com" version="1.1" xmlns:xsi="http://www.w3.org/2001/XMLSchema-instance" xsi:schemaLocation="http://www.topografix.com/GPX/1/1 http://www.topografix.com/GPX/1/1/gpx.xsd">
  <trk>
    <name>www.cicloide.com 14788</name>
    <desc>www.cicloide.com 14788</desc>
    <trkseg>
      <trkpt lat="28.016083000" lon="-15.603195000">
        <ele>1624.70</ele>
        <time>2013-07-19T13:15:30Z</time>
      </trkpt>
      <trkpt lat="28.016113000" lon="-15.603241000">
        <ele>1623.90</ele>
        <time>2013-07-19T13:15:35Z</time>
      </trkpt>
      <trkpt lat="28.016129000" lon="-15.603287000">
        <ele>1623.20</ele>
        <time>2013-07-19T13:15:43Z</time>
      </trkpt>
      <trkpt lat="28.016159000" lon="-15.603333000">
        <ele>1622.50</ele>
        <time>2013-07-19T13:15:48Z</time>
      </trkpt>
      <trkpt lat="28.016190000" lon="-15.603394000">
        <ele>1622.10</ele>
        <time>2013-07-19T13:15:54Z</time>
      </trkpt>
      <trkpt lat="28.016190000" lon="-15.603439000">
        <ele>1622.10</ele>
        <time>2013-07-19T13:15:59Z</time>
      </trkpt>
      <trkpt lat="28.016205000" lon="-15.603500000">
        <ele>1622.00</ele>
        <time>2013-07-19T13:16:05Z</time>
      </trkpt>
      <trkpt lat="28.016235000" lon="-15.603546000">
        <ele>1622.00</ele>
        <time>2013-07-19T13:16:12Z</time>
      </trkpt>
      <trkpt lat="28.016281000" lon="-15.603561000">
        <ele>1621.40</ele>
        <time>2013-07-19T13:16:17Z</time>
      </trkpt>
      <trkpt lat="28.016312000" lon="-15.603607000">
        <ele>1621.60</ele>
        <time>2013-07-19T13:16:24Z</time>
      </trkpt>
      <trkpt lat="28.016342000" lon="-15.603668000">
        <ele>1621.90</ele>
        <time>2013-07-19T13:16:32Z</time>
      </trkpt>
      <trkpt lat="28.016342000" lon="-15.603714000">
        <ele>1622.30</ele>
        <time>2013-07-19T13:16:40Z</time>
      </trkpt>
      <trkpt lat="28.016373000" lon="-15.603760000">
        <ele>1622.80</ele>
        <time>2013-07-19T13:16:45Z</time>
      </trkpt>
      <trkpt lat="28.016434000" lon="-15.603821000">
        <ele>1623.60</ele>
        <time>2013-07-19T13:16:50Z</time>
      </trkpt>
      <trkpt lat="28.016479000" lon="-15.603882000">
        <ele>1624.80</ele>
        <time>2013-07-19T13:16:55Z</time>
      </trkpt>
      <trkpt lat="28.016510000" lon="-15.603958000">
        <ele>1626.20</ele>
        <time>2013-07-19T13:17:01Z</time>
      </trkpt>
      <trkpt lat="28.016525000" lon="-15.604004000">
        <ele>1627.40</ele>
        <time>2013-07-19T13:17:07Z</time>
      </trkpt>
      <trkpt lat="28.016541000" lon="-15.604065000">
        <ele>1628.60</ele>
        <time>2013-07-19T13:17:13Z</time>
      </trkpt>
      <trkpt lat="28.016556000" lon="-15.604111000">
        <ele>1630.00</ele>
        <time>2013-07-19T13:17:21Z</time>
      </trkpt>
      <trkpt lat="28.016586000" lon="-15.604156000">
        <ele>1631.60</ele>
        <time>2013-07-19T13:17:27Z</time>
      </trkpt>
      <trkpt lat="28.016602000" lon="-15.604218000">
        <ele>1632.20</ele>
        <time>2013-07-19T13:17:33Z</time>
      </trkpt>
      <trkpt lat="28.016602000" lon="-15.604263000">
        <ele>1632.80</ele>
        <time>2013-07-19T13:17:39Z</time>
      </trkpt>
      <trkpt lat="28.016632000" lon="-15.604324000">
        <ele>1633.70</ele>
        <time>2013-07-19T13:17:45Z</time>
      </trkpt>
      <trkpt lat="28.016647000" lon="-15.604385000">
        <ele>1634.80</ele>
        <time>2013-07-19T13:17:51Z</time>
      </trkpt>
      <trkpt lat="28.016678000" lon="-15.604431000">
        <ele>1635.80</ele>
        <time>2013-07-19T13:17:57Z</time>
      </trkpt>
      <trkpt lat="28.016708000" lon="-15.604462000">
        <ele>1636.20</ele>
        <time>2013-07-19T13:18:03Z</time>
      </trkpt>
      <trkpt lat="28.016754000" lon="-15.604477000">
        <ele>1636.40</ele>
        <time>2013-07-19T13:18:09Z</time>
      </trkpt>
      <trkpt lat="28.016769000" lon="-15.604523000">
        <ele>1637.00</ele>
        <time>2013-07-19T13:18:17Z</time>
      </trkpt>
      <trkpt lat="28.016785000" lon="-15.604568000">
        <ele>1637.60</ele>
        <time>2013-07-19T13:18:25Z</time>
      </trkpt>
      <trkpt lat="28.016800000" lon="-15.604630000">
        <ele>1638.30</ele>
        <time>2013-07-19T13:18:33Z</time>
      </trkpt>
      <trkpt lat="28.016815000" lon="-15.604691000">
        <ele>1639.00</ele>
        <time>2013-07-19T13:18:39Z</time>
      </trkpt>
      <trkpt lat="28.016846000" lon="-15.604721000">
        <ele>1639.50</ele>
        <time>2013-07-19T13:18:45Z</time>
      </trkpt>
      <trkpt lat="28.016891000" lon="-15.604691000">
        <ele>1639.20</ele>
        <time>2013-07-19T13:19:07Z</time>
      </trkpt>
      <trkpt lat="28.016876000" lon="-15.604736000">
        <ele>1639.80</ele>
        <time>2013-07-19T13:19:46Z</time>
      </trkpt>
      <trkpt lat="28.016907000" lon="-15.604797000">
        <ele>1640.60</ele>
        <time>2013-07-19T13:19:53Z</time>
      </trkpt>
      <trkpt lat="28.016968000" lon="-15.604904000">
        <ele>1642.20</ele>
        <time>2013-07-19T13:19:59Z</time>
      </trkpt>
      <trkpt lat="28.016998000" lon="-15.605011000">
        <ele>1643.60</ele>
        <time>2013-07-19T13:20:04Z</time>
      </trkpt>
      <trkpt lat="28.017029000" lon="-15.605118000">
        <ele>1643.50</ele>
        <time>2013-07-19T13:20:10Z</time>
      </trkpt>
      <trkpt lat="28.017075000" lon="-15.605225000">
        <ele>1643.60</ele>
        <time>2013-07-19T13:20:15Z</time>
      </trkpt>
      <trkpt lat="28.017136000" lon="-15.605347000">
        <ele>1644.00</ele>
        <time>2013-07-19T13:20:20Z</time>
      </trkpt>
      <trkpt lat="28.017212000" lon="-15.605453000">
        <ele>1644.70</ele>
        <time>2013-07-19T13:20:25Z</time>
      </trkpt>
      <trkpt lat="28.017258000" lon="-15.605545000">
        <ele>1645.30</ele>
        <time>2013-07-19T13:20:30Z</time>
      </trkpt>
      <trkpt lat="28.017334000" lon="-15.605591000">
        <ele>1646.30</ele>
        <time>2013-07-19T13:20:36Z</time>
      </trkpt>
      <trkpt lat="28.017410000" lon="-15.605652000">
        <ele>1647.20</ele>
        <time>2013-07-19T13:20:42Z</time>
      </trkpt>
      <trkpt lat="28.017471000" lon="-15.605698000">
        <ele>1648.20</ele>
        <time>2013-07-19T13:20:47Z</time>
      </trkpt>
      <trkpt lat="28.017548000" lon="-15.605759000">
        <ele>1647.90</ele>
        <time>2013-07-19T13:20:53Z</time>
      </trkpt>
      <trkpt lat="28.017609000" lon="-15.605850000">
        <ele>1647.40</ele>
        <time>2013-07-19T13:20:59Z</time>
      </trkpt>
      <trkpt lat="28.017609000" lon="-15.605911000">
        <ele>1648.30</ele>
        <time>2013-07-19T13:21:14Z</time>
      </trkpt>
      <trkpt lat="28.017639000" lon="-15.605988000">
        <ele>1649.30</ele>
        <time>2013-07-19T13:21:20Z</time>
      </trkpt>
      <trkpt lat="28.017654000" lon="-15.606049000">
        <ele>1650.10</ele>
        <time>2013-07-19T13:21:25Z</time>
      </trkpt>
      <trkpt lat="28.017670000" lon="-15.606125000">
        <ele>1651.30</ele>
        <time>2013-07-19T13:21:30Z</time>
      </trkpt>
      <trkpt lat="28.017654000" lon="-15.606201000">
        <ele>1652.70</ele>
        <time>2013-07-19T13:21:35Z</time>
      </trkpt>
      <trkpt lat="28.017654000" lon="-15.606293000">
        <ele>1654.40</ele>
        <time>2013-07-19T13:21:41Z</time>
      </trkpt>
      <trkpt lat="28.017670000" lon="-15.606384000">
        <ele>1655.80</ele>
        <time>2013-07-19T13:21:47Z</time>
      </trkpt>
      <trkpt lat="28.017670000" lon="-15.606461000">
        <ele>1657.10</ele>
        <time>2013-07-19T13:21:53Z</time>
      </trkpt>
      <trkpt lat="28.017700000" lon="-15.606537000">
        <ele>1658.10</ele>
        <time>2013-07-19T13:21:58Z</time>
      </trkpt>
      <trkpt lat="28.017715000" lon="-15.606613000">
        <ele>1659.30</ele>
        <time>2013-07-19T13:22:04Z</time>
      </trkpt>
      <trkpt lat="28.017731000" lon="-15.606689000">
        <ele>1660.40</ele>
        <time>2013-07-19T13:22:10Z</time>
      </trkpt>
      <trkpt lat="28.017761000" lon="-15.606750000">
        <ele>1661.20</ele>
        <time>2013-07-19T13:22:16Z</time>
      </trkpt>
      <trkpt lat="28.017807000" lon="-15.606781000">
        <ele>1661.50</ele>
        <time>2013-07-19T13:22:21Z</time>
      </trkpt>
      <trkpt lat="28.017853000" lon="-15.606812000">
        <ele>1661.60</ele>
        <time>2013-07-19T13:22:26Z</time>
      </trkpt>
      <trkpt lat="28.017899000" lon="-15.606842000">
        <ele>1661.40</ele>
        <time>2013-07-19T13:22:31Z</time>
      </trkpt>
      <trkpt lat="28.017975000" lon="-15.606857000">
        <ele>1661.00</ele>
        <time>2013-07-19T13:22:37Z</time>
      </trkpt>
      <trkpt lat="28.018021000" lon="-15.606873000">
        <ele>1660.90</ele>
        <time>2013-07-19T13:22:42Z</time>
      </trkpt>
      <trkpt lat="28.018066000" lon="-15.606918000">
        <ele>1661.10</ele>
        <time>2013-07-19T13:22:48Z</time>
      </trkpt>
      <trkpt lat="28.018097000" lon="-15.606964000">
        <ele>1662.00</ele>
        <time>2013-07-19T13:22:54Z</time>
      </trkpt>
      <trkpt lat="28.018112000" lon="-15.607025000">
        <ele>1663.10</ele>
        <time>2013-07-19T13:22:59Z</time>
      </trkpt>
      <trkpt lat="28.018158000" lon="-15.607071000">
        <ele>1663.90</ele>
        <time>2013-07-19T13:23:05Z</time>
      </trkpt>
      <trkpt lat="28.018188000" lon="-15.607132000">
        <ele>1664.70</ele>
        <time>2013-07-19T13:23:11Z</time>
      </trkpt>
      <trkpt lat="28.018219000" lon="-15.607178000">
        <ele>1665.30</ele>
        <time>2013-07-19T13:23:17Z</time>
      </trkpt>
      <trkpt lat="28.018265000" lon="-15.607208000">
        <ele>1665.70</ele>
        <time>2013-07-19T13:23:25Z</time>
      </trkpt>
      <trkpt lat="28.018265000" lon="-15.607269000">
        <ele>1667.20</ele>
        <time>2013-07-19T13:23:37Z</time>
      </trkpt>
      <trkpt lat="28.018265000" lon="-15.607330000">
        <ele>1668.60</ele>
        <time>2013-07-19T13:23:42Z</time>
      </trkpt>
      <trkpt lat="28.018280000" lon="-15.607391000">
        <ele>1670.00</ele>
        <time>2013-07-19T13:23:47Z</time>
      </trkpt>
      <trkpt lat="28.018280000" lon="-15.607468000">
        <ele>1671.60</ele>
        <time>2013-07-19T13:23:53Z</time>
      </trkpt>
      <trkpt lat="28.018280000" lon="-15.607529000">
        <ele>1673.00</ele>
        <time>2013-07-19T13:23:58Z</time>
      </trkpt>
      <trkpt lat="28.018280000" lon="-15.607620000">
        <ele>1674.60</ele>
        <time>2013-07-19T13:24:04Z</time>
      </trkpt>
      <trkpt lat="28.018295000" lon="-15.607712000">
        <ele>1676.00</ele>
        <time>2013-07-19T13:24:10Z</time>
      </trkpt>
      <trkpt lat="28.018280000" lon="-15.607773000">
        <ele>1677.20</ele>
        <time>2013-07-19T13:24:16Z</time>
      </trkpt>
      <trkpt lat="28.018280000" lon="-15.607834000">
        <ele>1678.40</ele>
        <time>2013-07-19T13:24:22Z</time>
      </trkpt>
      <trkpt lat="28.018280000" lon="-15.607895000">
        <ele>1679.30</ele>
        <time>2013-07-19T13:24:28Z</time>
      </trkpt>
      <trkpt lat="28.018265000" lon="-15.607956000">
        <ele>1680.40</ele>
        <time>2013-07-19T13:24:34Z</time>
      </trkpt>
      <trkpt lat="28.018280000" lon="-15.608002000">
        <ele>1681.20</ele>
        <time>2013-07-19T13:24:39Z</time>
      </trkpt>
      <trkpt lat="28.018311000" lon="-15.608047000">
        <ele>1681.90</ele>
        <time>2013-07-19T13:24:45Z</time>
      </trkpt>
      <trkpt lat="28.018341000" lon="-15.608078000">
        <ele>1682.00</ele>
        <time>2013-07-19T13:24:51Z</time>
      </trkpt>
      <trkpt lat="28.018387000" lon="-15.608109000">
        <ele>1681.30</ele>
        <time>2013-07-19T13:24:57Z</time>
      </trkpt>
      <trkpt lat="28.018402000" lon="-15.608154000">
        <ele>1681.50</ele>
        <time>2013-07-19T13:25:03Z</time>
      </trkpt>
      <trkpt lat="28.018448000" lon="-15.608200000">
        <ele>1681.10</ele>
        <time>2013-07-19T13:25:09Z</time>
      </trkpt>
      <trkpt lat="28.018463000" lon="-15.608276000">
        <ele>1681.70</ele>
        <time>2013-07-19T13:25:15Z</time>
      </trkpt>
      <trkpt lat="28.018433000" lon="-15.608307000">
        <ele>1683.40</ele>
        <time>2013-07-19T13:25:51Z</time>
      </trkpt>
      <trkpt lat="28.018417000" lon="-15.608368000">
        <ele>1684.90</ele>
        <time>2013-07-19T13:25:58Z</time>
      </trkpt>
      <trkpt lat="28.018402000" lon="-15.608429000">
        <ele>1687.10</ele>
        <time>2013-07-19T13:26:04Z</time>
      </trkpt>
      <trkpt lat="28.018433000" lon="-15.608490000">
        <ele>1687.80</ele>
        <time>2013-07-19T13:26:10Z</time>
      </trkpt>
      <trkpt lat="28.018433000" lon="-15.608551000">
        <ele>1689.00</ele>
        <time>2013-07-19T13:26:15Z</time>
      </trkpt>
      <trkpt lat="28.018448000" lon="-15.608627000">
        <ele>1690.50</ele>
        <time>2013-07-19T13:26:21Z</time>
      </trkpt>
      <trkpt lat="28.018448000" lon="-15.608688000">
        <ele>1691.90</ele>
        <time>2013-07-19T13:26:27Z</time>
      </trkpt>
      <trkpt lat="28.018463000" lon="-15.608749000">
        <ele>1693.50</ele>
        <time>2013-07-19T13:26:33Z</time>
      </trkpt>
      <trkpt lat="28.018463000" lon="-15.608826000">
        <ele>1695.20</ele>
        <time>2013-07-19T13:26:39Z</time>
      </trkpt>
      <trkpt lat="28.018478000" lon="-15.608871000">
        <ele>1696.30</ele>
        <time>2013-07-19T13:26:44Z</time>
      </trkpt>
      <trkpt lat="28.018494000" lon="-15.608917000">
        <ele>1696.90</ele>
        <time>2013-07-19T13:27:11Z</time>
      </trkpt>
      <trkpt lat="28.018539000" lon="-15.609009000">
        <ele>1698.50</ele>
        <time>2013-07-19T13:27:21Z</time>
      </trkpt>
      <trkpt lat="28.018570000" lon="-15.609207000">
        <ele>1702.60</ele>
        <time>2013-07-19T13:27:27Z</time>
      </trkpt>
      <trkpt lat="28.018600000" lon="-15.609436000">
        <ele>1706.20</ele>
        <time>2013-07-19T13:27:33Z</time>
      </trkpt>
      <trkpt lat="28.018677000" lon="-15.609634000">
        <ele>1708.20</ele>
        <time>2013-07-19T13:27:39Z</time>
      </trkpt>
      <trkpt lat="28.018768000" lon="-15.609802000">
        <ele>1709.20</ele>
        <time>2013-07-19T13:27:45Z</time>
      </trkpt>
      <trkpt lat="28.018845000" lon="-15.609848000">
        <ele>1708.70</ele>
        <time>2013-07-19T13:27:50Z</time>
      </trkpt>
      <trkpt lat="28.018845000" lon="-15.609909000">
        <ele>1709.50</ele>
        <time>2013-07-19T13:27:58Z</time>
      </trkpt>
      <trkpt lat="28.018860000" lon="-15.609955000">
        <ele>1710.10</ele>
        <time>2013-07-19T13:28:03Z</time>
      </trkpt>
      <trkpt lat="28.018860000" lon="-15.610016000">
        <ele>1710.80</ele>
        <time>2013-07-19T13:28:09Z</time>
      </trkpt>
      <trkpt lat="28.018860000" lon="-15.610077000">
        <ele>1710.90</ele>
        <time>2013-07-19T13:28:14Z</time>
      </trkpt>
      <trkpt lat="28.018845000" lon="-15.610138000">
        <ele>1711.10</ele>
        <time>2013-07-19T13:28:19Z</time>
      </trkpt>
      <trkpt lat="28.018829000" lon="-15.610199000">
        <ele>1711.30</ele>
        <time>2013-07-19T13:28:25Z</time>
      </trkpt>
      <trkpt lat="28.018814000" lon="-15.610260000">
        <ele>1711.30</ele>
        <time>2013-07-19T13:28:30Z</time>
      </trkpt>
      <trkpt lat="28.018799000" lon="-15.610321000">
        <ele>1711.60</ele>
        <time>2013-07-19T13:28:36Z</time>
      </trkpt>
      <trkpt lat="28.018799000" lon="-15.610397000">
        <ele>1711.70</ele>
        <time>2013-07-19T13:28:42Z</time>
      </trkpt>
      <trkpt lat="28.018784000" lon="-15.610458000">
        <ele>1711.80</ele>
        <time>2013-07-19T13:28:47Z</time>
      </trkpt>
      <trkpt lat="28.018784000" lon="-15.610519000">
        <ele>1712.10</ele>
        <time>2013-07-19T13:28:52Z</time>
      </trkpt>
      <trkpt lat="28.018768000" lon="-15.610580000">
        <ele>1712.10</ele>
        <time>2013-07-19T13:28:58Z</time>
      </trkpt>
      <trkpt lat="28.018753000" lon="-15.610657000">
        <ele>1712.50</ele>
        <time>2013-07-19T13:29:04Z</time>
      </trkpt>
      <trkpt lat="28.018738000" lon="-15.610718000">
        <ele>1713.00</ele>
        <time>2013-07-19T13:29:10Z</time>
      </trkpt>
      <trkpt lat="28.018723000" lon="-15.610764000">
        <ele>1713.10</ele>
        <time>2013-07-19T13:29:15Z</time>
      </trkpt>
      <trkpt lat="28.018723000" lon="-15.610825000">
        <ele>1713.40</ele>
        <time>2013-07-19T13:29:21Z</time>
      </trkpt>
      <trkpt lat="28.018707000" lon="-15.610886000">
        <ele>1713.90</ele>
        <time>2013-07-19T13:29:26Z</time>
      </trkpt>
      <trkpt lat="28.018692000" lon="-15.610931000">
        <ele>1714.40</ele>
        <time>2013-07-19T13:29:31Z</time>
      </trkpt>
      <trkpt lat="28.018661000" lon="-15.610992000">
        <ele>1714.90</ele>
        <time>2013-07-19T13:29:36Z</time>
      </trkpt>
      <trkpt lat="28.018631000" lon="-15.611053000">
        <ele>1715.70</ele>
        <time>2013-07-19T13:29:42Z</time>
      </trkpt>
      <trkpt lat="28.018616000" lon="-15.611099000">
        <ele>1716.20</ele>
        <time>2013-07-19T13:29:47Z</time>
      </trkpt>
      <trkpt lat="28.018616000" lon="-15.611160000">
        <ele>1716.40</ele>
        <time>2013-07-19T13:30:24Z</time>
      </trkpt>
      <trkpt lat="28.018631000" lon="-15.611206000">
        <ele>1715.90</ele>
        <time>2013-07-19T13:30:33Z</time>
      </trkpt>
      <trkpt lat="28.018661000" lon="-15.611328000">
        <ele>1715.60</ele>
        <time>2013-07-19T13:30:39Z</time>
      </trkpt>
      <trkpt lat="28.018661000" lon="-15.611450000">
        <ele>1715.80</ele>
        <time>2013-07-19T13:30:45Z</time>
      </trkpt>
      <trkpt lat="28.018646000" lon="-15.611542000">
        <ele>1716.30</ele>
        <time>2013-07-19T13:30:51Z</time>
      </trkpt>
      <trkpt lat="28.018646000" lon="-15.611618000">
        <ele>1716.50</ele>
        <time>2013-07-19T13:31:15Z</time>
      </trkpt>
      <trkpt lat="28.018677000" lon="-15.611877000">
        <ele>1714.60</ele>
        <time>2013-07-19T13:31:20Z</time>
      </trkpt>
      <trkpt lat="28.018753000" lon="-15.612137000">
        <ele>1713.60</ele>
        <time>2013-07-19T13:31:26Z</time>
      </trkpt>
      <trkpt lat="28.018799000" lon="-15.612473000">
        <ele>1714.00</ele>
        <time>2013-07-19T13:31:32Z</time>
      </trkpt>
      <trkpt lat="28.018799000" lon="-15.612564000">
        <ele>1714.90</ele>
        <time>2013-07-19T13:31:37Z</time>
      </trkpt>
      <trkpt lat="28.018799000" lon="-15.612610000">
        <ele>1715.50</ele>
        <time>2013-07-19T13:31:43Z</time>
      </trkpt>
      <trkpt lat="28.018784000" lon="-15.612656000">
        <ele>1715.50</ele>
        <time>2013-07-19T13:31:55Z</time>
      </trkpt>
      <trkpt lat="28.018738000" lon="-15.612686000">
        <ele>1714.90</ele>
        <time>2013-07-19T13:32:23Z</time>
      </trkpt>
      <trkpt lat="28.018707000" lon="-15.612732000">
        <ele>1714.50</ele>
        <time>2013-07-19T13:32:30Z</time>
      </trkpt>
      <trkpt lat="28.018692000" lon="-15.612793000">
        <ele>1714.40</ele>
        <time>2013-07-19T13:32:38Z</time>
      </trkpt>
      <trkpt lat="28.018616000" lon="-15.612839000">
        <ele>1713.00</ele>
        <time>2013-07-19T13:32:44Z</time>
      </trkpt>
      <trkpt lat="28.018570000" lon="-15.612869000">
        <ele>1711.90</ele>
        <time>2013-07-19T13:32:49Z</time>
      </trkpt>
      <trkpt lat="28.018509000" lon="-15.612869000">
        <ele>1709.60</ele>
        <time>2013-07-19T13:32:55Z</time>
      </trkpt>
      <trkpt lat="28.018463000" lon="-15.612885000">
        <ele>1708.50</ele>
        <time>2013-07-19T13:33:00Z</time>
      </trkpt>
      <trkpt lat="28.018402000" lon="-15.612915000">
        <ele>1707.10</ele>
        <time>2013-07-19T13:33:06Z</time>
      </trkpt>
      <trkpt lat="28.018341000" lon="-15.612946000">
        <ele>1705.80</ele>
        <time>2013-07-19T13:33:12Z</time>
      </trkpt>
      <trkpt lat="28.018311000" lon="-15.612946000">
        <ele>1704.80</ele>
        <time>2013-07-19T13:33:17Z</time>
      </trkpt>
      <trkpt lat="28.018265000" lon="-15.612946000">
        <ele>1704.20</ele>
        <time>2013-07-19T13:33:22Z</time>
      </trkpt>
      <trkpt lat="28.018204000" lon="-15.612946000">
        <ele>1703.40</ele>
        <time>2013-07-19T13:33:28Z</time>
      </trkpt>
      <trkpt lat="28.018127000" lon="-15.612991000">
        <ele>1703.10</ele>
        <time>2013-07-19T13:33:34Z</time>
      </trkpt>
      <trkpt lat="28.018082000" lon="-15.613052000">
        <ele>1703.70</ele>
        <time>2013-07-19T13:33:40Z</time>
      </trkpt>
      <trkpt lat="28.018051000" lon="-15.613098000">
        <ele>1703.90</ele>
        <time>2013-07-19T13:33:45Z</time>
      </trkpt>
      <trkpt lat="28.018005000" lon="-15.613098000">
        <ele>1703.50</ele>
        <time>2013-07-19T13:33:52Z</time>
      </trkpt>
      <trkpt lat="28.017944000" lon="-15.613083000">
        <ele>1702.70</ele>
        <time>2013-07-19T13:33:58Z</time>
      </trkpt>
      <trkpt lat="28.017899000" lon="-15.613068000">
        <ele>1701.80</ele>
        <time>2013-07-19T13:34:04Z</time>
      </trkpt>
      <trkpt lat="28.017853000" lon="-15.613052000">
        <ele>1700.80</ele>
        <time>2013-07-19T13:34:10Z</time>
      </trkpt>
      <trkpt lat="28.017807000" lon="-15.613052000">
        <ele>1700.30</ele>
        <time>2013-07-19T13:34:16Z</time>
      </trkpt>
      <trkpt lat="28.017761000" lon="-15.613098000">
        <ele>1700.70</ele>
        <time>2013-07-19T13:34:22Z</time>
      </trkpt>
      <trkpt lat="28.017715000" lon="-15.613113000">
        <ele>1700.90</ele>
        <time>2013-07-19T13:34:27Z</time>
      </trkpt>
      <trkpt lat="28.017670000" lon="-15.613083000">
        <ele>1699.70</ele>
        <time>2013-07-19T13:34:33Z</time>
      </trkpt>
      <trkpt lat="28.017609000" lon="-15.613068000">
        <ele>1698.20</ele>
        <time>2013-07-19T13:34:39Z</time>
      </trkpt>
      <trkpt lat="28.017563000" lon="-15.613037000">
        <ele>1696.90</ele>
        <time>2013-07-19T13:34:45Z</time>
      </trkpt>
      <trkpt lat="28.017532000" lon="-15.612991000">
        <ele>1695.10</ele>
        <time>2013-07-19T13:34:51Z</time>
      </trkpt>
      <trkpt lat="28.017487000" lon="-15.612991000">
        <ele>1693.50</ele>
        <time>2013-07-19T13:34:57Z</time>
      </trkpt>
      <trkpt lat="28.017426000" lon="-15.613052000">
        <ele>1692.70</ele>
        <time>2013-07-19T13:35:18Z</time>
      </trkpt>
      <trkpt lat="28.017395000" lon="-15.613022000">
        <ele>1689.10</ele>
        <time>2013-07-19T13:36:13Z</time>
      </trkpt>
      <trkpt lat="28.017319000" lon="-15.613037000">
        <ele>1685.00</ele>
        <time>2013-07-19T13:36:19Z</time>
      </trkpt>
      <trkpt lat="28.017258000" lon="-15.613037000">
        <ele>1681.40</ele>
        <time>2013-07-19T13:36:24Z</time>
      </trkpt>
      <trkpt lat="28.017197000" lon="-15.613068000">
        <ele>1678.30</ele>
        <time>2013-07-19T13:36:30Z</time>
      </trkpt>
      <trkpt lat="28.017151000" lon="-15.613098000">
        <ele>1676.30</ele>
        <time>2013-07-19T13:36:35Z</time>
      </trkpt>
      <trkpt lat="28.017105000" lon="-15.613129000">
        <ele>1674.30</ele>
        <time>2013-07-19T13:36:41Z</time>
      </trkpt>
      <trkpt lat="28.017014000" lon="-15.613190000">
        <ele>1669.80</ele>
        <time>2013-07-19T13:36:47Z</time>
      </trkpt>
      <trkpt lat="28.016953000" lon="-15.613281000">
        <ele>1665.80</ele>
        <time>2013-07-19T13:36:53Z</time>
      </trkpt>
      <trkpt lat="28.016937000" lon="-15.613342000">
        <ele>1666.10</ele>
        <time>2013-07-19T13:37:11Z</time>
      </trkpt>
      <trkpt lat="28.016937000" lon="-15.613403000">
        <ele>1667.00</ele>
        <time>2013-07-19T13:37:17Z</time>
      </trkpt>
      <trkpt lat="28.016953000" lon="-15.613464000">
        <ele>1668.40</ele>
        <time>2013-07-19T13:37:22Z</time>
      </trkpt>
      <trkpt lat="28.016968000" lon="-15.613556000">
        <ele>1671.70</ele>
        <time>2013-07-19T13:37:27Z</time>
      </trkpt>
      <trkpt lat="28.016998000" lon="-15.613678000">
        <ele>1676.30</ele>
        <time>2013-07-19T13:37:32Z</time>
      </trkpt>
      <trkpt lat="28.016968000" lon="-15.613815000">
        <ele>1676.50</ele>
        <time>2013-07-19T13:37:38Z</time>
      </trkpt>
      <trkpt lat="28.016891000" lon="-15.613907000">
        <ele>1670.00</ele>
        <time>2013-07-19T13:37:44Z</time>
      </trkpt>
      <trkpt lat="28.016846000" lon="-15.614029000">
        <ele>1667.40</ele>
        <time>2013-07-19T13:37:50Z</time>
      </trkpt>
      <trkpt lat="28.016800000" lon="-15.614182000">
        <ele>1663.10</ele>
        <time>2013-07-19T13:37:56Z</time>
      </trkpt>
      <trkpt lat="28.016724000" lon="-15.614319000">
        <ele>1655.80</ele>
        <time>2013-07-19T13:38:01Z</time>
      </trkpt>
      <trkpt lat="28.016754000" lon="-15.614273000">
        <ele>1658.80</ele>
        <time>2013-07-19T13:39:16Z</time>
      </trkpt>
      <trkpt lat="28.016708000" lon="-15.614288000">
        <ele>1653.90</ele>
        <time>2013-07-19T13:39:36Z</time>
      </trkpt>
      <trkpt lat="28.016647000" lon="-15.614380000">
        <ele>1646.90</ele>
        <time>2013-07-19T13:39:41Z</time>
      </trkpt>
      <trkpt lat="28.016602000" lon="-15.614456000">
        <ele>1643.40</ele>
        <time>2013-07-19T13:39:47Z</time>
      </trkpt>
      <trkpt lat="28.016586000" lon="-15.614502000">
        <ele>1642.50</ele>
        <time>2013-07-19T13:40:05Z</time>
      </trkpt>
      <trkpt lat="28.016602000" lon="-15.614563000">
        <ele>1643.70</ele>
        <time>2013-07-19T13:40:11Z</time>
      </trkpt>
      <trkpt lat="28.016602000" lon="-15.614609000">
        <ele>1643.70</ele>
        <time>2013-07-19T13:40:41Z</time>
      </trkpt>
      <trkpt lat="28.016617000" lon="-15.614685000">
        <ele>1645.50</ele>
        <time>2013-07-19T13:40:47Z</time>
      </trkpt>
      <trkpt lat="28.016617000" lon="-15.614792000">
        <ele>1646.80</ele>
        <time>2013-07-19T13:40:52Z</time>
      </trkpt>
      <trkpt lat="28.016678000" lon="-15.615112000">
        <ele>1652.70</ele>
        <time>2013-07-19T13:40:58Z</time>
      </trkpt>
      <trkpt lat="28.016708000" lon="-15.615250000">
        <ele>1655.50</ele>
        <time>2013-07-19T13:41:03Z</time>
      </trkpt>
      <trkpt lat="28.016693000" lon="-15.615417000">
        <ele>1653.70</ele>
        <time>2013-07-19T13:41:08Z</time>
      </trkpt>
      <trkpt lat="28.016693000" lon="-15.615631000">
        <ele>1653.30</ele>
        <time>2013-07-19T13:41:14Z</time>
      </trkpt>
      <trkpt lat="28.016693000" lon="-15.615723000">
        <ele>1653.40</ele>
        <time>2013-07-19T13:41:20Z</time>
      </trkpt>
      <trkpt lat="28.016693000" lon="-15.615784000">
        <ele>1652.50</ele>
        <time>2013-07-19T13:41:26Z</time>
      </trkpt>
      <trkpt lat="28.016693000" lon="-15.615829000">
        <ele>1653.40</ele>
        <time>2013-07-19T13:41:46Z</time>
      </trkpt>
      <trkpt lat="28.016708000" lon="-15.615891000">
        <ele>1653.80</ele>
        <time>2013-07-19T13:41:51Z</time>
      </trkpt>
      <trkpt lat="28.016708000" lon="-15.615967000">
        <ele>1653.30</ele>
        <time>2013-07-19T13:41:57Z</time>
      </trkpt>
      <trkpt lat="28.016678000" lon="-15.615997000">
        <ele>1651.10</ele>
        <time>2013-07-19T13:42:15Z</time>
      </trkpt>
      <trkpt lat="28.016678000" lon="-15.616058000">
        <ele>1650.40</ele>
        <time>2013-07-19T13:42:22Z</time>
      </trkpt>
      <trkpt lat="28.016647000" lon="-15.616135000">
        <ele>1647.50</ele>
        <time>2013-07-19T13:42:28Z</time>
      </trkpt>
      <trkpt lat="28.016602000" lon="-15.616196000">
        <ele>1642.20</ele>
        <time>2013-07-19T13:42:33Z</time>
      </trkpt>
      <trkpt lat="28.016571000" lon="-15.616348000">
        <ele>1639.00</ele>
        <time>2013-07-19T13:42:39Z</time>
      </trkpt>
      <trkpt lat="28.016556000" lon="-15.616501000">
        <ele>1636.00</ele>
        <time>2013-07-19T13:42:44Z</time>
      </trkpt>
      <trkpt lat="28.016556000" lon="-15.616669000">
        <ele>1635.50</ele>
        <time>2013-07-19T13:42:50Z</time>
      </trkpt>
      <trkpt lat="28.016541000" lon="-15.616791000">
        <ele>1633.70</ele>
        <time>2013-07-19T13:42:56Z</time>
      </trkpt>
      <trkpt lat="28.016495000" lon="-15.616913000">
        <ele>1627.50</ele>
        <time>2013-07-19T13:43:02Z</time>
      </trkpt>
      <trkpt lat="28.016464000" lon="-15.617249000">
        <ele>1622.30</ele>
        <time>2013-07-19T13:43:11Z</time>
      </trkpt>
      <trkpt lat="28.016449000" lon="-15.617310000">
        <ele>1621.50</ele>
        <time>2013-07-19T13:43:51Z</time>
      </trkpt>
      <trkpt lat="28.016449000" lon="-15.617371000">
        <ele>1620.60</ele>
        <time>2013-07-19T13:43:57Z</time>
      </trkpt>
      <trkpt lat="28.016495000" lon="-15.617432000">
        <ele>1624.40</ele>
        <time>2013-07-19T13:44:21Z</time>
      </trkpt>
      <trkpt lat="28.016617000" lon="-15.617737000">
        <ele>1631.80</ele>
        <time>2013-07-19T13:44:26Z</time>
      </trkpt>
      <trkpt lat="28.016693000" lon="-15.617905000">
        <ele>1634.20</ele>
        <time>2013-07-19T13:44:31Z</time>
      </trkpt>
      <trkpt lat="28.016724000" lon="-15.618240000">
        <ele>1631.50</ele>
        <time>2013-07-19T13:44:36Z</time>
      </trkpt>
      <trkpt lat="28.016724000" lon="-15.618500000">
        <ele>1634.80</ele>
        <time>2013-07-19T13:44:42Z</time>
      </trkpt>
      <trkpt lat="28.016739000" lon="-15.618576000">
        <ele>1636.90</ele>
        <time>2013-07-19T13:44:48Z</time>
      </trkpt>
      <trkpt lat="28.016754000" lon="-15.618622000">
        <ele>1638.40</ele>
        <time>2013-07-19T13:44:54Z</time>
      </trkpt>
      <trkpt lat="28.016754000" lon="-15.618759000">
        <ele>1641.50</ele>
        <time>2013-07-19T13:44:59Z</time>
      </trkpt>
      <trkpt lat="28.016785000" lon="-15.618958000">
        <ele>1646.50</ele>
        <time>2013-07-19T13:45:05Z</time>
      </trkpt>
      <trkpt lat="28.016800000" lon="-15.619125000">
        <ele>1650.10</ele>
        <time>2013-07-19T13:45:11Z</time>
      </trkpt>
      <trkpt lat="28.016891000" lon="-15.619247000">
        <ele>1648.50</ele>
        <time>2013-07-19T13:45:16Z</time>
      </trkpt>
      <trkpt lat="28.016922000" lon="-15.619293000">
        <ele>1647.40</ele>
        <time>2013-07-19T13:45:26Z</time>
      </trkpt>
      <trkpt lat="28.016937000" lon="-15.619354000">
        <ele>1646.20</ele>
        <time>2013-07-19T13:45:33Z</time>
      </trkpt>
      <trkpt lat="28.016922000" lon="-15.619400000">
        <ele>1645.00</ele>
        <time>2013-07-19T13:45:41Z</time>
      </trkpt>
      <trkpt lat="28.016953000" lon="-15.619522000">
        <ele>1642.50</ele>
        <time>2013-07-19T13:45:47Z</time>
      </trkpt>
      <trkpt lat="28.016998000" lon="-15.619690000">
        <ele>1639.20</ele>
        <time>2013-07-19T13:45:52Z</time>
      </trkpt>
      <trkpt lat="28.017044000" lon="-15.619934000">
        <ele>1635.00</ele>
        <time>2013-07-19T13:45:58Z</time>
      </trkpt>
      <trkpt lat="28.016998000" lon="-15.620132000">
        <ele>1629.50</ele>
        <time>2013-07-19T13:46:04Z</time>
      </trkpt>
      <trkpt lat="28.016968000" lon="-15.620178000">
        <ele>1627.80</ele>
        <time>2013-07-19T13:46:11Z</time>
      </trkpt>
      <trkpt lat="28.016937000" lon="-15.620224000">
        <ele>1626.00</ele>
        <time>2013-07-19T13:46:17Z</time>
      </trkpt>
      <trkpt lat="28.016891000" lon="-15.620224000">
        <ele>1625.40</ele>
        <time>2013-07-19T13:46:39Z</time>
      </trkpt>
      <trkpt lat="28.016937000" lon="-15.620224000">
        <ele>1625.90</ele>
        <time>2013-07-19T13:47:17Z</time>
      </trkpt>
      <trkpt lat="28.016983000" lon="-15.620209000">
        <ele>1627.40</ele>
        <time>2013-07-19T13:48:42Z</time>
      </trkpt>
      <trkpt lat="28.017014000" lon="-15.620148000">
        <ele>1629.20</ele>
        <time>2013-07-19T13:48:47Z</time>
      </trkpt>
      <trkpt lat="28.017059000" lon="-15.620132000">
        <ele>1630.30</ele>
        <time>2013-07-19T13:48:53Z</time>
      </trkpt>
      <trkpt lat="28.017059000" lon="-15.620255000">
        <ele>1627.10</ele>
        <time>2013-07-19T13:48:58Z</time>
      </trkpt>
      <trkpt lat="28.017136000" lon="-15.620438000">
        <ele>1623.90</ele>
        <time>2013-07-19T13:49:04Z</time>
      </trkpt>
      <trkpt lat="28.017212000" lon="-15.620575000">
        <ele>1621.60</ele>
        <time>2013-07-19T13:49:09Z</time>
      </trkpt>
      <trkpt lat="28.017303000" lon="-15.620743000">
        <ele>1619.50</ele>
        <time>2013-07-19T13:49:14Z</time>
      </trkpt>
      <trkpt lat="28.017365000" lon="-15.620880000">
        <ele>1619.30</ele>
        <time>2013-07-19T13:49:19Z</time>
      </trkpt>
      <trkpt lat="28.017441000" lon="-15.621017000">
        <ele>1622.60</ele>
        <time>2013-07-19T13:49:25Z</time>
      </trkpt>
      <trkpt lat="28.017502000" lon="-15.621124000">
        <ele>1625.20</ele>
        <time>2013-07-19T13:49:30Z</time>
      </trkpt>
      <trkpt lat="28.017578000" lon="-15.621231000">
        <ele>1623.50</ele>
        <time>2013-07-19T13:49:36Z</time>
      </trkpt>
      <trkpt lat="28.017654000" lon="-15.621307000">
        <ele>1621.40</ele>
        <time>2013-07-19T13:49:41Z</time>
      </trkpt>
      <trkpt lat="28.017731000" lon="-15.621368000">
        <ele>1618.70</ele>
        <time>2013-07-19T13:49:46Z</time>
      </trkpt>
      <trkpt lat="28.017838000" lon="-15.621475000">
        <ele>1614.90</ele>
        <time>2013-07-19T13:49:52Z</time>
      </trkpt>
      <trkpt lat="28.017929000" lon="-15.621597000">
        <ele>1611.60</ele>
        <time>2013-07-19T13:49:58Z</time>
      </trkpt>
      <trkpt lat="28.017990000" lon="-15.621735000">
        <ele>1609.80</ele>
        <time>2013-07-19T13:50:03Z</time>
      </trkpt>
      <trkpt lat="28.018082000" lon="-15.621872000">
        <ele>1609.50</ele>
        <time>2013-07-19T13:50:08Z</time>
      </trkpt>
      <trkpt lat="28.018173000" lon="-15.622009000">
        <ele>1608.90</ele>
        <time>2013-07-19T13:50:13Z</time>
      </trkpt>
      <trkpt lat="28.018265000" lon="-15.622086000">
        <ele>1607.60</ele>
        <time>2013-07-19T13:50:19Z</time>
      </trkpt>
      <trkpt lat="28.018280000" lon="-15.622147000">
        <ele>1608.50</ele>
        <time>2013-07-19T13:50:29Z</time>
      </trkpt>
      <trkpt lat="28.018402000" lon="-15.622238000">
        <ele>1606.50</ele>
        <time>2013-07-19T13:50:34Z</time>
      </trkpt>
      <trkpt lat="28.018631000" lon="-15.622498000">
        <ele>1601.80</ele>
        <time>2013-07-19T13:50:40Z</time>
      </trkpt>
      <trkpt lat="28.018799000" lon="-15.622772000">
        <ele>1600.80</ele>
        <time>2013-07-19T13:50:46Z</time>
      </trkpt>
      <trkpt lat="28.018936000" lon="-15.622986000">
        <ele>1600.30</ele>
        <time>2013-07-19T13:50:51Z</time>
      </trkpt>
      <trkpt lat="28.019028000" lon="-15.623184000">
        <ele>1602.70</ele>
        <time>2013-07-19T13:50:56Z</time>
      </trkpt>
      <trkpt lat="28.019150000" lon="-15.623459000">
        <ele>1604.90</ele>
        <time>2013-07-19T13:51:02Z</time>
      </trkpt>
      <trkpt lat="28.019333000" lon="-15.623917000">
        <ele>1605.30</ele>
        <time>2013-07-19T13:51:08Z</time>
      </trkpt>
      <trkpt lat="28.019547000" lon="-15.624374000">
        <ele>1601.40</ele>
        <time>2013-07-19T13:51:13Z</time>
      </trkpt>
      <trkpt lat="28.019714000" lon="-15.624786000">
        <ele>1597.70</ele>
        <time>2013-07-19T13:51:18Z</time>
      </trkpt>
      <trkpt lat="28.019989000" lon="-15.625305000">
        <ele>1597.70</ele>
        <time>2013-07-19T13:51:24Z</time>
      </trkpt>
      <trkpt lat="28.020218000" lon="-15.625626000">
        <ele>1592.70</ele>
        <time>2013-07-19T13:51:29Z</time>
      </trkpt>
      <trkpt lat="28.020447000" lon="-15.625977000">
        <ele>1588.10</ele>
        <time>2013-07-19T13:51:34Z</time>
      </trkpt>
      <trkpt lat="28.020737000" lon="-15.626297000">
        <ele>1583.70</ele>
        <time>2013-07-19T13:51:39Z</time>
      </trkpt>
      <trkpt lat="28.021042000" lon="-15.626633000">
        <ele>1576.20</ele>
        <time>2013-07-19T13:51:44Z</time>
      </trkpt>
      <trkpt lat="28.021393000" lon="-15.626938000">
        <ele>1564.80</ele>
        <time>2013-07-19T13:51:50Z</time>
      </trkpt>
      <trkpt lat="28.021439000" lon="-15.626968000">
        <ele>1563.50</ele>
        <time>2013-07-19T13:51:57Z</time>
      </trkpt>
      <trkpt lat="28.021484000" lon="-15.626984000">
        <ele>1562.50</ele>
        <time>2013-07-19T13:52:47Z</time>
      </trkpt>
      <trkpt lat="28.021561000" lon="-15.627304000">
        <ele>1563.40</ele>
        <time>2013-07-19T13:52:53Z</time>
      </trkpt>
      <trkpt lat="28.021576000" lon="-15.627365000">
        <ele>1563.60</ele>
        <time>2013-07-19T13:53:30Z</time>
      </trkpt>
      <trkpt lat="28.021606000" lon="-15.627548000">
        <ele>1565.10</ele>
        <time>2013-07-19T13:53:35Z</time>
      </trkpt>
      <trkpt lat="28.021591000" lon="-15.627747000">
        <ele>1567.60</ele>
        <time>2013-07-19T13:53:41Z</time>
      </trkpt>
      <trkpt lat="28.021378000" lon="-15.627945000">
        <ele>1572.50</ele>
        <time>2013-07-19T13:53:47Z</time>
      </trkpt>
      <trkpt lat="28.021225000" lon="-15.627991000">
        <ele>1574.50</ele>
        <time>2013-07-19T13:53:52Z</time>
      </trkpt>
      <trkpt lat="28.021042000" lon="-15.627808000">
        <ele>1578.00</ele>
        <time>2013-07-19T13:53:58Z</time>
      </trkpt>
      <trkpt lat="28.020905000" lon="-15.627640000">
        <ele>1583.20</ele>
        <time>2013-07-19T13:54:03Z</time>
      </trkpt>
      <trkpt lat="28.020721000" lon="-15.627426000">
        <ele>1583.80</ele>
        <time>2013-07-19T13:54:09Z</time>
      </trkpt>
      <trkpt lat="28.020462000" lon="-15.627228000">
        <ele>1579.30</ele>
        <time>2013-07-19T13:54:15Z</time>
      </trkpt>
      <trkpt lat="28.020264000" lon="-15.627090000">
        <ele>1578.20</ele>
        <time>2013-07-19T13:54:20Z</time>
      </trkpt>
      <trkpt lat="28.020142000" lon="-15.626846000">
        <ele>1583.30</ele>
        <time>2013-07-19T13:54:26Z</time>
      </trkpt>
      <trkpt lat="28.020050000" lon="-15.626617000">
        <ele>1589.40</ele>
        <time>2013-07-19T13:54:31Z</time>
      </trkpt>
      <trkpt lat="28.019897000" lon="-15.626358000">
        <ele>1590.30</ele>
        <time>2013-07-19T13:54:37Z</time>
      </trkpt>
      <trkpt lat="28.019669000" lon="-15.626251000">
        <ele>1586.80</ele>
        <time>2013-07-19T13:54:42Z</time>
      </trkpt>
      <trkpt lat="28.019363000" lon="-15.626129000">
        <ele>1583.30</ele>
        <time>2013-07-19T13:54:48Z</time>
      </trkpt>
      <trkpt lat="28.019135000" lon="-15.626068000">
        <ele>1580.90</ele>
        <time>2013-07-19T13:54:54Z</time>
      </trkpt>
      <trkpt lat="28.018982000" lon="-15.626022000">
        <ele>1578.70</ele>
        <time>2013-07-19T13:55:00Z</time>
      </trkpt>
      <trkpt lat="28.018814000" lon="-15.625916000">
        <ele>1577.20</ele>
        <time>2013-07-19T13:55:06Z</time>
      </trkpt>
      <trkpt lat="28.018677000" lon="-15.625839000">
        <ele>1575.60</ele>
        <time>2013-07-19T13:55:11Z</time>
      </trkpt>
      <trkpt lat="28.018509000" lon="-15.625732000">
        <ele>1573.10</ele>
        <time>2013-07-19T13:55:16Z</time>
      </trkpt>
      <trkpt lat="28.018311000" lon="-15.625626000">
        <ele>1568.40</ele>
        <time>2013-07-19T13:55:22Z</time>
      </trkpt>
      <trkpt lat="28.018234000" lon="-15.625748000">
        <ele>1558.80</ele>
        <time>2013-07-19T13:55:28Z</time>
      </trkpt>
      <trkpt lat="28.018448000" lon="-15.625870000">
        <ele>1569.60</ele>
        <time>2013-07-19T13:55:33Z</time>
      </trkpt>
      <trkpt lat="28.018570000" lon="-15.626007000">
        <ele>1570.40</ele>
        <time>2013-07-19T13:55:38Z</time>
      </trkpt>
      <trkpt lat="28.018738000" lon="-15.626282000">
        <ele>1568.70</ele>
        <time>2013-07-19T13:55:44Z</time>
      </trkpt>
      <trkpt lat="28.019043000" lon="-15.626526000">
        <ele>1566.90</ele>
        <time>2013-07-19T13:55:50Z</time>
      </trkpt>
      <trkpt lat="28.019333000" lon="-15.626740000">
        <ele>1565.80</ele>
        <time>2013-07-19T13:55:55Z</time>
      </trkpt>
      <trkpt lat="28.019394000" lon="-15.627029000">
        <ele>1556.00</ele>
        <time>2013-07-19T13:56:01Z</time>
      </trkpt>
      <trkpt lat="28.019211000" lon="-15.626862000">
        <ele>1557.00</ele>
        <time>2013-07-19T13:56:07Z</time>
      </trkpt>
      <trkpt lat="28.019058000" lon="-15.626816000">
        <ele>1557.50</ele>
        <time>2013-07-19T13:56:12Z</time>
      </trkpt>
      <trkpt lat="28.018814000" lon="-15.626862000">
        <ele>1555.00</ele>
        <time>2013-07-19T13:56:18Z</time>
      </trkpt>
      <trkpt lat="28.018845000" lon="-15.627182000">
        <ele>1543.30</ele>
        <time>2013-07-19T13:56:24Z</time>
      </trkpt>
      <trkpt lat="28.018768000" lon="-15.627487000">
        <ele>1532.30</ele>
        <time>2013-07-19T13:56:29Z</time>
      </trkpt>
      <trkpt lat="28.018509000" lon="-15.627670000">
        <ele>1528.40</ele>
        <time>2013-07-19T13:56:34Z</time>
      </trkpt>
      <trkpt lat="28.018250000" lon="-15.627869000">
        <ele>1514.20</ele>
        <time>2013-07-19T13:56:39Z</time>
      </trkpt>
      <trkpt lat="28.018265000" lon="-15.627930000">
        <ele>1513.40</ele>
        <time>2013-07-19T13:57:19Z</time>
      </trkpt>
      <trkpt lat="28.018219000" lon="-15.628159000">
        <ele>1501.20</ele>
        <time>2013-07-19T13:57:25Z</time>
      </trkpt>
      <trkpt lat="28.018188000" lon="-15.628677000">
        <ele>1484.50</ele>
        <time>2013-07-19T13:57:31Z</time>
      </trkpt>
      <trkpt lat="28.018234000" lon="-15.628983000">
        <ele>1481.90</ele>
        <time>2013-07-19T13:57:36Z</time>
      </trkpt>
      <trkpt lat="28.018204000" lon="-15.629120000">
        <ele>1475.70</ele>
        <time>2013-07-19T13:57:41Z</time>
      </trkpt>
      <trkpt lat="28.018173000" lon="-15.629166000">
        <ele>1472.40</ele>
        <time>2013-07-19T13:58:25Z</time>
      </trkpt>
      <trkpt lat="28.018188000" lon="-15.629242000">
        <ele>1473.60</ele>
        <time>2013-07-19T13:59:12Z</time>
      </trkpt>
      <trkpt lat="28.018265000" lon="-15.629547000">
        <ele>1479.50</ele>
        <time>2013-07-19T13:59:17Z</time>
      </trkpt>
      <trkpt lat="28.018387000" lon="-15.629959000">
        <ele>1483.10</ele>
        <time>2013-07-19T13:59:22Z</time>
      </trkpt>
      <trkpt lat="28.018494000" lon="-15.630295000">
        <ele>1480.50</ele>
        <time>2013-07-19T13:59:28Z</time>
      </trkpt>
      <trkpt lat="28.018494000" lon="-15.630600000">
        <ele>1480.30</ele>
        <time>2013-07-19T13:59:33Z</time>
      </trkpt>
      <trkpt lat="28.018326000" lon="-15.630966000">
        <ele>1484.20</ele>
        <time>2013-07-19T13:59:39Z</time>
      </trkpt>
      <trkpt lat="28.018234000" lon="-15.631424000">
        <ele>1474.90</ele>
        <time>2013-07-19T13:59:44Z</time>
      </trkpt>
      <trkpt lat="28.017960000" lon="-15.631866000">
        <ele>1444.20</ele>
        <time>2013-07-19T13:59:49Z</time>
      </trkpt>
      <trkpt lat="28.017670000" lon="-15.632202000">
        <ele>1411.80</ele>
        <time>2013-07-19T13:59:54Z</time>
      </trkpt>
      <trkpt lat="28.017654000" lon="-15.632629000">
        <ele>1408.90</ele>
        <time>2013-07-19T14:00:00Z</time>
      </trkpt>
      <trkpt lat="28.017746000" lon="-15.632996000">
        <ele>1413.80</ele>
        <time>2013-07-19T14:00:06Z</time>
      </trkpt>
      <trkpt lat="28.017868000" lon="-15.633209000">
        <ele>1420.80</ele>
        <time>2013-07-19T14:00:12Z</time>
      </trkpt>
      <trkpt lat="28.017929000" lon="-15.633316000">
        <ele>1424.50</ele>
        <time>2013-07-19T14:00:18Z</time>
      </trkpt>
      <trkpt lat="28.018082000" lon="-15.633469000">
        <ele>1433.80</ele>
        <time>2013-07-19T14:00:23Z</time>
      </trkpt>
      <trkpt lat="28.018219000" lon="-15.633728000">
        <ele>1442.60</ele>
        <time>2013-07-19T14:00:29Z</time>
      </trkpt>
      <trkpt lat="28.018387000" lon="-15.633957000">
        <ele>1449.10</ele>
        <time>2013-07-19T14:00:35Z</time>
      </trkpt>
      <trkpt lat="28.018524000" lon="-15.634277000">
        <ele>1446.90</ele>
        <time>2013-07-19T14:00:41Z</time>
      </trkpt>
      <trkpt lat="28.018646000" lon="-15.634552000">
        <ele>1446.50</ele>
        <time>2013-07-19T14:00:46Z</time>
      </trkpt>
      <trkpt lat="28.018768000" lon="-15.634766000">
        <ele>1446.80</ele>
        <time>2013-07-19T14:00:52Z</time>
      </trkpt>
      <trkpt lat="28.018936000" lon="-15.634918000">
        <ele>1447.40</ele>
        <time>2013-07-19T14:00:57Z</time>
      </trkpt>
      <trkpt lat="28.019135000" lon="-15.635147000">
        <ele>1445.00</ele>
        <time>2013-07-19T14:01:03Z</time>
      </trkpt>
      <trkpt lat="28.019272000" lon="-15.635300000">
        <ele>1442.00</ele>
        <time>2013-07-19T14:01:08Z</time>
      </trkpt>
      <trkpt lat="28.019333000" lon="-15.635345000">
        <ele>1441.20</ele>
        <time>2013-07-19T14:01:14Z</time>
      </trkpt>
      <trkpt lat="28.019287000" lon="-15.635345000">
        <ele>1441.10</ele>
        <time>2013-07-19T14:01:53Z</time>
      </trkpt>
      <trkpt lat="28.019318000" lon="-15.635315000">
        <ele>1441.70</ele>
        <time>2013-07-19T14:02:26Z</time>
      </trkpt>
      <trkpt lat="28.019363000" lon="-15.635345000">
        <ele>1441.20</ele>
        <time>2013-07-19T14:02:49Z</time>
      </trkpt>
      <trkpt lat="28.019485000" lon="-15.635498000">
        <ele>1439.20</ele>
        <time>2013-07-19T14:02:55Z</time>
      </trkpt>
      <trkpt lat="28.019745000" lon="-15.635803000">
        <ele>1436.90</ele>
        <time>2013-07-19T14:03:01Z</time>
      </trkpt>
      <trkpt lat="28.019989000" lon="-15.636047000">
        <ele>1435.80</ele>
        <time>2013-07-19T14:03:07Z</time>
      </trkpt>
      <trkpt lat="28.020096000" lon="-15.636200000">
        <ele>1434.20</ele>
        <time>2013-07-19T14:03:12Z</time>
      </trkpt>
      <trkpt lat="28.020264000" lon="-15.636368000">
        <ele>1432.80</ele>
        <time>2013-07-19T14:03:18Z</time>
      </trkpt>
      <trkpt lat="28.020340000" lon="-15.636581000">
        <ele>1431.10</ele>
        <time>2013-07-19T14:03:24Z</time>
      </trkpt>
      <trkpt lat="28.020309000" lon="-15.636887000">
        <ele>1428.90</ele>
        <time>2013-07-19T14:03:30Z</time>
      </trkpt>
      <trkpt lat="28.020187000" lon="-15.637100000">
        <ele>1428.00</ele>
        <time>2013-07-19T14:03:35Z</time>
      </trkpt>
      <trkpt lat="28.020081000" lon="-15.637329000">
        <ele>1428.10</ele>
        <time>2013-07-19T14:03:41Z</time>
      </trkpt>
      <trkpt lat="28.019943000" lon="-15.637634000">
        <ele>1428.80</ele>
        <time>2013-07-19T14:03:47Z</time>
      </trkpt>
      <trkpt lat="28.019714000" lon="-15.638000000">
        <ele>1433.70</ele>
        <time>2013-07-19T14:03:52Z</time>
      </trkpt>
      <trkpt lat="28.019638000" lon="-15.638382000">
        <ele>1433.70</ele>
        <time>2013-07-19T14:03:57Z</time>
      </trkpt>
      <trkpt lat="28.019653000" lon="-15.638748000">
        <ele>1425.60</ele>
        <time>2013-07-19T14:04:03Z</time>
      </trkpt>
      <trkpt lat="28.019470000" lon="-15.638977000">
        <ele>1430.60</ele>
        <time>2013-07-19T14:04:08Z</time>
      </trkpt>
      <trkpt lat="28.019226000" lon="-15.639236000">
        <ele>1437.90</ele>
        <time>2013-07-19T14:04:14Z</time>
      </trkpt>
      <trkpt lat="28.019165000" lon="-15.639465000">
        <ele>1432.70</ele>
        <time>2013-07-19T14:04:20Z</time>
      </trkpt>
      <trkpt lat="28.019119000" lon="-15.639450000">
        <ele>1433.20</ele>
        <time>2013-07-19T14:05:58Z</time>
      </trkpt>
      <trkpt lat="28.019058000" lon="-15.639481000">
        <ele>1432.50</ele>
        <time>2013-07-19T14:06:03Z</time>
      </trkpt>
      <trkpt lat="28.019089000" lon="-15.639435000">
        <ele>1433.80</ele>
        <time>2013-07-19T14:06:17Z</time>
      </trkpt>
      <trkpt lat="28.019150000" lon="-15.639420000">
        <ele>1434.40</ele>
        <time>2013-07-19T14:06:23Z</time>
      </trkpt>
      <trkpt lat="28.019196000" lon="-15.639359000">
        <ele>1435.20</ele>
        <time>2013-07-19T14:06:28Z</time>
      </trkpt>
      <trkpt lat="28.019226000" lon="-15.639297000">
        <ele>1435.60</ele>
        <time>2013-07-19T14:06:33Z</time>
      </trkpt>
      <trkpt lat="28.019257000" lon="-15.639236000">
        <ele>1435.90</ele>
        <time>2013-07-19T14:06:39Z</time>
      </trkpt>
      <trkpt lat="28.019287000" lon="-15.639191000">
        <ele>1436.30</ele>
        <time>2013-07-19T14:07:04Z</time>
      </trkpt>
      <trkpt lat="28.019348000" lon="-15.639130000">
        <ele>1434.80</ele>
        <time>2013-07-19T14:07:10Z</time>
      </trkpt>
      <trkpt lat="28.019409000" lon="-15.639069000">
        <ele>1432.50</ele>
        <time>2013-07-19T14:07:16Z</time>
      </trkpt>
      <trkpt lat="28.019470000" lon="-15.638992000">
        <ele>1430.00</ele>
        <time>2013-07-19T14:07:22Z</time>
      </trkpt>
      <trkpt lat="28.019531000" lon="-15.638931000">
        <ele>1428.00</ele>
        <time>2013-07-19T14:07:28Z</time>
      </trkpt>
      <trkpt lat="28.019577000" lon="-15.638840000">
        <ele>1427.80</ele>
        <time>2013-07-19T14:07:34Z</time>
      </trkpt>
      <trkpt lat="28.019608000" lon="-15.638779000">
        <ele>1427.20</ele>
        <time>2013-07-19T14:07:39Z</time>
      </trkpt>
      <trkpt lat="28.019638000" lon="-15.638687000">
        <ele>1427.80</ele>
        <time>2013-07-19T14:07:45Z</time>
      </trkpt>
      <trkpt lat="28.019653000" lon="-15.638596000">
        <ele>1428.50</ele>
        <time>2013-07-19T14:07:51Z</time>
      </trkpt>
      <trkpt lat="28.019653000" lon="-15.638519000">
        <ele>1430.20</ele>
        <time>2013-07-19T14:07:56Z</time>
      </trkpt>
      <trkpt lat="28.019623000" lon="-15.638458000">
        <ele>1433.30</ele>
        <time>2013-07-19T14:08:02Z</time>
      </trkpt>
      <trkpt lat="28.019592000" lon="-15.638397000">
        <ele>1435.40</ele>
        <time>2013-07-19T14:08:07Z</time>
      </trkpt>
      <trkpt lat="28.019592000" lon="-15.638336000">
        <ele>1437.00</ele>
        <time>2013-07-19T14:08:13Z</time>
      </trkpt>
      <trkpt lat="28.019608000" lon="-15.638260000">
        <ele>1436.80</ele>
        <time>2013-07-19T14:08:19Z</time>
      </trkpt>
      <trkpt lat="28.019623000" lon="-15.638214000">
        <ele>1436.50</ele>
        <time>2013-07-19T14:08:25Z</time>
      </trkpt>
      <trkpt lat="28.019669000" lon="-15.638229000">
        <ele>1434.30</ele>
        <time>2013-07-19T14:08:58Z</time>
      </trkpt>
      <trkpt lat="28.019638000" lon="-15.638275000">
        <ele>1434.90</ele>
        <time>2013-07-19T14:11:04Z</time>
      </trkpt>
      <trkpt lat="28.019577000" lon="-15.638260000">
        <ele>1438.30</ele>
        <time>2013-07-19T14:13:21Z</time>
      </trkpt>
      <trkpt lat="28.019623000" lon="-15.638245000">
        <ele>1436.30</ele>
        <time>2013-07-19T14:13:55Z</time>
      </trkpt>
      <trkpt lat="28.019592000" lon="-15.638290000">
        <ele>1437.40</ele>
        <time>2013-07-19T14:14:18Z</time>
      </trkpt>
      <trkpt lat="28.019623000" lon="-15.638458000">
        <ele>1433.00</ele>
        <time>2013-07-19T14:14:24Z</time>
      </trkpt>
      <trkpt lat="28.019592000" lon="-15.638748000">
        <ele>1428.30</ele>
        <time>2013-07-19T14:14:30Z</time>
      </trkpt>
      <trkpt lat="28.019455000" lon="-15.638992000">
        <ele>1431.40</ele>
        <time>2013-07-19T14:14:35Z</time>
      </trkpt>
      <trkpt lat="28.019226000" lon="-15.639175000">
        <ele>1439.90</ele>
        <time>2013-07-19T14:14:41Z</time>
      </trkpt>
      <trkpt lat="28.019165000" lon="-15.639359000">
        <ele>1437.00</ele>
        <time>2013-07-19T14:14:47Z</time>
      </trkpt>
      <trkpt lat="28.019196000" lon="-15.639435000">
        <ele>1432.10</ele>
        <time>2013-07-19T14:14:52Z</time>
      </trkpt>
      <trkpt lat="28.019226000" lon="-15.639465000">
        <ele>1428.90</ele>
        <time>2013-07-19T14:15:26Z</time>
      </trkpt>
      <trkpt lat="28.019272000" lon="-15.639435000">
        <ele>1428.20</ele>
        <time>2013-07-19T14:15:34Z</time>
      </trkpt>
      <trkpt lat="28.019318000" lon="-15.639389000">
        <ele>1427.40</ele>
        <time>2013-07-19T14:15:39Z</time>
      </trkpt>
      <trkpt lat="28.019363000" lon="-15.639359000">
        <ele>1426.10</ele>
        <time>2013-07-19T14:15:45Z</time>
      </trkpt>
      <trkpt lat="28.019409000" lon="-15.639297000">
        <ele>1425.70</ele>
        <time>2013-07-19T14:15:50Z</time>
      </trkpt>
      <trkpt lat="28.019440000" lon="-15.639236000">
        <ele>1426.30</ele>
        <time>2013-07-19T14:15:56Z</time>
      </trkpt>
      <trkpt lat="28.019409000" lon="-15.639282000">
        <ele>1426.10</ele>
        <time>2013-07-19T14:16:06Z</time>
      </trkpt>
      <trkpt lat="28.019440000" lon="-15.639252000">
        <ele>1425.90</ele>
        <time>2013-07-19T14:16:41Z</time>
      </trkpt>
      <trkpt lat="28.019455000" lon="-15.639191000">
        <ele>1426.90</ele>
        <time>2013-07-19T14:17:07Z</time>
      </trkpt>
      <trkpt lat="28.019501000" lon="-15.639175000">
        <ele>1424.80</ele>
        <time>2013-07-19T14:17:13Z</time>
      </trkpt>
      <trkpt lat="28.019653000" lon="-15.639145000">
        <ele>1417.00</ele>
        <time>2013-07-19T14:17:19Z</time>
      </trkpt>
      <trkpt lat="28.019836000" lon="-15.639069000">
        <ele>1408.10</ele>
        <time>2013-07-19T14:17:25Z</time>
      </trkpt>
      <trkpt lat="28.019943000" lon="-15.639008000">
        <ele>1403.90</ele>
        <time>2013-07-19T14:17:30Z</time>
      </trkpt>
      <trkpt lat="28.020035000" lon="-15.638916000">
        <ele>1402.30</ele>
        <time>2013-07-19T14:17:35Z</time>
      </trkpt>
      <trkpt lat="28.020126000" lon="-15.638885000">
        <ele>1400.50</ele>
        <time>2013-07-19T14:17:41Z</time>
      </trkpt>
      <trkpt lat="28.020157000" lon="-15.638916000">
        <ele>1398.80</ele>
        <time>2013-07-19T14:17:46Z</time>
      </trkpt>
      <trkpt lat="28.020142000" lon="-15.638977000">
        <ele>1398.10</ele>
        <time>2013-07-19T14:18:34Z</time>
      </trkpt>
      <trkpt lat="28.020096000" lon="-15.639130000">
        <ele>1395.30</ele>
        <time>2013-07-19T14:18:40Z</time>
      </trkpt>
      <trkpt lat="28.020065000" lon="-15.639236000">
        <ele>1393.30</ele>
        <time>2013-07-19T14:18:45Z</time>
      </trkpt>
      <trkpt lat="28.020020000" lon="-15.639282000">
        <ele>1393.50</ele>
        <time>2013-07-19T14:18:50Z</time>
      </trkpt>
      <trkpt lat="28.020050000" lon="-15.639374000">
        <ele>1390.20</ele>
        <time>2013-07-19T14:18:55Z</time>
      </trkpt>
      <trkpt lat="28.019974000" lon="-15.639481000">
        <ele>1389.70</ele>
        <time>2013-07-19T14:19:01Z</time>
      </trkpt>
      <trkpt lat="28.019943000" lon="-15.639572000">
        <ele>1389.20</ele>
        <time>2013-07-19T14:19:06Z</time>
      </trkpt>
      <trkpt lat="28.019852000" lon="-15.639648000">
        <ele>1391.70</ele>
        <time>2013-07-19T14:19:12Z</time>
      </trkpt>
      <trkpt lat="28.019745000" lon="-15.639740000">
        <ele>1394.50</ele>
        <time>2013-07-19T14:19:17Z</time>
      </trkpt>
      <trkpt lat="28.019699000" lon="-15.639801000">
        <ele>1394.20</ele>
        <time>2013-07-19T14:19:22Z</time>
      </trkpt>
      <trkpt lat="28.019714000" lon="-15.639862000">
        <ele>1391.80</ele>
        <time>2013-07-19T14:19:37Z</time>
      </trkpt>
      <trkpt lat="28.019730000" lon="-15.639999000">
        <ele>1387.10</ele>
        <time>2013-07-19T14:19:42Z</time>
      </trkpt>
      <trkpt lat="28.019791000" lon="-15.640213000">
        <ele>1377.00</ele>
        <time>2013-07-19T14:19:48Z</time>
      </trkpt>
      <trkpt lat="28.019608000" lon="-15.640503000">
        <ele>1372.30</ele>
        <time>2013-07-19T14:19:53Z</time>
      </trkpt>
      <trkpt lat="28.019318000" lon="-15.640686000">
        <ele>1373.20</ele>
        <time>2013-07-19T14:19:58Z</time>
      </trkpt>
      <trkpt lat="28.019257000" lon="-15.641098000">
        <ele>1358.20</ele>
        <time>2013-07-19T14:20:04Z</time>
      </trkpt>
      <trkpt lat="28.019226000" lon="-15.641296000">
        <ele>1351.40</ele>
        <time>2013-07-19T14:20:09Z</time>
      </trkpt>
      <trkpt lat="28.019180000" lon="-15.641327000">
        <ele>1350.90</ele>
        <time>2013-07-19T14:20:15Z</time>
      </trkpt>
      <trkpt lat="28.019196000" lon="-15.641373000">
        <ele>1348.80</ele>
        <time>2013-07-19T14:20:33Z</time>
      </trkpt>
      <trkpt lat="28.019241000" lon="-15.641434000">
        <ele>1345.60</ele>
        <time>2013-07-19T14:20:39Z</time>
      </trkpt>
      <trkpt lat="28.019302000" lon="-15.641479000">
        <ele>1343.10</ele>
        <time>2013-07-19T14:20:45Z</time>
      </trkpt>
      <trkpt lat="28.019363000" lon="-15.641479000">
        <ele>1342.50</ele>
        <time>2013-07-19T14:20:50Z</time>
      </trkpt>
      <trkpt lat="28.019363000" lon="-15.641541000">
        <ele>1340.30</ele>
        <time>2013-07-19T14:20:59Z</time>
      </trkpt>
      <trkpt lat="28.019257000" lon="-15.641647000">
        <ele>1337.90</ele>
        <time>2013-07-19T14:21:05Z</time>
      </trkpt>
      <trkpt lat="28.019302000" lon="-15.641632000">
        <ele>1337.60</ele>
        <time>2013-07-19T14:21:35Z</time>
      </trkpt>
      <trkpt lat="28.019348000" lon="-15.641632000">
        <ele>1337.10</ele>
        <time>2013-07-19T14:25:41Z</time>
      </trkpt>
      <trkpt lat="28.019455000" lon="-15.641556000">
        <ele>1338.40</ele>
        <time>2013-07-19T14:25:46Z</time>
      </trkpt>
      <trkpt lat="28.019577000" lon="-15.641373000">
        <ele>1342.90</ele>
        <time>2013-07-19T14:25:52Z</time>
      </trkpt>
      <trkpt lat="28.019730000" lon="-15.641174000">
        <ele>1346.00</ele>
        <time>2013-07-19T14:25:58Z</time>
      </trkpt>
      <trkpt lat="28.019760000" lon="-15.641220000">
        <ele>1344.40</ele>
        <time>2013-07-19T14:26:13Z</time>
      </trkpt>
      <trkpt lat="28.019791000" lon="-15.641251000">
        <ele>1342.70</ele>
        <time>2013-07-19T14:26:24Z</time>
      </trkpt>
      <trkpt lat="28.019760000" lon="-15.641296000">
        <ele>1341.80</ele>
        <time>2013-07-19T14:26:32Z</time>
      </trkpt>
      <trkpt lat="28.019730000" lon="-15.641342000">
        <ele>1341.20</ele>
        <time>2013-07-19T14:26:37Z</time>
      </trkpt>
      <trkpt lat="28.019684000" lon="-15.641373000">
        <ele>1340.90</ele>
        <time>2013-07-19T14:26:47Z</time>
      </trkpt>
      <trkpt lat="28.019653000" lon="-15.641479000">
        <ele>1338.20</ele>
        <time>2013-07-19T14:26:52Z</time>
      </trkpt>
      <trkpt lat="28.019592000" lon="-15.641693000">
        <ele>1332.70</ele>
        <time>2013-07-19T14:26:58Z</time>
      </trkpt>
      <trkpt lat="28.019547000" lon="-15.641800000">
        <ele>1331.50</ele>
        <time>2013-07-19T14:27:03Z</time>
      </trkpt>
      <trkpt lat="28.019562000" lon="-15.641846000">
        <ele>1330.40</ele>
        <time>2013-07-19T14:27:17Z</time>
      </trkpt>
      <trkpt lat="28.019562000" lon="-15.641891000">
        <ele>1329.70</ele>
        <time>2013-07-19T14:27:34Z</time>
      </trkpt>
      <trkpt lat="28.019562000" lon="-15.641953000">
        <ele>1328.80</ele>
        <time>2013-07-19T14:27:43Z</time>
      </trkpt>
      <trkpt lat="28.019531000" lon="-15.641998000">
        <ele>1328.50</ele>
        <time>2013-07-19T14:27:51Z</time>
      </trkpt>
      <trkpt lat="28.019501000" lon="-15.642029000">
        <ele>1328.30</ele>
        <time>2013-07-19T14:27:57Z</time>
      </trkpt>
      <trkpt lat="28.019455000" lon="-15.642075000">
        <ele>1328.30</ele>
        <time>2013-07-19T14:28:02Z</time>
      </trkpt>
      <trkpt lat="28.019379000" lon="-15.642120000">
        <ele>1328.30</ele>
        <time>2013-07-19T14:28:08Z</time>
      </trkpt>
      <trkpt lat="28.019333000" lon="-15.642166000">
        <ele>1328.30</ele>
        <time>2013-07-19T14:28:13Z</time>
      </trkpt>
      <trkpt lat="28.019287000" lon="-15.642181000">
        <ele>1328.40</ele>
        <time>2013-07-19T14:28:19Z</time>
      </trkpt>
      <trkpt lat="28.019257000" lon="-15.642212000">
        <ele>1328.40</ele>
        <time>2013-07-19T14:28:26Z</time>
      </trkpt>
      <trkpt lat="28.019257000" lon="-15.642273000">
        <ele>1327.40</ele>
        <time>2013-07-19T14:28:32Z</time>
      </trkpt>
      <trkpt lat="28.019287000" lon="-15.642380000">
        <ele>1325.30</ele>
        <time>2013-07-19T14:28:38Z</time>
      </trkpt>
      <trkpt lat="28.019302000" lon="-15.642548000">
        <ele>1322.30</ele>
        <time>2013-07-19T14:28:43Z</time>
      </trkpt>
      <trkpt lat="28.019302000" lon="-15.642609000">
        <ele>1320.80</ele>
        <time>2013-07-19T14:28:48Z</time>
      </trkpt>
      <trkpt lat="28.019333000" lon="-15.642654000">
        <ele>1319.30</ele>
        <time>2013-07-19T14:28:54Z</time>
      </trkpt>
      <trkpt lat="28.019363000" lon="-15.642700000">
        <ele>1317.40</ele>
        <time>2013-07-19T14:29:00Z</time>
      </trkpt>
      <trkpt lat="28.019409000" lon="-15.642792000">
        <ele>1315.00</ele>
        <time>2013-07-19T14:29:06Z</time>
      </trkpt>
      <trkpt lat="28.019440000" lon="-15.642853000">
        <ele>1313.10</ele>
        <time>2013-07-19T14:29:11Z</time>
      </trkpt>
      <trkpt lat="28.019485000" lon="-15.642914000">
        <ele>1311.00</ele>
        <time>2013-07-19T14:29:17Z</time>
      </trkpt>
      <trkpt lat="28.019516000" lon="-15.642975000">
        <ele>1309.20</ele>
        <time>2013-07-19T14:29:22Z</time>
      </trkpt>
      <trkpt lat="28.019547000" lon="-15.643021000">
        <ele>1307.80</ele>
        <time>2013-07-19T14:30:01Z</time>
      </trkpt>
      <trkpt lat="28.019547000" lon="-15.643082000">
        <ele>1306.20</ele>
        <time>2013-07-19T14:30:08Z</time>
      </trkpt>
      <trkpt lat="28.019638000" lon="-15.643280000">
        <ele>1300.90</ele>
        <time>2013-07-19T14:30:14Z</time>
      </trkpt>
      <trkpt lat="28.019806000" lon="-15.643539000">
        <ele>1298.30</ele>
        <time>2013-07-19T14:30:20Z</time>
      </trkpt>
      <trkpt lat="28.020035000" lon="-15.643677000">
        <ele>1296.40</ele>
        <time>2013-07-19T14:30:25Z</time>
      </trkpt>
      <trkpt lat="28.020355000" lon="-15.643936000">
        <ele>1287.30</ele>
        <time>2013-07-19T14:30:31Z</time>
      </trkpt>
      <trkpt lat="28.020706000" lon="-15.644043000">
        <ele>1276.40</ele>
        <time>2013-07-19T14:30:37Z</time>
      </trkpt>
      <trkpt lat="28.020920000" lon="-15.644272000">
        <ele>1272.40</ele>
        <time>2013-07-19T14:30:42Z</time>
      </trkpt>
      <trkpt lat="28.021210000" lon="-15.644669000">
        <ele>1274.70</ele>
        <time>2013-07-19T14:30:48Z</time>
      </trkpt>
      <trkpt lat="28.021393000" lon="-15.644821000">
        <ele>1271.50</ele>
        <time>2013-07-19T14:30:53Z</time>
      </trkpt>
      <trkpt lat="28.021545000" lon="-15.645309000">
        <ele>1275.40</ele>
        <time>2013-07-19T14:30:59Z</time>
      </trkpt>
      <trkpt lat="28.021622000" lon="-15.645584000">
        <ele>1279.70</ele>
        <time>2013-07-19T14:31:04Z</time>
      </trkpt>
      <trkpt lat="28.021622000" lon="-15.645630000">
        <ele>1280.90</ele>
        <time>2013-07-19T14:31:09Z</time>
      </trkpt>
      <trkpt lat="28.021591000" lon="-15.645599000">
        <ele>1280.90</ele>
        <time>2013-07-19T14:32:20Z</time>
      </trkpt>
      <trkpt lat="28.021393000" lon="-15.645462000">
        <ele>1282.50</ele>
        <time>2013-07-19T14:32:26Z</time>
      </trkpt>
      <trkpt lat="28.021317000" lon="-15.645401000">
        <ele>1283.60</ele>
        <time>2013-07-19T14:32:32Z</time>
      </trkpt>
      <trkpt lat="28.021255000" lon="-15.645386000">
        <ele>1285.00</ele>
        <time>2013-07-19T14:32:43Z</time>
      </trkpt>
      <trkpt lat="28.020981000" lon="-15.645432000">
        <ele>1292.80</ele>
        <time>2013-07-19T14:32:49Z</time>
      </trkpt>
      <trkpt lat="28.020752000" lon="-15.645599000">
        <ele>1296.10</ele>
        <time>2013-07-19T14:32:55Z</time>
      </trkpt>
      <trkpt lat="28.020615000" lon="-15.645752000">
        <ele>1294.60</ele>
        <time>2013-07-19T14:33:01Z</time>
      </trkpt>
      <trkpt lat="28.020538000" lon="-15.645691000">
        <ele>1294.60</ele>
        <time>2013-07-19T14:33:06Z</time>
      </trkpt>
      <trkpt lat="28.020493000" lon="-15.645691000">
        <ele>1294.30</ele>
        <time>2013-07-19T14:33:11Z</time>
      </trkpt>
      <trkpt lat="28.020432000" lon="-15.645691000">
        <ele>1294.10</ele>
        <time>2013-07-19T14:33:17Z</time>
      </trkpt>
      <trkpt lat="28.020203000" lon="-15.645630000">
        <ele>1294.00</ele>
        <time>2013-07-19T14:33:23Z</time>
      </trkpt>
      <trkpt lat="28.019882000" lon="-15.645645000">
        <ele>1287.10</ele>
        <time>2013-07-19T14:33:29Z</time>
      </trkpt>
      <trkpt lat="28.019836000" lon="-15.645691000">
        <ele>1283.30</ele>
        <time>2013-07-19T14:33:36Z</time>
      </trkpt>
      <trkpt lat="28.019791000" lon="-15.646301000">
        <ele>1260.00</ele>
        <time>2013-07-19T14:33:43Z</time>
      </trkpt>
      <trkpt lat="28.019928000" lon="-15.646301000">
        <ele>1266.30</ele>
        <time>2013-07-19T14:33:49Z</time>
      </trkpt>
      <trkpt lat="28.020096000" lon="-15.646255000">
        <ele>1271.80</ele>
        <time>2013-07-19T14:33:55Z</time>
      </trkpt>
      <trkpt lat="28.020187000" lon="-15.646362000">
        <ele>1267.90</ele>
        <time>2013-07-19T14:34:00Z</time>
      </trkpt>
      <trkpt lat="28.020203000" lon="-15.646561000">
        <ele>1259.90</ele>
        <time>2013-07-19T14:34:06Z</time>
      </trkpt>
      <trkpt lat="28.020157000" lon="-15.646637000">
        <ele>1256.80</ele>
        <time>2013-07-19T14:34:11Z</time>
      </trkpt>
      <trkpt lat="28.020172000" lon="-15.646698000">
        <ele>1254.90</ele>
        <time>2013-07-19T14:34:29Z</time>
      </trkpt>
      <trkpt lat="28.020203000" lon="-15.646851000">
        <ele>1251.40</ele>
        <time>2013-07-19T14:34:35Z</time>
      </trkpt>
      <trkpt lat="28.020309000" lon="-15.647278000">
        <ele>1241.70</ele>
        <time>2013-07-19T14:34:40Z</time>
      </trkpt>
      <trkpt lat="28.020386000" lon="-15.647369000">
        <ele>1239.30</ele>
        <time>2013-07-19T14:34:45Z</time>
      </trkpt>
      <trkpt lat="28.020493000" lon="-15.647522000">
        <ele>1235.50</ele>
        <time>2013-07-19T14:34:51Z</time>
      </trkpt>
      <trkpt lat="28.020599000" lon="-15.647644000">
        <ele>1234.10</ele>
        <time>2013-07-19T14:34:56Z</time>
      </trkpt>
      <trkpt lat="28.020706000" lon="-15.647736000">
        <ele>1232.80</ele>
        <time>2013-07-19T14:35:01Z</time>
      </trkpt>
      <trkpt lat="28.020813000" lon="-15.647873000">
        <ele>1231.50</ele>
        <time>2013-07-19T14:35:07Z</time>
      </trkpt>
      <trkpt lat="28.020920000" lon="-15.647964000">
        <ele>1230.40</ele>
        <time>2013-07-19T14:35:13Z</time>
      </trkpt>
      <trkpt lat="28.020950000" lon="-15.648026000">
        <ele>1229.60</ele>
        <time>2013-07-19T14:35:18Z</time>
      </trkpt>
      <trkpt lat="28.020920000" lon="-15.648071000">
        <ele>1229.20</ele>
        <time>2013-07-19T14:35:24Z</time>
      </trkpt>
      <trkpt lat="28.020859000" lon="-15.648132000">
        <ele>1228.80</ele>
        <time>2013-07-19T14:35:29Z</time>
      </trkpt>
      <trkpt lat="28.020813000" lon="-15.648193000">
        <ele>1228.30</ele>
        <time>2013-07-19T14:35:34Z</time>
      </trkpt>
      <trkpt lat="28.020752000" lon="-15.648300000">
        <ele>1227.30</ele>
        <time>2013-07-19T14:35:44Z</time>
      </trkpt>
      <trkpt lat="28.020615000" lon="-15.648346000">
        <ele>1226.70</ele>
        <time>2013-07-19T14:35:49Z</time>
      </trkpt>
      <trkpt lat="28.020569000" lon="-15.648376000">
        <ele>1226.50</ele>
        <time>2013-07-19T14:35:54Z</time>
      </trkpt>
      <trkpt lat="28.020493000" lon="-15.648392000">
        <ele>1226.30</ele>
        <time>2013-07-19T14:36:01Z</time>
      </trkpt>
      <trkpt lat="28.020447000" lon="-15.648407000">
        <ele>1226.00</ele>
        <time>2013-07-19T14:36:16Z</time>
      </trkpt>
      <trkpt lat="28.020416000" lon="-15.648438000">
        <ele>1225.60</ele>
        <time>2013-07-19T14:36:21Z</time>
      </trkpt>
      <trkpt lat="28.020432000" lon="-15.648499000">
        <ele>1225.20</ele>
        <time>2013-07-19T14:36:42Z</time>
      </trkpt>
      <trkpt lat="28.020493000" lon="-15.648560000">
        <ele>1225.10</ele>
        <time>2013-07-19T14:36:48Z</time>
      </trkpt>
      <trkpt lat="28.021027000" lon="-15.648117000">
        <ele>1227.80</ele>
        <time>2013-07-19T15:32:38Z</time>
      </trkpt>
      <trkpt lat="28.020966000" lon="-15.648163000">
        <ele>1227.60</ele>
        <time>2013-07-19T15:32:44Z</time>
      </trkpt>
      <trkpt lat="28.020966000" lon="-15.648117000">
        <ele>1228.40</ele>
        <time>2013-07-19T15:33:05Z</time>
      </trkpt>
      <trkpt lat="28.020920000" lon="-15.648071000">
        <ele>1229.10</ele>
        <time>2013-07-19T15:33:10Z</time>
      </trkpt>
      <trkpt lat="28.020889000" lon="-15.648026000">
        <ele>1229.70</ele>
        <time>2013-07-19T15:33:21Z</time>
      </trkpt>
      <trkpt lat="28.020935000" lon="-15.648026000">
        <ele>1229.50</ele>
        <time>2013-07-19T15:33:56Z</time>
      </trkpt>
      <trkpt lat="28.021088000" lon="-15.648087000">
        <ele>1228.00</ele>
        <time>2013-07-19T15:34:02Z</time>
      </trkpt>
      <trkpt lat="28.021240000" lon="-15.648224000">
        <ele>1224.40</ele>
        <time>2013-07-19T15:34:07Z</time>
      </trkpt>
      <trkpt lat="28.021393000" lon="-15.648575000">
        <ele>1219.80</ele>
        <time>2013-07-19T15:34:13Z</time>
      </trkpt>
      <trkpt lat="28.021439000" lon="-15.648483000">
        <ele>1219.40</ele>
        <time>2013-07-19T15:34:18Z</time>
      </trkpt>
      <trkpt lat="28.021332000" lon="-15.648193000">
        <ele>1224.30</ele>
        <time>2013-07-19T15:34:24Z</time>
      </trkpt>
      <trkpt lat="28.021164000" lon="-15.647980000">
        <ele>1229.90</ele>
        <time>2013-07-19T15:34:29Z</time>
      </trkpt>
      <trkpt lat="28.020966000" lon="-15.647797000">
        <ele>1232.70</ele>
        <time>2013-07-19T15:34:35Z</time>
      </trkpt>
      <trkpt lat="28.020782000" lon="-15.647614000">
        <ele>1234.00</ele>
        <time>2013-07-19T15:34:41Z</time>
      </trkpt>
      <trkpt lat="28.020630000" lon="-15.647476000">
        <ele>1236.30</ele>
        <time>2013-07-19T15:34:46Z</time>
      </trkpt>
      <trkpt lat="28.020569000" lon="-15.647430000">
        <ele>1237.40</ele>
        <time>2013-07-19T15:34:52Z</time>
      </trkpt>
      <trkpt lat="28.020630000" lon="-15.647461000">
        <ele>1236.50</ele>
        <time>2013-07-19T15:35:08Z</time>
      </trkpt>
      <trkpt lat="28.020706000" lon="-15.647491000">
        <ele>1235.70</ele>
        <time>2013-07-19T15:35:15Z</time>
      </trkpt>
      <trkpt lat="28.020981000" lon="-15.647659000">
        <ele>1234.50</ele>
        <time>2013-07-19T15:35:20Z</time>
      </trkpt>
      <trkpt lat="28.021362000" lon="-15.647903000">
        <ele>1231.50</ele>
        <time>2013-07-19T15:35:26Z</time>
      </trkpt>
      <trkpt lat="28.021484000" lon="-15.647995000">
        <ele>1228.70</ele>
        <time>2013-07-19T15:35:31Z</time>
      </trkpt>
      <trkpt lat="28.021576000" lon="-15.648087000">
        <ele>1226.00</ele>
        <time>2013-07-19T15:35:36Z</time>
      </trkpt>
      <trkpt lat="28.021805000" lon="-15.648422000">
        <ele>1218.30</ele>
        <time>2013-07-19T15:35:42Z</time>
      </trkpt>
      <trkpt lat="28.021820000" lon="-15.648849000">
        <ele>1214.50</ele>
        <time>2013-07-19T15:35:47Z</time>
      </trkpt>
      <trkpt lat="28.021622000" lon="-15.649231000">
        <ele>1213.00</ele>
        <time>2013-07-19T15:35:52Z</time>
      </trkpt>
      <trkpt lat="28.021515000" lon="-15.649551000">
        <ele>1211.50</ele>
        <time>2013-07-19T15:35:58Z</time>
      </trkpt>
      <trkpt lat="28.021515000" lon="-15.649933000">
        <ele>1207.20</ele>
        <time>2013-07-19T15:36:03Z</time>
      </trkpt>
      <trkpt lat="28.021606000" lon="-15.650391000">
        <ele>1202.50</ele>
        <time>2013-07-19T15:36:09Z</time>
      </trkpt>
      <trkpt lat="28.021729000" lon="-15.650635000">
        <ele>1198.80</ele>
        <time>2013-07-19T15:36:14Z</time>
      </trkpt>
      <trkpt lat="28.021805000" lon="-15.650772000">
        <ele>1195.80</ele>
        <time>2013-07-19T15:36:20Z</time>
      </trkpt>
      <trkpt lat="28.021973000" lon="-15.650925000">
        <ele>1192.10</ele>
        <time>2013-07-19T15:36:25Z</time>
      </trkpt>
      <trkpt lat="28.022263000" lon="-15.651138000">
        <ele>1187.90</ele>
        <time>2013-07-19T15:36:31Z</time>
      </trkpt>
      <trkpt lat="28.022568000" lon="-15.651245000">
        <ele>1182.50</ele>
        <time>2013-07-19T15:36:36Z</time>
      </trkpt>
      <trkpt lat="28.022812000" lon="-15.651276000">
        <ele>1178.60</ele>
        <time>2013-07-19T15:36:41Z</time>
      </trkpt>
      <trkpt lat="28.023026000" lon="-15.651352000">
        <ele>1175.80</ele>
        <time>2013-07-19T15:36:46Z</time>
      </trkpt>
      <trkpt lat="28.023254000" lon="-15.651398000">
        <ele>1172.30</ele>
        <time>2013-07-19T15:36:51Z</time>
      </trkpt>
      <trkpt lat="28.023529000" lon="-15.651459000">
        <ele>1168.10</ele>
        <time>2013-07-19T15:36:57Z</time>
      </trkpt>
      <trkpt lat="28.023773000" lon="-15.651581000">
        <ele>1164.10</ele>
        <time>2013-07-19T15:37:03Z</time>
      </trkpt>
      <trkpt lat="28.023941000" lon="-15.651779000">
        <ele>1164.20</ele>
        <time>2013-07-19T15:37:08Z</time>
      </trkpt>
      <trkpt lat="28.024277000" lon="-15.651947000">
        <ele>1162.60</ele>
        <time>2013-07-19T15:37:14Z</time>
      </trkpt>
      <trkpt lat="28.024551000" lon="-15.652023000">
        <ele>1160.30</ele>
        <time>2013-07-19T15:37:19Z</time>
      </trkpt>
      <trkpt lat="28.024811000" lon="-15.652252000">
        <ele>1162.80</ele>
        <time>2013-07-19T15:37:25Z</time>
      </trkpt>
      <trkpt lat="28.024933000" lon="-15.652527000">
        <ele>1170.00</ele>
        <time>2013-07-19T15:37:30Z</time>
      </trkpt>
      <trkpt lat="28.024918000" lon="-15.652847000">
        <ele>1176.60</ele>
        <time>2013-07-19T15:37:35Z</time>
      </trkpt>
      <trkpt lat="28.024689000" lon="-15.653122000">
        <ele>1188.70</ele>
        <time>2013-07-19T15:37:41Z</time>
      </trkpt>
      <trkpt lat="28.024353000" lon="-15.653320000">
        <ele>1203.40</ele>
        <time>2013-07-19T15:37:46Z</time>
      </trkpt>
      <trkpt lat="28.023926000" lon="-15.653564000">
        <ele>1209.40</ele>
        <time>2013-07-19T15:37:52Z</time>
      </trkpt>
      <trkpt lat="28.023621000" lon="-15.653839000">
        <ele>1211.20</ele>
        <time>2013-07-19T15:37:57Z</time>
      </trkpt>
      <trkpt lat="28.023666000" lon="-15.654099000">
        <ele>1206.30</ele>
        <time>2013-07-19T15:38:02Z</time>
      </trkpt>
      <trkpt lat="28.023926000" lon="-15.654419000">
        <ele>1195.60</ele>
        <time>2013-07-19T15:38:08Z</time>
      </trkpt>
      <trkpt lat="28.024170000" lon="-15.654449000">
        <ele>1189.00</ele>
        <time>2013-07-19T15:38:13Z</time>
      </trkpt>
      <trkpt lat="28.024399000" lon="-15.654526000">
        <ele>1183.60</ele>
        <time>2013-07-19T15:38:19Z</time>
      </trkpt>
      <trkpt lat="28.024658000" lon="-15.654648000">
        <ele>1178.00</ele>
        <time>2013-07-19T15:38:25Z</time>
      </trkpt>
      <trkpt lat="28.024902000" lon="-15.654816000">
        <ele>1172.70</ele>
        <time>2013-07-19T15:38:31Z</time>
      </trkpt>
      <trkpt lat="28.024872000" lon="-15.655075000">
        <ele>1173.60</ele>
        <time>2013-07-19T15:38:36Z</time>
      </trkpt>
      <trkpt lat="28.024750000" lon="-15.655365000">
        <ele>1181.00</ele>
        <time>2013-07-19T15:38:41Z</time>
      </trkpt>
      <trkpt lat="28.024857000" lon="-15.655624000">
        <ele>1184.70</ele>
        <time>2013-07-19T15:38:46Z</time>
      </trkpt>
      <trkpt lat="28.025009000" lon="-15.655914000">
        <ele>1185.70</ele>
        <time>2013-07-19T15:38:52Z</time>
      </trkpt>
      <trkpt lat="28.024918000" lon="-15.656235000">
        <ele>1187.20</ele>
        <time>2013-07-19T15:38:57Z</time>
      </trkpt>
      <trkpt lat="28.024612000" lon="-15.656540000">
        <ele>1194.20</ele>
        <time>2013-07-19T15:39:03Z</time>
      </trkpt>
      <trkpt lat="28.024612000" lon="-15.656845000">
        <ele>1192.60</ele>
        <time>2013-07-19T15:39:08Z</time>
      </trkpt>
      <trkpt lat="28.024887000" lon="-15.657013000">
        <ele>1184.20</ele>
        <time>2013-07-19T15:39:13Z</time>
      </trkpt>
      <trkpt lat="28.025131000" lon="-15.657166000">
        <ele>1174.30</ele>
        <time>2013-07-19T15:39:18Z</time>
      </trkpt>
      <trkpt lat="28.025360000" lon="-15.657349000">
        <ele>1162.90</ele>
        <time>2013-07-19T15:39:23Z</time>
      </trkpt>
      <trkpt lat="28.025391000" lon="-15.657715000">
        <ele>1163.30</ele>
        <time>2013-07-19T15:39:28Z</time>
      </trkpt>
      <trkpt lat="28.025314000" lon="-15.658203000">
        <ele>1175.40</ele>
        <time>2013-07-19T15:39:34Z</time>
      </trkpt>
      <trkpt lat="28.025284000" lon="-15.658630000">
        <ele>1179.10</ele>
        <time>2013-07-19T15:39:40Z</time>
      </trkpt>
      <trkpt lat="28.025375000" lon="-15.658997000">
        <ele>1175.20</ele>
        <time>2013-07-19T15:39:45Z</time>
      </trkpt>
      <trkpt lat="28.025391000" lon="-15.659409000">
        <ele>1176.40</ele>
        <time>2013-07-19T15:39:51Z</time>
      </trkpt>
      <trkpt lat="28.025726000" lon="-15.659561000">
        <ele>1166.30</ele>
        <time>2013-07-19T15:39:57Z</time>
      </trkpt>
      <trkpt lat="28.026123000" lon="-15.659409000">
        <ele>1153.10</ele>
        <time>2013-07-19T15:40:03Z</time>
      </trkpt>
      <trkpt lat="28.026398000" lon="-15.659332000">
        <ele>1144.20</ele>
        <time>2013-07-19T15:40:08Z</time>
      </trkpt>
      <trkpt lat="28.026703000" lon="-15.659409000">
        <ele>1140.10</ele>
        <time>2013-07-19T15:40:14Z</time>
      </trkpt>
      <trkpt lat="28.026932000" lon="-15.659653000">
        <ele>1140.90</ele>
        <time>2013-07-19T15:40:20Z</time>
      </trkpt>
      <trkpt lat="28.027054000" lon="-15.659912000">
        <ele>1145.80</ele>
        <time>2013-07-19T15:40:25Z</time>
      </trkpt>
      <trkpt lat="28.027100000" lon="-15.660172000">
        <ele>1153.30</ele>
        <time>2013-07-19T15:40:30Z</time>
      </trkpt>
      <trkpt lat="28.027328000" lon="-15.660385000">
        <ele>1150.60</ele>
        <time>2013-07-19T15:40:35Z</time>
      </trkpt>
      <trkpt lat="28.027588000" lon="-15.660568000">
        <ele>1145.60</ele>
        <time>2013-07-19T15:40:40Z</time>
      </trkpt>
      <trkpt lat="28.027817000" lon="-15.660873000">
        <ele>1149.40</ele>
        <time>2013-07-19T15:40:46Z</time>
      </trkpt>
      <trkpt lat="28.027695000" lon="-15.661240000">
        <ele>1163.70</ele>
        <time>2013-07-19T15:40:51Z</time>
      </trkpt>
      <trkpt lat="28.027435000" lon="-15.661591000">
        <ele>1183.30</ele>
        <time>2013-07-19T15:40:57Z</time>
      </trkpt>
      <trkpt lat="28.027008000" lon="-15.661530000">
        <ele>1201.00</ele>
        <time>2013-07-19T15:41:02Z</time>
      </trkpt>
      <trkpt lat="28.026566000" lon="-15.661850000">
        <ele>1214.10</ele>
        <time>2013-07-19T15:41:08Z</time>
      </trkpt>
      <trkpt lat="28.026459000" lon="-15.662308000">
        <ele>1199.90</ele>
        <time>2013-07-19T15:41:13Z</time>
      </trkpt>
      <trkpt lat="28.026123000" lon="-15.662720000">
        <ele>1198.00</ele>
        <time>2013-07-19T15:41:19Z</time>
      </trkpt>
      <trkpt lat="28.025818000" lon="-15.663101000">
        <ele>1195.70</ele>
        <time>2013-07-19T15:41:24Z</time>
      </trkpt>
      <trkpt lat="28.025803000" lon="-15.663681000">
        <ele>1176.90</ele>
        <time>2013-07-19T15:41:30Z</time>
      </trkpt>
      <trkpt lat="28.026230000" lon="-15.663895000">
        <ele>1153.00</ele>
        <time>2013-07-19T15:41:36Z</time>
      </trkpt>
      <trkpt lat="28.026566000" lon="-15.663956000">
        <ele>1138.00</ele>
        <time>2013-07-19T15:41:41Z</time>
      </trkpt>
      <trkpt lat="28.026993000" lon="-15.664337000">
        <ele>1119.70</ele>
        <time>2013-07-19T15:41:47Z</time>
      </trkpt>
      <trkpt lat="28.027344000" lon="-15.664627000">
        <ele>1112.90</ele>
        <time>2013-07-19T15:41:52Z</time>
      </trkpt>
      <trkpt lat="28.027710000" lon="-15.665009000">
        <ele>1106.50</ele>
        <time>2013-07-19T15:41:58Z</time>
      </trkpt>
      <trkpt lat="28.028015000" lon="-15.665314000">
        <ele>1105.40</ele>
        <time>2013-07-19T15:42:03Z</time>
      </trkpt>
      <trkpt lat="28.028076000" lon="-15.665726000">
        <ele>1120.10</ele>
        <time>2013-07-19T15:42:09Z</time>
      </trkpt>
      <trkpt lat="28.027634000" lon="-15.665894000">
        <ele>1140.70</ele>
        <time>2013-07-19T15:42:15Z</time>
      </trkpt>
      <trkpt lat="28.027328000" lon="-15.666245000">
        <ele>1154.20</ele>
        <time>2013-07-19T15:42:21Z</time>
      </trkpt>
      <trkpt lat="28.027283000" lon="-15.666672000">
        <ele>1157.20</ele>
        <time>2013-07-19T15:42:26Z</time>
      </trkpt>
      <trkpt lat="28.027023000" lon="-15.666977000">
        <ele>1160.00</ele>
        <time>2013-07-19T15:42:31Z</time>
      </trkpt>
      <trkpt lat="28.026688000" lon="-15.667191000">
        <ele>1168.70</ele>
        <time>2013-07-19T15:42:37Z</time>
      </trkpt>
      <trkpt lat="28.026749000" lon="-15.667709000">
        <ele>1150.30</ele>
        <time>2013-07-19T15:42:43Z</time>
      </trkpt>
      <trkpt lat="28.026505000" lon="-15.668076000">
        <ele>1144.80</ele>
        <time>2013-07-19T15:42:49Z</time>
      </trkpt>
      <trkpt lat="28.026093000" lon="-15.667892000">
        <ele>1157.30</ele>
        <time>2013-07-19T15:42:54Z</time>
      </trkpt>
      <trkpt lat="28.025696000" lon="-15.667694000">
        <ele>1169.90</ele>
        <time>2013-07-19T15:42:59Z</time>
      </trkpt>
      <trkpt lat="28.025436000" lon="-15.668045000">
        <ele>1157.40</ele>
        <time>2013-07-19T15:43:05Z</time>
      </trkpt>
      <trkpt lat="28.025497000" lon="-15.668594000">
        <ele>1137.40</ele>
        <time>2013-07-19T15:43:11Z</time>
      </trkpt>
      <trkpt lat="28.025558000" lon="-15.669083000">
        <ele>1119.90</ele>
        <time>2013-07-19T15:43:17Z</time>
      </trkpt>
      <trkpt lat="28.025620000" lon="-15.669418000">
        <ele>1112.00</ele>
        <time>2013-07-19T15:43:22Z</time>
      </trkpt>
      <trkpt lat="28.025742000" lon="-15.669632000">
        <ele>1107.60</ele>
        <time>2013-07-19T15:43:27Z</time>
      </trkpt>
      <trkpt lat="28.025879000" lon="-15.669968000">
        <ele>1101.50</ele>
        <time>2013-07-19T15:43:33Z</time>
      </trkpt>
      <trkpt lat="28.025909000" lon="-15.670334000">
        <ele>1101.70</ele>
        <time>2013-07-19T15:43:39Z</time>
      </trkpt>
      <trkpt lat="28.025894000" lon="-15.670410000">
        <ele>1102.20</ele>
        <time>2013-07-19T15:43:44Z</time>
      </trkpt>
      <trkpt lat="28.025864000" lon="-15.670502000">
        <ele>1103.20</ele>
        <time>2013-07-19T15:43:50Z</time>
      </trkpt>
      <trkpt lat="28.025818000" lon="-15.670532000">
        <ele>1103.80</ele>
        <time>2013-07-19T15:43:55Z</time>
      </trkpt>
      <trkpt lat="28.025787000" lon="-15.670471000">
        <ele>1103.30</ele>
        <time>2013-07-19T15:44:01Z</time>
      </trkpt>
      <trkpt lat="28.025757000" lon="-15.670410000">
        <ele>1102.90</ele>
        <time>2013-07-19T15:44:07Z</time>
      </trkpt>
      <trkpt lat="28.025772000" lon="-15.670471000">
        <ele>1103.00</ele>
        <time>2013-07-19T15:44:15Z</time>
      </trkpt>
      <trkpt lat="28.025757000" lon="-15.670563000">
        <ele>1102.90</ele>
        <time>2013-07-19T15:44:20Z</time>
      </trkpt>
      <trkpt lat="28.025787000" lon="-15.670517000">
        <ele>1103.40</ele>
        <time>2013-07-19T15:44:25Z</time>
      </trkpt>
      <trkpt lat="28.025742000" lon="-15.670517000">
        <ele>1102.80</ele>
        <time>2013-07-19T15:45:47Z</time>
      </trkpt>
      <trkpt lat="28.025726000" lon="-15.670471000">
        <ele>1102.50</ele>
        <time>2013-07-19T15:46:07Z</time>
      </trkpt>
      <trkpt lat="28.025742000" lon="-15.670410000">
        <ele>1102.70</ele>
        <time>2013-07-19T15:47:09Z</time>
      </trkpt>
      <trkpt lat="28.025833000" lon="-15.670471000">
        <ele>1103.70</ele>
        <time>2013-07-19T15:47:15Z</time>
      </trkpt>
      <trkpt lat="28.026016000" lon="-15.670822000">
        <ele>1101.90</ele>
        <time>2013-07-19T15:47:20Z</time>
      </trkpt>
      <trkpt lat="28.026123000" lon="-15.671066000">
        <ele>1099.00</ele>
        <time>2013-07-19T15:47:25Z</time>
      </trkpt>
      <trkpt lat="28.026291000" lon="-15.671295000">
        <ele>1095.80</ele>
        <time>2013-07-19T15:47:30Z</time>
      </trkpt>
      <trkpt lat="28.026566000" lon="-15.671387000">
        <ele>1091.70</ele>
        <time>2013-07-19T15:47:35Z</time>
      </trkpt>
      <trkpt lat="28.026871000" lon="-15.671494000">
        <ele>1086.50</ele>
        <time>2013-07-19T15:47:41Z</time>
      </trkpt>
      <trkpt lat="28.026993000" lon="-15.671829000">
        <ele>1086.10</ele>
        <time>2013-07-19T15:47:47Z</time>
      </trkpt>
      <trkpt lat="28.027115000" lon="-15.672165000">
        <ele>1086.80</ele>
        <time>2013-07-19T15:47:52Z</time>
      </trkpt>
      <trkpt lat="28.027451000" lon="-15.672455000">
        <ele>1079.40</ele>
        <time>2013-07-19T15:47:58Z</time>
      </trkpt>
      <trkpt lat="28.027634000" lon="-15.672867000">
        <ele>1080.00</ele>
        <time>2013-07-19T15:48:04Z</time>
      </trkpt>
      <trkpt lat="28.027679000" lon="-15.673203000">
        <ele>1083.80</ele>
        <time>2013-07-19T15:48:09Z</time>
      </trkpt>
      <trkpt lat="28.027725000" lon="-15.673508000">
        <ele>1084.90</ele>
        <time>2013-07-19T15:48:14Z</time>
      </trkpt>
      <trkpt lat="28.027786000" lon="-15.673874000">
        <ele>1085.20</ele>
        <time>2013-07-19T15:48:20Z</time>
      </trkpt>
      <trkpt lat="28.027863000" lon="-15.674164000">
        <ele>1085.70</ele>
        <time>2013-07-19T15:48:25Z</time>
      </trkpt>
      <trkpt lat="28.027908000" lon="-15.674438000">
        <ele>1084.90</ele>
        <time>2013-07-19T15:48:30Z</time>
      </trkpt>
      <trkpt lat="28.027985000" lon="-15.674698000">
        <ele>1084.50</ele>
        <time>2013-07-19T15:48:36Z</time>
      </trkpt>
      <trkpt lat="28.028076000" lon="-15.674881000">
        <ele>1084.80</ele>
        <time>2013-07-19T15:48:42Z</time>
      </trkpt>
      <trkpt lat="28.028168000" lon="-15.675003000">
        <ele>1085.50</ele>
        <time>2013-07-19T15:48:47Z</time>
      </trkpt>
      <trkpt lat="28.028259000" lon="-15.675064000">
        <ele>1087.00</ele>
        <time>2013-07-19T15:48:52Z</time>
      </trkpt>
      <trkpt lat="28.028397000" lon="-15.675064000">
        <ele>1086.60</ele>
        <time>2013-07-19T15:48:58Z</time>
      </trkpt>
      <trkpt lat="28.028534000" lon="-15.675064000">
        <ele>1084.90</ele>
        <time>2013-07-19T15:49:04Z</time>
      </trkpt>
      <trkpt lat="28.028671000" lon="-15.675034000">
        <ele>1082.30</ele>
        <time>2013-07-19T15:49:10Z</time>
      </trkpt>
      <trkpt lat="28.028809000" lon="-15.674973000">
        <ele>1079.40</ele>
        <time>2013-07-19T15:49:16Z</time>
      </trkpt>
      <trkpt lat="28.028961000" lon="-15.674973000">
        <ele>1077.30</ele>
        <time>2013-07-19T15:49:22Z</time>
      </trkpt>
      <trkpt lat="28.029099000" lon="-15.675049000">
        <ele>1077.20</ele>
        <time>2013-07-19T15:49:28Z</time>
      </trkpt>
      <trkpt lat="28.029190000" lon="-15.675156000">
        <ele>1079.50</ele>
        <time>2013-07-19T15:49:34Z</time>
      </trkpt>
      <trkpt lat="28.029221000" lon="-15.675308000">
        <ele>1083.30</ele>
        <time>2013-07-19T15:49:40Z</time>
      </trkpt>
      <trkpt lat="28.029221000" lon="-15.675415000">
        <ele>1086.60</ele>
        <time>2013-07-19T15:49:45Z</time>
      </trkpt>
      <trkpt lat="28.029205000" lon="-15.675537000">
        <ele>1089.90</ele>
        <time>2013-07-19T15:49:51Z</time>
      </trkpt>
      <trkpt lat="28.029205000" lon="-15.675659000">
        <ele>1093.80</ele>
        <time>2013-07-19T15:49:57Z</time>
      </trkpt>
      <trkpt lat="28.029205000" lon="-15.675781000">
        <ele>1097.50</ele>
        <time>2013-07-19T15:50:03Z</time>
      </trkpt>
      <trkpt lat="28.029236000" lon="-15.675919000">
        <ele>1100.00</ele>
        <time>2013-07-19T15:50:09Z</time>
      </trkpt>
      <trkpt lat="28.029297000" lon="-15.675995000">
        <ele>1100.30</ele>
        <time>2013-07-19T15:50:14Z</time>
      </trkpt>
      <trkpt lat="28.029373000" lon="-15.676071000">
        <ele>1099.90</ele>
        <time>2013-07-19T15:50:19Z</time>
      </trkpt>
      <trkpt lat="28.029434000" lon="-15.676163000">
        <ele>1100.40</ele>
        <time>2013-07-19T15:50:25Z</time>
      </trkpt>
      <trkpt lat="28.029449000" lon="-15.676270000">
        <ele>1102.30</ele>
        <time>2013-07-19T15:50:30Z</time>
      </trkpt>
      <trkpt lat="28.029465000" lon="-15.676392000">
        <ele>1104.50</ele>
        <time>2013-07-19T15:50:35Z</time>
      </trkpt>
      <trkpt lat="28.029480000" lon="-15.676529000">
        <ele>1107.20</ele>
        <time>2013-07-19T15:50:40Z</time>
      </trkpt>
      <trkpt lat="28.029510000" lon="-15.676666000">
        <ele>1109.20</ele>
        <time>2013-07-19T15:50:46Z</time>
      </trkpt>
      <trkpt lat="28.029602000" lon="-15.676804000">
        <ele>1109.10</ele>
        <time>2013-07-19T15:50:52Z</time>
      </trkpt>
      <trkpt lat="28.029663000" lon="-15.676941000">
        <ele>1109.90</ele>
        <time>2013-07-19T15:50:58Z</time>
      </trkpt>
      <trkpt lat="28.029785000" lon="-15.677048000">
        <ele>1108.20</ele>
        <time>2013-07-19T15:51:04Z</time>
      </trkpt>
      <trkpt lat="28.029922000" lon="-15.677094000">
        <ele>1104.50</ele>
        <time>2013-07-19T15:51:09Z</time>
      </trkpt>
      <trkpt lat="28.030075000" lon="-15.677109000">
        <ele>1102.90</ele>
        <time>2013-07-19T15:51:15Z</time>
      </trkpt>
      <trkpt lat="28.030212000" lon="-15.677109000">
        <ele>1104.50</ele>
        <time>2013-07-19T15:51:21Z</time>
      </trkpt>
      <trkpt lat="28.030319000" lon="-15.677109000">
        <ele>1105.40</ele>
        <time>2013-07-19T15:51:26Z</time>
      </trkpt>
      <trkpt lat="28.030426000" lon="-15.677109000">
        <ele>1106.80</ele>
        <time>2013-07-19T15:51:31Z</time>
      </trkpt>
      <trkpt lat="28.030563000" lon="-15.677124000">
        <ele>1108.30</ele>
        <time>2013-07-19T15:51:37Z</time>
      </trkpt>
      <trkpt lat="28.030624000" lon="-15.677032000">
        <ele>1106.60</ele>
        <time>2013-07-19T15:51:42Z</time>
      </trkpt>
      <trkpt lat="28.030731000" lon="-15.676987000">
        <ele>1106.00</ele>
        <time>2013-07-19T15:51:47Z</time>
      </trkpt>
      <trkpt lat="28.030838000" lon="-15.676926000">
        <ele>1105.30</ele>
        <time>2013-07-19T15:51:52Z</time>
      </trkpt>
      <trkpt lat="28.030914000" lon="-15.676849000">
        <ele>1104.10</ele>
        <time>2013-07-19T15:51:57Z</time>
      </trkpt>
      <trkpt lat="28.031021000" lon="-15.676804000">
        <ele>1103.50</ele>
        <time>2013-07-19T15:52:02Z</time>
      </trkpt>
      <trkpt lat="28.031143000" lon="-15.676727000">
        <ele>1102.60</ele>
        <time>2013-07-19T15:52:08Z</time>
      </trkpt>
      <trkpt lat="28.031265000" lon="-15.676682000">
        <ele>1102.10</ele>
        <time>2013-07-19T15:52:14Z</time>
      </trkpt>
      <trkpt lat="28.031372000" lon="-15.676712000">
        <ele>1104.10</ele>
        <time>2013-07-19T15:52:19Z</time>
      </trkpt>
      <trkpt lat="28.031494000" lon="-15.676788000">
        <ele>1107.40</ele>
        <time>2013-07-19T15:52:25Z</time>
      </trkpt>
      <trkpt lat="28.031601000" lon="-15.676849000">
        <ele>1110.00</ele>
        <time>2013-07-19T15:52:30Z</time>
      </trkpt>
      <trkpt lat="28.031693000" lon="-15.676941000">
        <ele>1113.90</ele>
        <time>2013-07-19T15:52:36Z</time>
      </trkpt>
      <trkpt lat="28.031723000" lon="-15.677094000">
        <ele>1118.90</ele>
        <time>2013-07-19T15:52:42Z</time>
      </trkpt>
      <trkpt lat="28.031631000" lon="-15.677200000">
        <ele>1121.20</ele>
        <time>2013-07-19T15:52:48Z</time>
      </trkpt>
      <trkpt lat="28.031509000" lon="-15.677246000">
        <ele>1121.60</ele>
        <time>2013-07-19T15:52:54Z</time>
      </trkpt>
      <trkpt lat="28.031387000" lon="-15.677307000">
        <ele>1122.40</ele>
        <time>2013-07-19T15:53:00Z</time>
      </trkpt>
      <trkpt lat="28.031265000" lon="-15.677353000">
        <ele>1122.30</ele>
        <time>2013-07-19T15:53:06Z</time>
      </trkpt>
      <trkpt lat="28.031128000" lon="-15.677399000">
        <ele>1122.40</ele>
        <time>2013-07-19T15:53:12Z</time>
      </trkpt>
      <trkpt lat="28.030991000" lon="-15.677444000">
        <ele>1122.20</ele>
        <time>2013-07-19T15:53:18Z</time>
      </trkpt>
      <trkpt lat="28.030838000" lon="-15.677521000">
        <ele>1122.30</ele>
        <time>2013-07-19T15:53:24Z</time>
      </trkpt>
      <trkpt lat="28.030716000" lon="-15.677567000">
        <ele>1121.90</ele>
        <time>2013-07-19T15:53:30Z</time>
      </trkpt>
      <trkpt lat="28.030609000" lon="-15.677597000">
        <ele>1121.60</ele>
        <time>2013-07-19T15:53:36Z</time>
      </trkpt>
      <trkpt lat="28.030518000" lon="-15.677643000">
        <ele>1121.70</ele>
        <time>2013-07-19T15:53:41Z</time>
      </trkpt>
      <trkpt lat="28.030396000" lon="-15.677673000">
        <ele>1121.70</ele>
        <time>2013-07-19T15:53:47Z</time>
      </trkpt>
      <trkpt lat="28.030304000" lon="-15.677719000">
        <ele>1122.30</ele>
        <time>2013-07-19T15:53:52Z</time>
      </trkpt>
      <trkpt lat="28.030197000" lon="-15.677750000">
        <ele>1122.50</ele>
        <time>2013-07-19T15:53:57Z</time>
      </trkpt>
      <trkpt lat="28.030106000" lon="-15.677795000">
        <ele>1123.50</ele>
        <time>2013-07-19T15:54:02Z</time>
      </trkpt>
      <trkpt lat="28.030014000" lon="-15.677841000">
        <ele>1124.80</ele>
        <time>2013-07-19T15:54:08Z</time>
      </trkpt>
      <trkpt lat="28.029938000" lon="-15.677902000">
        <ele>1128.80</ele>
        <time>2013-07-19T15:54:13Z</time>
      </trkpt>
      <trkpt lat="28.029846000" lon="-15.677979000">
        <ele>1133.40</ele>
        <time>2013-07-19T15:54:19Z</time>
      </trkpt>
      <trkpt lat="28.029739000" lon="-15.678055000">
        <ele>1137.80</ele>
        <time>2013-07-19T15:54:25Z</time>
      </trkpt>
      <trkpt lat="28.029648000" lon="-15.678131000">
        <ele>1141.90</ele>
        <time>2013-07-19T15:54:31Z</time>
      </trkpt>
      <trkpt lat="28.029572000" lon="-15.678207000">
        <ele>1145.40</ele>
        <time>2013-07-19T15:54:37Z</time>
      </trkpt>
      <trkpt lat="28.029480000" lon="-15.678253000">
        <ele>1148.00</ele>
        <time>2013-07-19T15:54:43Z</time>
      </trkpt>
      <trkpt lat="28.029404000" lon="-15.678345000">
        <ele>1150.80</ele>
        <time>2013-07-19T15:54:49Z</time>
      </trkpt>
      <trkpt lat="28.029343000" lon="-15.678467000">
        <ele>1151.30</ele>
        <time>2013-07-19T15:54:55Z</time>
      </trkpt>
      <trkpt lat="28.029282000" lon="-15.678635000">
        <ele>1151.50</ele>
        <time>2013-07-19T15:55:01Z</time>
      </trkpt>
      <trkpt lat="28.029297000" lon="-15.678802000">
        <ele>1151.00</ele>
        <time>2013-07-19T15:55:07Z</time>
      </trkpt>
      <trkpt lat="28.029297000" lon="-15.678970000">
        <ele>1150.40</ele>
        <time>2013-07-19T15:55:12Z</time>
      </trkpt>
      <trkpt lat="28.029327000" lon="-15.679169000">
        <ele>1149.40</ele>
        <time>2013-07-19T15:55:18Z</time>
      </trkpt>
      <trkpt lat="28.029373000" lon="-15.679321000">
        <ele>1149.60</ele>
        <time>2013-07-19T15:55:23Z</time>
      </trkpt>
      <trkpt lat="28.029449000" lon="-15.679504000">
        <ele>1149.40</ele>
        <time>2013-07-19T15:55:29Z</time>
      </trkpt>
      <trkpt lat="28.029434000" lon="-15.679749000">
        <ele>1150.90</ele>
        <time>2013-07-19T15:55:35Z</time>
      </trkpt>
      <trkpt lat="28.029434000" lon="-15.679962000">
        <ele>1152.50</ele>
        <time>2013-07-19T15:55:41Z</time>
      </trkpt>
      <trkpt lat="28.029449000" lon="-15.680161000">
        <ele>1155.50</ele>
        <time>2013-07-19T15:55:46Z</time>
      </trkpt>
      <trkpt lat="28.029526000" lon="-15.680283000">
        <ele>1155.80</ele>
        <time>2013-07-19T15:55:52Z</time>
      </trkpt>
      <trkpt lat="28.029633000" lon="-15.680389000">
        <ele>1154.40</ele>
        <time>2013-07-19T15:55:57Z</time>
      </trkpt>
      <trkpt lat="28.029724000" lon="-15.680511000">
        <ele>1153.30</ele>
        <time>2013-07-19T15:56:02Z</time>
      </trkpt>
      <trkpt lat="28.029816000" lon="-15.680634000">
        <ele>1152.20</ele>
        <time>2013-07-19T15:56:07Z</time>
      </trkpt>
      <trkpt lat="28.029907000" lon="-15.680740000">
        <ele>1150.90</ele>
        <time>2013-07-19T15:56:12Z</time>
      </trkpt>
      <trkpt lat="28.029999000" lon="-15.680908000">
        <ele>1150.50</ele>
        <time>2013-07-19T15:56:18Z</time>
      </trkpt>
      <trkpt lat="28.029892000" lon="-15.681076000">
        <ele>1157.70</ele>
        <time>2013-07-19T15:56:24Z</time>
      </trkpt>
      <trkpt lat="28.029724000" lon="-15.681213000">
        <ele>1166.30</ele>
        <time>2013-07-19T15:56:30Z</time>
      </trkpt>
      <trkpt lat="28.029678000" lon="-15.681412000">
        <ele>1170.70</ele>
        <time>2013-07-19T15:56:36Z</time>
      </trkpt>
      <trkpt lat="28.029709000" lon="-15.681686000">
        <ele>1173.50</ele>
        <time>2013-07-19T15:56:42Z</time>
      </trkpt>
      <trkpt lat="28.029572000" lon="-15.681854000">
        <ele>1177.50</ele>
        <time>2013-07-19T15:56:48Z</time>
      </trkpt>
      <trkpt lat="28.029419000" lon="-15.681900000">
        <ele>1183.20</ele>
        <time>2013-07-19T15:56:53Z</time>
      </trkpt>
      <trkpt lat="28.029297000" lon="-15.681961000">
        <ele>1188.00</ele>
        <time>2013-07-19T15:56:58Z</time>
      </trkpt>
      <trkpt lat="28.029175000" lon="-15.682007000">
        <ele>1192.60</ele>
        <time>2013-07-19T15:57:04Z</time>
      </trkpt>
      <trkpt lat="28.029083000" lon="-15.682037000">
        <ele>1194.80</ele>
        <time>2013-07-19T15:57:09Z</time>
      </trkpt>
      <trkpt lat="28.028992000" lon="-15.682114000">
        <ele>1197.00</ele>
        <time>2013-07-19T15:57:14Z</time>
      </trkpt>
      <trkpt lat="28.028931000" lon="-15.682236000">
        <ele>1199.00</ele>
        <time>2013-07-19T15:57:19Z</time>
      </trkpt>
      <trkpt lat="28.028961000" lon="-15.682388000">
        <ele>1198.40</ele>
        <time>2013-07-19T15:57:25Z</time>
      </trkpt>
      <trkpt lat="28.029037000" lon="-15.682510000">
        <ele>1195.80</ele>
        <time>2013-07-19T15:57:31Z</time>
      </trkpt>
      <trkpt lat="28.029083000" lon="-15.682602000">
        <ele>1193.70</ele>
        <time>2013-07-19T15:57:37Z</time>
      </trkpt>
      <trkpt lat="28.029160000" lon="-15.682739000">
        <ele>1189.20</ele>
        <time>2013-07-19T15:57:43Z</time>
      </trkpt>
      <trkpt lat="28.029282000" lon="-15.682846000">
        <ele>1183.40</ele>
        <time>2013-07-19T15:57:48Z</time>
      </trkpt>
      <trkpt lat="28.029373000" lon="-15.682999000">
        <ele>1177.90</ele>
        <time>2013-07-19T15:57:54Z</time>
      </trkpt>
      <trkpt lat="28.029495000" lon="-15.683182000">
        <ele>1171.50</ele>
        <time>2013-07-19T15:58:00Z</time>
      </trkpt>
      <trkpt lat="28.029648000" lon="-15.683304000">
        <ele>1164.20</ele>
        <time>2013-07-19T15:58:06Z</time>
      </trkpt>
      <trkpt lat="28.029846000" lon="-15.683380000">
        <ele>1156.20</ele>
        <time>2013-07-19T15:58:12Z</time>
      </trkpt>
      <trkpt lat="28.030060000" lon="-15.683411000">
        <ele>1149.10</ele>
        <time>2013-07-19T15:58:17Z</time>
      </trkpt>
      <trkpt lat="28.030136000" lon="-15.683655000">
        <ele>1153.90</ele>
        <time>2013-07-19T15:58:22Z</time>
      </trkpt>
      <trkpt lat="28.029907000" lon="-15.683823000">
        <ele>1165.10</ele>
        <time>2013-07-19T15:58:28Z</time>
      </trkpt>
      <trkpt lat="28.029694000" lon="-15.683823000">
        <ele>1172.20</ele>
        <time>2013-07-19T15:58:33Z</time>
      </trkpt>
      <trkpt lat="28.029465000" lon="-15.683838000">
        <ele>1180.30</ele>
        <time>2013-07-19T15:58:39Z</time>
      </trkpt>
      <trkpt lat="28.029221000" lon="-15.683838000">
        <ele>1188.20</ele>
        <time>2013-07-19T15:58:45Z</time>
      </trkpt>
      <trkpt lat="28.029068000" lon="-15.683853000">
        <ele>1194.40</ele>
        <time>2013-07-19T15:58:50Z</time>
      </trkpt>
      <trkpt lat="28.028839000" lon="-15.683884000">
        <ele>1204.30</ele>
        <time>2013-07-19T15:58:56Z</time>
      </trkpt>
      <trkpt lat="28.028656000" lon="-15.683899000">
        <ele>1211.60</ele>
        <time>2013-07-19T15:59:01Z</time>
      </trkpt>
      <trkpt lat="28.028458000" lon="-15.683914000">
        <ele>1220.10</ele>
        <time>2013-07-19T15:59:07Z</time>
      </trkpt>
      <trkpt lat="28.028397000" lon="-15.684158000">
        <ele>1222.00</ele>
        <time>2013-07-19T15:59:13Z</time>
      </trkpt>
      <trkpt lat="28.028488000" lon="-15.684341000">
        <ele>1214.50</ele>
        <time>2013-07-19T15:59:18Z</time>
      </trkpt>
      <trkpt lat="28.028595000" lon="-15.684525000">
        <ele>1206.50</ele>
        <time>2013-07-19T15:59:24Z</time>
      </trkpt>
      <trkpt lat="28.028671000" lon="-15.684738000">
        <ele>1199.00</ele>
        <time>2013-07-19T15:59:30Z</time>
      </trkpt>
      <trkpt lat="28.028671000" lon="-15.684998000">
        <ele>1193.30</ele>
        <time>2013-07-19T15:59:35Z</time>
      </trkpt>
      <trkpt lat="28.028778000" lon="-15.685272000">
        <ele>1190.60</ele>
        <time>2013-07-19T15:59:41Z</time>
      </trkpt>
      <trkpt lat="28.028854000" lon="-15.685455000">
        <ele>1187.40</ele>
        <time>2013-07-19T15:59:46Z</time>
      </trkpt>
      <trkpt lat="28.028976000" lon="-15.685776000">
        <ele>1182.10</ele>
        <time>2013-07-19T15:59:52Z</time>
      </trkpt>
      <trkpt lat="28.028946000" lon="-15.686111000">
        <ele>1187.90</ele>
        <time>2013-07-19T15:59:57Z</time>
      </trkpt>
      <trkpt lat="28.029144000" lon="-15.686356000">
        <ele>1183.00</ele>
        <time>2013-07-19T16:00:03Z</time>
      </trkpt>
      <trkpt lat="28.029404000" lon="-15.686508000">
        <ele>1177.60</ele>
        <time>2013-07-19T16:00:09Z</time>
      </trkpt>
      <trkpt lat="28.029572000" lon="-15.686737000">
        <ele>1176.40</ele>
        <time>2013-07-19T16:00:14Z</time>
      </trkpt>
      <trkpt lat="28.029724000" lon="-15.687042000">
        <ele>1178.30</ele>
        <time>2013-07-19T16:00:20Z</time>
      </trkpt>
      <trkpt lat="28.029938000" lon="-15.687057000">
        <ele>1172.40</ele>
        <time>2013-07-19T16:00:25Z</time>
      </trkpt>
      <trkpt lat="28.030197000" lon="-15.686874000">
        <ele>1162.70</ele>
        <time>2013-07-19T16:00:31Z</time>
      </trkpt>
      <trkpt lat="28.030441000" lon="-15.686890000">
        <ele>1158.70</ele>
        <time>2013-07-19T16:00:36Z</time>
      </trkpt>
      <trkpt lat="28.030640000" lon="-15.687149000">
        <ele>1161.90</ele>
        <time>2013-07-19T16:00:41Z</time>
      </trkpt>
      <trkpt lat="28.030777000" lon="-15.687500000">
        <ele>1168.80</ele>
        <time>2013-07-19T16:00:47Z</time>
      </trkpt>
      <trkpt lat="28.030869000" lon="-15.687790000">
        <ele>1173.50</ele>
        <time>2013-07-19T16:00:52Z</time>
      </trkpt>
      <trkpt lat="28.030945000" lon="-15.688110000">
        <ele>1177.30</ele>
        <time>2013-07-19T16:00:58Z</time>
      </trkpt>
      <trkpt lat="28.031097000" lon="-15.688324000">
        <ele>1175.50</ele>
        <time>2013-07-19T16:01:03Z</time>
      </trkpt>
      <trkpt lat="28.031357000" lon="-15.688400000">
        <ele>1165.40</ele>
        <time>2013-07-19T16:01:08Z</time>
      </trkpt>
      <trkpt lat="28.031708000" lon="-15.688583000">
        <ele>1156.70</ele>
        <time>2013-07-19T16:01:14Z</time>
      </trkpt>
      <trkpt lat="28.031876000" lon="-15.689026000">
        <ele>1165.10</ele>
        <time>2013-07-19T16:01:20Z</time>
      </trkpt>
      <trkpt lat="28.032028000" lon="-15.689453000">
        <ele>1170.60</ele>
        <time>2013-07-19T16:01:25Z</time>
      </trkpt>
      <trkpt lat="28.032059000" lon="-15.689590000">
        <ele>1173.00</ele>
        <time>2013-07-19T16:01:31Z</time>
      </trkpt>
      <trkpt lat="28.032043000" lon="-15.689667000">
        <ele>1175.20</ele>
        <time>2013-07-19T16:01:36Z</time>
      </trkpt>
      <trkpt lat="28.032059000" lon="-15.689621000">
        <ele>1173.50</ele>
        <time>2013-07-19T16:01:42Z</time>
      </trkpt>
      <trkpt lat="28.032104000" lon="-15.689606000">
        <ele>1171.20</ele>
        <time>2013-07-19T16:02:00Z</time>
      </trkpt>
      <trkpt lat="28.032196000" lon="-15.689728000">
        <ele>1170.90</ele>
        <time>2013-07-19T16:02:06Z</time>
      </trkpt>
      <trkpt lat="28.032288000" lon="-15.689789000">
        <ele>1169.50</ele>
        <time>2013-07-19T16:02:12Z</time>
      </trkpt>
      <trkpt lat="28.032349000" lon="-15.689835000">
        <ele>1168.30</ele>
        <time>2013-07-19T16:02:18Z</time>
      </trkpt>
      <trkpt lat="28.032471000" lon="-15.689926000">
        <ele>1166.40</ele>
        <time>2013-07-19T16:02:24Z</time>
      </trkpt>
      <trkpt lat="28.032623000" lon="-15.689957000">
        <ele>1165.80</ele>
        <time>2013-07-19T16:02:30Z</time>
      </trkpt>
      <trkpt lat="28.032761000" lon="-15.689987000">
        <ele>1165.80</ele>
        <time>2013-07-19T16:02:36Z</time>
      </trkpt>
      <trkpt lat="28.032898000" lon="-15.690018000">
        <ele>1165.50</ele>
        <time>2013-07-19T16:02:42Z</time>
      </trkpt>
      <trkpt lat="28.032974000" lon="-15.690018000">
        <ele>1165.10</ele>
        <time>2013-07-19T16:02:47Z</time>
      </trkpt>
      <trkpt lat="28.033035000" lon="-15.690002000">
        <ele>1164.30</ele>
        <time>2013-07-19T16:02:52Z</time>
      </trkpt>
      <trkpt lat="28.032974000" lon="-15.690048000">
        <ele>1165.80</ele>
        <time>2013-07-19T16:03:02Z</time>
      </trkpt>
      <trkpt lat="28.032913000" lon="-15.690125000">
        <ele>1167.80</ele>
        <time>2013-07-19T16:03:07Z</time>
      </trkpt>
      <trkpt lat="28.032974000" lon="-15.690125000">
        <ele>1167.50</ele>
        <time>2013-07-19T16:03:17Z</time>
      </trkpt>
      <trkpt lat="28.033005000" lon="-15.690063000">
        <ele>1165.80</ele>
        <time>2013-07-19T16:03:23Z</time>
      </trkpt>
      <trkpt lat="28.033035000" lon="-15.690094000">
        <ele>1166.50</ele>
        <time>2013-07-19T16:04:00Z</time>
      </trkpt>
      <trkpt lat="28.032990000" lon="-15.690109000">
        <ele>1167.00</ele>
        <time>2013-07-19T16:04:07Z</time>
      </trkpt>
      <trkpt lat="28.033020000" lon="-15.690155000">
        <ele>1168.10</ele>
        <time>2013-07-19T16:04:34Z</time>
      </trkpt>
      <trkpt lat="28.033081000" lon="-15.690186000">
        <ele>1168.60</ele>
        <time>2013-07-19T16:04:39Z</time>
      </trkpt>
      <trkpt lat="28.033051000" lon="-15.690140000">
        <ele>1167.40</ele>
        <time>2013-07-19T16:05:18Z</time>
      </trkpt>
      <trkpt lat="28.033020000" lon="-15.690094000">
        <ele>1166.60</ele>
        <time>2013-07-19T16:05:31Z</time>
      </trkpt>
      <trkpt lat="28.032974000" lon="-15.690155000">
        <ele>1168.20</ele>
        <time>2013-07-19T16:06:36Z</time>
      </trkpt>
      <trkpt lat="28.032928000" lon="-15.690155000">
        <ele>1168.50</ele>
        <time>2013-07-19T16:06:52Z</time>
      </trkpt>
      <trkpt lat="28.032654000" lon="-15.690079000">
        <ele>1168.30</ele>
        <time>2013-07-19T16:06:58Z</time>
      </trkpt>
      <trkpt lat="28.032379000" lon="-15.689896000">
        <ele>1169.30</ele>
        <time>2013-07-19T16:07:03Z</time>
      </trkpt>
      <trkpt lat="28.032211000" lon="-15.689758000">
        <ele>1171.50</ele>
        <time>2013-07-19T16:07:08Z</time>
      </trkpt>
      <trkpt lat="28.032181000" lon="-15.689804000">
        <ele>1173.70</ele>
        <time>2013-07-19T16:07:31Z</time>
      </trkpt>
      <trkpt lat="28.032135000" lon="-15.689789000">
        <ele>1175.10</ele>
        <time>2013-07-19T16:07:37Z</time>
      </trkpt>
      <trkpt lat="28.032104000" lon="-15.689728000">
        <ele>1174.60</ele>
        <time>2013-07-19T16:07:43Z</time>
      </trkpt>
      <trkpt lat="28.032074000" lon="-15.689789000">
        <ele>1176.70</ele>
        <time>2013-07-19T16:08:16Z</time>
      </trkpt>
      <trkpt lat="28.032120000" lon="-15.689758000">
        <ele>1174.70</ele>
        <time>2013-07-19T16:11:42Z</time>
      </trkpt>
      <trkpt lat="28.032074000" lon="-15.689743000">
        <ele>1176.00</ele>
        <time>2013-07-19T16:12:21Z</time>
      </trkpt>
      <trkpt lat="28.032089000" lon="-15.689789000">
        <ele>1176.50</ele>
        <time>2013-07-19T16:13:02Z</time>
      </trkpt>
      <trkpt lat="28.032120000" lon="-15.689758000">
        <ele>1174.40</ele>
        <time>2013-07-19T16:14:20Z</time>
      </trkpt>
      <trkpt lat="28.032150000" lon="-15.689728000">
        <ele>1172.30</ele>
        <time>2013-07-19T16:14:44Z</time>
      </trkpt>
      <trkpt lat="28.032211000" lon="-15.689697000">
        <ele>1169.90</ele>
        <time>2013-07-19T16:14:49Z</time>
      </trkpt>
      <trkpt lat="28.032257000" lon="-15.689667000">
        <ele>1167.40</ele>
        <time>2013-07-19T16:22:01Z</time>
      </trkpt>
      <trkpt lat="28.032135000" lon="-15.689728000">
        <ele>1173.40</ele>
        <time>2013-07-19T16:25:56Z</time>
      </trkpt>
      <trkpt lat="28.032166000" lon="-15.689789000">
        <ele>1173.90</ele>
        <time>2013-07-19T16:26:01Z</time>
      </trkpt>
      <trkpt lat="28.032211000" lon="-15.689819000">
        <ele>1172.80</ele>
        <time>2013-07-19T16:26:58Z</time>
      </trkpt>
      <trkpt lat="28.032288000" lon="-15.689896000">
        <ele>1172.30</ele>
        <time>2013-07-19T16:27:03Z</time>
      </trkpt>
      <trkpt lat="28.032272000" lon="-15.689957000">
        <ele>1174.20</ele>
        <time>2013-07-19T16:27:13Z</time>
      </trkpt>
      <trkpt lat="28.032318000" lon="-15.689926000">
        <ele>1172.10</ele>
        <time>2013-07-19T16:27:32Z</time>
      </trkpt>
      <trkpt lat="28.032394000" lon="-15.689972000">
        <ele>1170.70</ele>
        <time>2013-07-19T16:27:38Z</time>
      </trkpt>
      <trkpt lat="28.032303000" lon="-15.690094000">
        <ele>1175.00</ele>
        <time>2013-07-19T16:27:44Z</time>
      </trkpt>
      <trkpt lat="28.032104000" lon="-15.689896000">
        <ele>1178.80</ele>
        <time>2013-07-19T16:27:49Z</time>
      </trkpt>
      <trkpt lat="28.031860000" lon="-15.689774000">
        <ele>1184.20</ele>
        <time>2013-07-19T16:27:55Z</time>
      </trkpt>
      <trkpt lat="28.031509000" lon="-15.689758000">
        <ele>1190.30</ele>
        <time>2013-07-19T16:28:01Z</time>
      </trkpt>
      <trkpt lat="28.031204000" lon="-15.689850000">
        <ele>1189.70</ele>
        <time>2013-07-19T16:28:06Z</time>
      </trkpt>
      <trkpt lat="28.031006000" lon="-15.689957000">
        <ele>1187.50</ele>
        <time>2013-07-19T16:28:11Z</time>
      </trkpt>
      <trkpt lat="28.030807000" lon="-15.689774000">
        <ele>1187.90</ele>
        <time>2013-07-19T16:28:17Z</time>
      </trkpt>
      <trkpt lat="28.030685000" lon="-15.689621000">
        <ele>1188.40</ele>
        <time>2013-07-19T16:28:22Z</time>
      </trkpt>
      <trkpt lat="28.030594000" lon="-15.689499000">
        <ele>1189.30</ele>
        <time>2013-07-19T16:28:27Z</time>
      </trkpt>
      <trkpt lat="28.030426000" lon="-15.689362000">
        <ele>1190.60</ele>
        <time>2013-07-19T16:28:33Z</time>
      </trkpt>
      <trkpt lat="28.030212000" lon="-15.689209000">
        <ele>1192.80</ele>
        <time>2013-07-19T16:28:39Z</time>
      </trkpt>
      <trkpt lat="28.030029000" lon="-15.689178000">
        <ele>1192.60</ele>
        <time>2013-07-19T16:28:44Z</time>
      </trkpt>
      <trkpt lat="28.029984000" lon="-15.689224000">
        <ele>1190.70</ele>
        <time>2013-07-19T16:28:49Z</time>
      </trkpt>
      <trkpt lat="28.029938000" lon="-15.689270000">
        <ele>1188.10</ele>
        <time>2013-07-19T16:29:29Z</time>
      </trkpt>
      <trkpt lat="28.029709000" lon="-15.689407000">
        <ele>1177.10</ele>
        <time>2013-07-19T16:29:35Z</time>
      </trkpt>
      <trkpt lat="28.029510000" lon="-15.689346000">
        <ele>1173.70</ele>
        <time>2013-07-19T16:29:40Z</time>
      </trkpt>
      <trkpt lat="28.029297000" lon="-15.689133000">
        <ele>1174.60</ele>
        <time>2013-07-19T16:29:45Z</time>
      </trkpt>
      <trkpt lat="28.029099000" lon="-15.688843000">
        <ele>1179.90</ele>
        <time>2013-07-19T16:29:51Z</time>
      </trkpt>
      <trkpt lat="28.029007000" lon="-15.688477000">
        <ele>1190.80</ele>
        <time>2013-07-19T16:29:57Z</time>
      </trkpt>
      <trkpt lat="28.028809000" lon="-15.688507000">
        <ele>1186.80</ele>
        <time>2013-07-19T16:30:02Z</time>
      </trkpt>
      <trkpt lat="28.028442000" lon="-15.688675000">
        <ele>1175.20</ele>
        <time>2013-07-19T16:30:08Z</time>
      </trkpt>
      <trkpt lat="28.028229000" lon="-15.688705000">
        <ele>1173.40</ele>
        <time>2013-07-19T16:30:13Z</time>
      </trkpt>
      <trkpt lat="28.028244000" lon="-15.688934000">
        <ele>1165.00</ele>
        <time>2013-07-19T16:30:18Z</time>
      </trkpt>
      <trkpt lat="28.028412000" lon="-15.689178000">
        <ele>1156.30</ele>
        <time>2013-07-19T16:30:24Z</time>
      </trkpt>
      <trkpt lat="28.028366000" lon="-15.689453000">
        <ele>1147.20</ele>
        <time>2013-07-19T16:30:30Z</time>
      </trkpt>
      <trkpt lat="28.027969000" lon="-15.689575000">
        <ele>1149.10</ele>
        <time>2013-07-19T16:30:36Z</time>
      </trkpt>
      <trkpt lat="28.027557000" lon="-15.689453000">
        <ele>1160.10</ele>
        <time>2013-07-19T16:30:42Z</time>
      </trkpt>
      <trkpt lat="28.027435000" lon="-15.689606000">
        <ele>1158.10</ele>
        <time>2013-07-19T16:30:47Z</time>
      </trkpt>
      <trkpt lat="28.027664000" lon="-15.689850000">
        <ele>1147.30</ele>
        <time>2013-07-19T16:30:53Z</time>
      </trkpt>
      <trkpt lat="28.027863000" lon="-15.690109000">
        <ele>1136.60</ele>
        <time>2013-07-19T16:30:58Z</time>
      </trkpt>
      <trkpt lat="28.028076000" lon="-15.690231000">
        <ele>1129.10</ele>
        <time>2013-07-19T16:31:03Z</time>
      </trkpt>
      <trkpt lat="28.028183000" lon="-15.690384000">
        <ele>1123.00</ele>
        <time>2013-07-19T16:31:08Z</time>
      </trkpt>
      <trkpt lat="28.028229000" lon="-15.690506000">
        <ele>1118.70</ele>
        <time>2013-07-19T16:31:35Z</time>
      </trkpt>
      <trkpt lat="28.028198000" lon="-15.690567000">
        <ele>1118.00</ele>
        <time>2013-07-19T16:31:53Z</time>
      </trkpt>
      <trkpt lat="28.028015000" lon="-15.690475000">
        <ele>1124.10</ele>
        <time>2013-07-19T16:31:59Z</time>
      </trkpt>
      <trkpt lat="28.027832000" lon="-15.690353000">
        <ele>1131.10</ele>
        <time>2013-07-19T16:32:05Z</time>
      </trkpt>
      <trkpt lat="28.027542000" lon="-15.690277000">
        <ele>1139.00</ele>
        <time>2013-07-19T16:32:11Z</time>
      </trkpt>
      <trkpt lat="28.027176000" lon="-15.690262000">
        <ele>1145.30</ele>
        <time>2013-07-19T16:32:17Z</time>
      </trkpt>
      <trkpt lat="28.026886000" lon="-15.690308000">
        <ele>1148.70</ele>
        <time>2013-07-19T16:32:23Z</time>
      </trkpt>
      <trkpt lat="28.026627000" lon="-15.690399000">
        <ele>1148.00</ele>
        <time>2013-07-19T16:32:28Z</time>
      </trkpt>
      <trkpt lat="28.026337000" lon="-15.690399000">
        <ele>1150.10</ele>
        <time>2013-07-19T16:32:34Z</time>
      </trkpt>
      <trkpt lat="28.026245000" lon="-15.690628000">
        <ele>1142.10</ele>
        <time>2013-07-19T16:32:39Z</time>
      </trkpt>
      <trkpt lat="28.026291000" lon="-15.690857000">
        <ele>1132.90</ele>
        <time>2013-07-19T16:32:45Z</time>
      </trkpt>
      <trkpt lat="28.026398000" lon="-15.691071000">
        <ele>1124.70</ele>
        <time>2013-07-19T16:32:50Z</time>
      </trkpt>
      <trkpt lat="28.026382000" lon="-15.691360000">
        <ele>1116.60</ele>
        <time>2013-07-19T16:32:56Z</time>
      </trkpt>
      <trkpt lat="28.026245000" lon="-15.691711000">
        <ele>1112.30</ele>
        <time>2013-07-19T16:33:02Z</time>
      </trkpt>
      <trkpt lat="28.026321000" lon="-15.692047000">
        <ele>1102.20</ele>
        <time>2013-07-19T16:33:07Z</time>
      </trkpt>
      <trkpt lat="28.026215000" lon="-15.692307000">
        <ele>1103.70</ele>
        <time>2013-07-19T16:33:12Z</time>
      </trkpt>
      <trkpt lat="28.025970000" lon="-15.692566000">
        <ele>1111.30</ele>
        <time>2013-07-19T16:33:18Z</time>
      </trkpt>
      <trkpt lat="28.025864000" lon="-15.692932000">
        <ele>1106.30</ele>
        <time>2013-07-19T16:33:24Z</time>
      </trkpt>
      <trkpt lat="28.025726000" lon="-15.693192000">
        <ele>1106.80</ele>
        <time>2013-07-19T16:33:29Z</time>
      </trkpt>
      <trkpt lat="28.025879000" lon="-15.693466000">
        <ele>1090.80</ele>
        <time>2013-07-19T16:33:35Z</time>
      </trkpt>
      <trkpt lat="28.026047000" lon="-15.693542000">
        <ele>1079.90</ele>
        <time>2013-07-19T16:33:40Z</time>
      </trkpt>
      <trkpt lat="28.026016000" lon="-15.693756000">
        <ele>1076.40</ele>
        <time>2013-07-19T16:33:46Z</time>
      </trkpt>
      <trkpt lat="28.026031000" lon="-15.694107000">
        <ele>1067.70</ele>
        <time>2013-07-19T16:33:51Z</time>
      </trkpt>
      <trkpt lat="28.026184000" lon="-15.694473000">
        <ele>1056.00</ele>
        <time>2013-07-19T16:33:56Z</time>
      </trkpt>
      <trkpt lat="28.026459000" lon="-15.694962000">
        <ele>1039.40</ele>
        <time>2013-07-19T16:34:02Z</time>
      </trkpt>
      <trkpt lat="28.026566000" lon="-15.695358000">
        <ele>1035.10</ele>
        <time>2013-07-19T16:34:07Z</time>
      </trkpt>
      <trkpt lat="28.026566000" lon="-15.695786000">
        <ele>1039.10</ele>
        <time>2013-07-19T16:34:12Z</time>
      </trkpt>
      <trkpt lat="28.026596000" lon="-15.696014000">
        <ele>1039.00</ele>
        <time>2013-07-19T16:34:17Z</time>
      </trkpt>
      <trkpt lat="28.026535000" lon="-15.696075000">
        <ele>1040.80</ele>
        <time>2013-07-19T16:34:23Z</time>
      </trkpt>
      <trkpt lat="28.026474000" lon="-15.696030000">
        <ele>1042.50</ele>
        <time>2013-07-19T16:34:36Z</time>
      </trkpt>
      <trkpt lat="28.026184000" lon="-15.695908000">
        <ele>1052.60</ele>
        <time>2013-07-19T16:34:42Z</time>
      </trkpt>
      <trkpt lat="28.025803000" lon="-15.695663000">
        <ele>1069.00</ele>
        <time>2013-07-19T16:34:48Z</time>
      </trkpt>
      <trkpt lat="28.025513000" lon="-15.695557000">
        <ele>1067.20</ele>
        <time>2013-07-19T16:34:53Z</time>
      </trkpt>
      <trkpt lat="28.025391000" lon="-15.695206000">
        <ele>1078.10</ele>
        <time>2013-07-19T16:34:59Z</time>
      </trkpt>
      <trkpt lat="28.025116000" lon="-15.695068000">
        <ele>1085.70</ele>
        <time>2013-07-19T16:35:05Z</time>
      </trkpt>
      <trkpt lat="28.024841000" lon="-15.695023000">
        <ele>1089.90</ele>
        <time>2013-07-19T16:35:10Z</time>
      </trkpt>
      <trkpt lat="28.024597000" lon="-15.694931000">
        <ele>1093.20</ele>
        <time>2013-07-19T16:35:15Z</time>
      </trkpt>
      <trkpt lat="28.024414000" lon="-15.695084000">
        <ele>1085.70</ele>
        <time>2013-07-19T16:35:20Z</time>
      </trkpt>
      <trkpt lat="28.024139000" lon="-15.695251000">
        <ele>1078.00</ele>
        <time>2013-07-19T16:35:26Z</time>
      </trkpt>
      <trkpt lat="28.023956000" lon="-15.695404000">
        <ele>1077.20</ele>
        <time>2013-07-19T16:35:31Z</time>
      </trkpt>
      <trkpt lat="28.024170000" lon="-15.695663000">
        <ele>1058.20</ele>
        <time>2013-07-19T16:35:37Z</time>
      </trkpt>
      <trkpt lat="28.024170000" lon="-15.695938000">
        <ele>1047.10</ele>
        <time>2013-07-19T16:35:42Z</time>
      </trkpt>
      <trkpt lat="28.024124000" lon="-15.696365000">
        <ele>1035.90</ele>
        <time>2013-07-19T16:35:48Z</time>
      </trkpt>
      <trkpt lat="28.024277000" lon="-15.696808000">
        <ele>1022.10</ele>
        <time>2013-07-19T16:35:53Z</time>
      </trkpt>
      <trkpt lat="28.024414000" lon="-15.697067000">
        <ele>1016.40</ele>
        <time>2013-07-19T16:35:58Z</time>
      </trkpt>
      <trkpt lat="28.024368000" lon="-15.697098000">
        <ele>1017.80</ele>
        <time>2013-07-19T16:36:10Z</time>
      </trkpt>
      <trkpt lat="28.024185000" lon="-15.697174000">
        <ele>1023.00</ele>
        <time>2013-07-19T16:36:15Z</time>
      </trkpt>
      <trkpt lat="28.023849000" lon="-15.697372000">
        <ele>1035.90</ele>
        <time>2013-07-19T16:36:21Z</time>
      </trkpt>
      <trkpt lat="28.023392000" lon="-15.697449000">
        <ele>1052.50</ele>
        <time>2013-07-19T16:36:27Z</time>
      </trkpt>
      <trkpt lat="28.023178000" lon="-15.697693000">
        <ele>1052.80</ele>
        <time>2013-07-19T16:36:33Z</time>
      </trkpt>
      <trkpt lat="28.023331000" lon="-15.697983000">
        <ele>1035.60</ele>
        <time>2013-07-19T16:36:38Z</time>
      </trkpt>
      <trkpt lat="28.023499000" lon="-15.698181000">
        <ele>1022.70</ele>
        <time>2013-07-19T16:36:43Z</time>
      </trkpt>
      <trkpt lat="28.023605000" lon="-15.698471000">
        <ele>1011.50</ele>
        <time>2013-07-19T16:36:48Z</time>
      </trkpt>
      <trkpt lat="28.023758000" lon="-15.698761000">
        <ele>1000.70</ele>
        <time>2013-07-19T16:36:54Z</time>
      </trkpt>
      <trkpt lat="28.023621000" lon="-15.698914000">
        <ele>1002.80</ele>
        <time>2013-07-19T16:36:59Z</time>
      </trkpt>
      <trkpt lat="28.023422000" lon="-15.699127000">
        <ele>1007.40</ele>
        <time>2013-07-19T16:37:05Z</time>
      </trkpt>
      <trkpt lat="28.023285000" lon="-15.699417000">
        <ele>1011.50</ele>
        <time>2013-07-19T16:37:11Z</time>
      </trkpt>
      <trkpt lat="28.023026000" lon="-15.699570000">
        <ele>1026.00</ele>
        <time>2013-07-19T16:37:16Z</time>
      </trkpt>
      <trkpt lat="28.022949000" lon="-15.699814000">
        <ele>1027.50</ele>
        <time>2013-07-19T16:37:21Z</time>
      </trkpt>
      <trkpt lat="28.023163000" lon="-15.700073000">
        <ele>1009.70</ele>
        <time>2013-07-19T16:37:27Z</time>
      </trkpt>
      <trkpt lat="28.023254000" lon="-15.700394000">
        <ele>997.40</ele>
        <time>2013-07-19T16:37:33Z</time>
      </trkpt>
      <trkpt lat="28.023453000" lon="-15.700562000">
        <ele>984.30</ele>
        <time>2013-07-19T16:37:38Z</time>
      </trkpt>
      <trkpt lat="28.023483000" lon="-15.700897000">
        <ele>976.70</ele>
        <time>2013-07-19T16:37:44Z</time>
      </trkpt>
      <trkpt lat="28.023499000" lon="-15.701218000">
        <ele>976.00</ele>
        <time>2013-07-19T16:37:49Z</time>
      </trkpt>
      <trkpt lat="28.023529000" lon="-15.701508000">
        <ele>975.10</ele>
        <time>2013-07-19T16:37:55Z</time>
      </trkpt>
      <trkpt lat="28.023666000" lon="-15.701477000">
        <ele>968.90</ele>
        <time>2013-07-19T16:38:01Z</time>
      </trkpt>
      <trkpt lat="28.023590000" lon="-15.701233000">
        <ele>972.00</ele>
        <time>2013-07-19T16:38:06Z</time>
      </trkpt>
      <trkpt lat="28.023621000" lon="-15.700912000">
        <ele>970.80</ele>
        <time>2013-07-19T16:38:11Z</time>
      </trkpt>
      <trkpt lat="28.023697000" lon="-15.700562000">
        <ele>973.90</ele>
        <time>2013-07-19T16:38:17Z</time>
      </trkpt>
      <trkpt lat="28.023499000" lon="-15.700302000">
        <ele>988.20</ele>
        <time>2013-07-19T16:38:22Z</time>
      </trkpt>
      <trkpt lat="28.023453000" lon="-15.699982000">
        <ele>996.70</ele>
        <time>2013-07-19T16:38:27Z</time>
      </trkpt>
      <trkpt lat="28.023422000" lon="-15.699707000">
        <ele>1001.00</ele>
        <time>2013-07-19T16:38:33Z</time>
      </trkpt>
      <trkpt lat="28.023651000" lon="-15.699509000">
        <ele>993.60</ele>
        <time>2013-07-19T16:38:38Z</time>
      </trkpt>
      <trkpt lat="28.024033000" lon="-15.699402000">
        <ele>979.00</ele>
        <time>2013-07-19T16:38:44Z</time>
      </trkpt>
      <trkpt lat="28.024490000" lon="-15.699524000">
        <ele>963.20</ele>
        <time>2013-07-19T16:38:50Z</time>
      </trkpt>
      <trkpt lat="28.024719000" lon="-15.699524000">
        <ele>956.80</ele>
        <time>2013-07-19T16:38:55Z</time>
      </trkpt>
      <trkpt lat="28.024872000" lon="-15.699249000">
        <ele>953.90</ele>
        <time>2013-07-19T16:39:01Z</time>
      </trkpt>
      <trkpt lat="28.025055000" lon="-15.699127000">
        <ele>951.00</ele>
        <time>2013-07-19T16:39:07Z</time>
      </trkpt>
      <trkpt lat="28.025101000" lon="-15.699203000">
        <ele>948.20</ele>
        <time>2013-07-19T16:39:13Z</time>
      </trkpt>
      <trkpt lat="28.025070000" lon="-15.699265000">
        <ele>948.40</ele>
        <time>2013-07-19T16:39:53Z</time>
      </trkpt>
      <trkpt lat="28.024902000" lon="-15.699478000">
        <ele>951.60</ele>
        <time>2013-07-19T16:39:59Z</time>
      </trkpt>
      <trkpt lat="28.024796000" lon="-15.699783000">
        <ele>952.50</ele>
        <time>2013-07-19T16:40:05Z</time>
      </trkpt>
      <trkpt lat="28.024521000" lon="-15.699738000">
        <ele>961.40</ele>
        <time>2013-07-19T16:40:11Z</time>
      </trkpt>
      <trkpt lat="28.024261000" lon="-15.699707000">
        <ele>969.10</ele>
        <time>2013-07-19T16:40:16Z</time>
      </trkpt>
      <trkpt lat="28.024033000" lon="-15.699799000">
        <ele>976.60</ele>
        <time>2013-07-19T16:40:21Z</time>
      </trkpt>
      <trkpt lat="28.024063000" lon="-15.700012000">
        <ele>974.40</ele>
        <time>2013-07-19T16:40:27Z</time>
      </trkpt>
      <trkpt lat="28.024109000" lon="-15.700256000">
        <ele>965.30</ele>
        <time>2013-07-19T16:40:32Z</time>
      </trkpt>
      <trkpt lat="28.024414000" lon="-15.700531000">
        <ele>948.40</ele>
        <time>2013-07-19T16:40:38Z</time>
      </trkpt>
      <trkpt lat="28.024734000" lon="-15.700836000">
        <ele>934.20</ele>
        <time>2013-07-19T16:40:43Z</time>
      </trkpt>
      <trkpt lat="28.024979000" lon="-15.701050000">
        <ele>926.80</ele>
        <time>2013-07-19T16:40:49Z</time>
      </trkpt>
      <trkpt lat="28.025024000" lon="-15.701157000">
        <ele>923.70</ele>
        <time>2013-07-19T16:40:56Z</time>
      </trkpt>
      <trkpt lat="28.025085000" lon="-15.701233000">
        <ele>920.70</ele>
        <time>2013-07-19T16:41:17Z</time>
      </trkpt>
      <trkpt lat="28.025055000" lon="-15.701279000">
        <ele>921.10</ele>
        <time>2013-07-19T16:41:34Z</time>
      </trkpt>
      <trkpt lat="28.024994000" lon="-15.701401000">
        <ele>921.60</ele>
        <time>2013-07-19T16:41:40Z</time>
      </trkpt>
      <trkpt lat="28.024902000" lon="-15.701508000">
        <ele>923.10</ele>
        <time>2013-07-19T16:41:45Z</time>
      </trkpt>
      <trkpt lat="28.024719000" lon="-15.701599000">
        <ele>928.50</ele>
        <time>2013-07-19T16:41:51Z</time>
      </trkpt>
      <trkpt lat="28.024658000" lon="-15.701859000">
        <ele>928.60</ele>
        <time>2013-07-19T16:41:57Z</time>
      </trkpt>
      <trkpt lat="28.024475000" lon="-15.702133000">
        <ele>933.30</ele>
        <time>2013-07-19T16:42:03Z</time>
      </trkpt>
      <trkpt lat="28.024323000" lon="-15.702393000">
        <ele>937.70</ele>
        <time>2013-07-19T16:42:08Z</time>
      </trkpt>
      <trkpt lat="28.024139000" lon="-15.702560000">
        <ele>943.00</ele>
        <time>2013-07-19T16:42:14Z</time>
      </trkpt>
      <trkpt lat="28.024139000" lon="-15.702698000">
        <ele>940.40</ele>
        <time>2013-07-19T16:42:19Z</time>
      </trkpt>
      <trkpt lat="28.024246000" lon="-15.702744000">
        <ele>935.90</ele>
        <time>2013-07-19T16:42:24Z</time>
      </trkpt>
      <trkpt lat="28.024445000" lon="-15.702774000">
        <ele>928.70</ele>
        <time>2013-07-19T16:42:30Z</time>
      </trkpt>
      <trkpt lat="28.024673000" lon="-15.702744000">
        <ele>921.20</ele>
        <time>2013-07-19T16:42:36Z</time>
      </trkpt>
      <trkpt lat="28.024902000" lon="-15.702652000">
        <ele>913.40</ele>
        <time>2013-07-19T16:42:41Z</time>
      </trkpt>
      <trkpt lat="28.025131000" lon="-15.702484000">
        <ele>906.60</ele>
        <time>2013-07-19T16:42:47Z</time>
      </trkpt>
      <trkpt lat="28.025330000" lon="-15.702316000">
        <ele>901.70</ele>
        <time>2013-07-19T16:42:52Z</time>
      </trkpt>
      <trkpt lat="28.025604000" lon="-15.702209000">
        <ele>894.20</ele>
        <time>2013-07-19T16:42:57Z</time>
      </trkpt>
      <trkpt lat="28.025879000" lon="-15.702148000">
        <ele>886.60</ele>
        <time>2013-07-19T16:43:02Z</time>
      </trkpt>
      <trkpt lat="28.026230000" lon="-15.702209000">
        <ele>880.20</ele>
        <time>2013-07-19T16:43:08Z</time>
      </trkpt>
      <trkpt lat="28.026474000" lon="-15.702271000">
        <ele>875.20</ele>
        <time>2013-07-19T16:43:13Z</time>
      </trkpt>
      <trkpt lat="28.026550000" lon="-15.702576000">
        <ele>873.20</ele>
        <time>2013-07-19T16:43:19Z</time>
      </trkpt>
      <trkpt lat="28.026749000" lon="-15.702698000">
        <ele>871.20</ele>
        <time>2013-07-19T16:43:24Z</time>
      </trkpt>
      <trkpt lat="28.026871000" lon="-15.702911000">
        <ele>872.50</ele>
        <time>2013-07-19T16:43:30Z</time>
      </trkpt>
      <trkpt lat="28.026917000" lon="-15.703064000">
        <ele>874.00</ele>
        <time>2013-07-19T16:43:36Z</time>
      </trkpt>
      <trkpt lat="28.026855000" lon="-15.703079000">
        <ele>875.70</ele>
        <time>2013-07-19T16:44:08Z</time>
      </trkpt>
      <trkpt lat="28.026825000" lon="-15.703110000">
        <ele>877.60</ele>
        <time>2013-07-19T16:44:39Z</time>
      </trkpt>
      <trkpt lat="28.026688000" lon="-15.703232000">
        <ele>884.20</ele>
        <time>2013-07-19T16:44:45Z</time>
      </trkpt>
      <trkpt lat="28.026566000" lon="-15.703339000">
        <ele>889.40</ele>
        <time>2013-07-19T16:44:50Z</time>
      </trkpt>
      <trkpt lat="28.026413000" lon="-15.703476000">
        <ele>893.90</ele>
        <time>2013-07-19T16:44:56Z</time>
      </trkpt>
      <trkpt lat="28.026215000" lon="-15.703690000">
        <ele>900.20</ele>
        <time>2013-07-19T16:45:02Z</time>
      </trkpt>
      <trkpt lat="28.026108000" lon="-15.703873000">
        <ele>905.10</ele>
        <time>2013-07-19T16:45:07Z</time>
      </trkpt>
      <trkpt lat="28.026245000" lon="-15.704025000">
        <ele>902.50</ele>
        <time>2013-07-19T16:45:13Z</time>
      </trkpt>
      <trkpt lat="28.026398000" lon="-15.704086000">
        <ele>898.50</ele>
        <time>2013-07-19T16:45:19Z</time>
      </trkpt>
      <trkpt lat="28.026520000" lon="-15.704224000">
        <ele>895.60</ele>
        <time>2013-07-19T16:45:25Z</time>
      </trkpt>
      <trkpt lat="28.026611000" lon="-15.704361000">
        <ele>893.10</ele>
        <time>2013-07-19T16:45:30Z</time>
      </trkpt>
      <trkpt lat="28.026764000" lon="-15.704376000">
        <ele>887.90</ele>
        <time>2013-07-19T16:45:35Z</time>
      </trkpt>
      <trkpt lat="28.026947000" lon="-15.704376000">
        <ele>881.10</ele>
        <time>2013-07-19T16:45:41Z</time>
      </trkpt>
      <trkpt lat="28.027054000" lon="-15.704453000">
        <ele>876.80</ele>
        <time>2013-07-19T16:45:46Z</time>
      </trkpt>
      <trkpt lat="28.027145000" lon="-15.704590000">
        <ele>873.70</ele>
        <time>2013-07-19T16:45:52Z</time>
      </trkpt>
      <trkpt lat="28.027206000" lon="-15.704712000">
        <ele>871.90</ele>
        <time>2013-07-19T16:45:57Z</time>
      </trkpt>
      <trkpt lat="28.027237000" lon="-15.704849000">
        <ele>871.30</ele>
        <time>2013-07-19T16:46:02Z</time>
      </trkpt>
      <trkpt lat="28.027222000" lon="-15.705017000">
        <ele>872.80</ele>
        <time>2013-07-19T16:46:08Z</time>
      </trkpt>
      <trkpt lat="28.027161000" lon="-15.705154000">
        <ele>877.60</ele>
        <time>2013-07-19T16:46:14Z</time>
      </trkpt>
      <trkpt lat="28.027100000" lon="-15.705200000">
        <ele>881.00</ele>
        <time>2013-07-19T16:46:20Z</time>
      </trkpt>
      <trkpt lat="28.027054000" lon="-15.705276000">
        <ele>884.30</ele>
        <time>2013-07-19T16:46:25Z</time>
      </trkpt>
      <trkpt lat="28.026978000" lon="-15.705322000">
        <ele>888.10</ele>
        <time>2013-07-19T16:46:30Z</time>
      </trkpt>
      <trkpt lat="28.026855000" lon="-15.705368000">
        <ele>893.80</ele>
        <time>2013-07-19T16:46:36Z</time>
      </trkpt>
      <trkpt lat="28.026749000" lon="-15.705414000">
        <ele>898.40</ele>
        <time>2013-07-19T16:46:41Z</time>
      </trkpt>
      <trkpt lat="28.026627000" lon="-15.705475000">
        <ele>903.60</ele>
        <time>2013-07-19T16:46:47Z</time>
      </trkpt>
      <trkpt lat="28.026550000" lon="-15.705551000">
        <ele>907.10</ele>
        <time>2013-07-19T16:46:52Z</time>
      </trkpt>
      <trkpt lat="28.026474000" lon="-15.705627000">
        <ele>910.30</ele>
        <time>2013-07-19T16:46:57Z</time>
      </trkpt>
      <trkpt lat="28.026230000" lon="-15.705688000">
        <ele>916.90</ele>
        <time>2013-07-19T16:47:03Z</time>
      </trkpt>
      <trkpt lat="28.025833000" lon="-15.705597000">
        <ele>925.10</ele>
        <time>2013-07-19T16:47:09Z</time>
      </trkpt>
      <trkpt lat="28.025528000" lon="-15.705704000">
        <ele>939.90</ele>
        <time>2013-07-19T16:47:15Z</time>
      </trkpt>
      <trkpt lat="28.025314000" lon="-15.705856000">
        <ele>949.10</ele>
        <time>2013-07-19T16:47:20Z</time>
      </trkpt>
      <trkpt lat="28.025009000" lon="-15.706100000">
        <ele>950.80</ele>
        <time>2013-07-19T16:47:26Z</time>
      </trkpt>
      <trkpt lat="28.024826000" lon="-15.706390000">
        <ele>944.10</ele>
        <time>2013-07-19T16:47:32Z</time>
      </trkpt>
      <trkpt lat="28.024841000" lon="-15.706589000">
        <ele>934.30</ele>
        <time>2013-07-19T16:47:38Z</time>
      </trkpt>
      <trkpt lat="28.024994000" lon="-15.706635000">
        <ele>925.10</ele>
        <time>2013-07-19T16:47:43Z</time>
      </trkpt>
      <trkpt lat="28.025101000" lon="-15.706696000">
        <ele>918.70</ele>
        <time>2013-07-19T16:47:48Z</time>
      </trkpt>
      <trkpt lat="28.025177000" lon="-15.706833000">
        <ele>913.50</ele>
        <time>2013-07-19T16:47:54Z</time>
      </trkpt>
      <trkpt lat="28.025223000" lon="-15.706940000">
        <ele>909.70</ele>
        <time>2013-07-19T16:47:59Z</time>
      </trkpt>
      <trkpt lat="28.025299000" lon="-15.707062000">
        <ele>904.20</ele>
        <time>2013-07-19T16:48:05Z</time>
      </trkpt>
      <trkpt lat="28.025391000" lon="-15.707123000">
        <ele>899.10</ele>
        <time>2013-07-19T16:48:10Z</time>
      </trkpt>
      <trkpt lat="28.025482000" lon="-15.707169000">
        <ele>894.50</ele>
        <time>2013-07-19T16:48:15Z</time>
      </trkpt>
      <trkpt lat="28.025589000" lon="-15.707214000">
        <ele>888.60</ele>
        <time>2013-07-19T16:48:21Z</time>
      </trkpt>
      <trkpt lat="28.025620000" lon="-15.707275000">
        <ele>885.70</ele>
        <time>2013-07-19T16:49:55Z</time>
      </trkpt>
      <trkpt lat="28.025742000" lon="-15.707443000">
        <ele>876.00</ele>
        <time>2013-07-19T16:50:01Z</time>
      </trkpt>
      <trkpt lat="28.025894000" lon="-15.707672000">
        <ele>873.00</ele>
        <time>2013-07-19T16:50:06Z</time>
      </trkpt>
      <trkpt lat="28.026047000" lon="-15.707993000">
        <ele>873.50</ele>
        <time>2013-07-19T16:50:11Z</time>
      </trkpt>
      <trkpt lat="28.026443000" lon="-15.708237000">
        <ele>854.70</ele>
        <time>2013-07-19T16:50:17Z</time>
      </trkpt>
      <trkpt lat="28.026520000" lon="-15.708542000">
        <ele>857.80</ele>
        <time>2013-07-19T16:50:23Z</time>
      </trkpt>
      <trkpt lat="28.026550000" lon="-15.708847000">
        <ele>868.70</ele>
        <time>2013-07-19T16:50:29Z</time>
      </trkpt>
      <trkpt lat="28.026779000" lon="-15.709015000">
        <ele>863.20</ele>
        <time>2013-07-19T16:50:35Z</time>
      </trkpt>
      <trkpt lat="28.026962000" lon="-15.709076000">
        <ele>857.30</ele>
        <time>2013-07-19T16:50:40Z</time>
      </trkpt>
      <trkpt lat="28.027222000" lon="-15.709198000">
        <ele>852.40</ele>
        <time>2013-07-19T16:50:46Z</time>
      </trkpt>
      <trkpt lat="28.027390000" lon="-15.709335000">
        <ele>850.20</ele>
        <time>2013-07-19T16:50:51Z</time>
      </trkpt>
      <trkpt lat="28.027435000" lon="-15.709625000">
        <ele>860.80</ele>
        <time>2013-07-19T16:50:57Z</time>
      </trkpt>
      <trkpt lat="28.027573000" lon="-15.710007000">
        <ele>871.00</ele>
        <time>2013-07-19T16:51:03Z</time>
      </trkpt>
      <trkpt lat="28.027878000" lon="-15.710190000">
        <ele>862.20</ele>
        <time>2013-07-19T16:51:09Z</time>
      </trkpt>
      <trkpt lat="28.028061000" lon="-15.710373000">
        <ele>859.00</ele>
        <time>2013-07-19T16:51:14Z</time>
      </trkpt>
      <trkpt lat="28.028351000" lon="-15.710663000">
        <ele>856.10</ele>
        <time>2013-07-19T16:51:20Z</time>
      </trkpt>
      <trkpt lat="28.028656000" lon="-15.710983000">
        <ele>854.50</ele>
        <time>2013-07-19T16:51:26Z</time>
      </trkpt>
      <trkpt lat="28.028915000" lon="-15.711197000">
        <ele>854.70</ele>
        <time>2013-07-19T16:51:32Z</time>
      </trkpt>
      <trkpt lat="28.028763000" lon="-15.711319000">
        <ele>863.60</ele>
        <time>2013-07-19T16:51:38Z</time>
      </trkpt>
      <trkpt lat="28.028442000" lon="-15.711349000">
        <ele>873.20</ele>
        <time>2013-07-19T16:51:43Z</time>
      </trkpt>
      <trkpt lat="28.027954000" lon="-15.711426000">
        <ele>888.60</ele>
        <time>2013-07-19T16:51:49Z</time>
      </trkpt>
      <trkpt lat="28.027374000" lon="-15.711411000">
        <ele>900.00</ele>
        <time>2013-07-19T16:51:55Z</time>
      </trkpt>
      <trkpt lat="28.026825000" lon="-15.711197000">
        <ele>903.70</ele>
        <time>2013-07-19T16:52:01Z</time>
      </trkpt>
      <trkpt lat="28.026382000" lon="-15.711288000">
        <ele>905.50</ele>
        <time>2013-07-19T16:52:07Z</time>
      </trkpt>
      <trkpt lat="28.026321000" lon="-15.711548000">
        <ele>896.00</ele>
        <time>2013-07-19T16:52:12Z</time>
      </trkpt>
      <trkpt lat="28.026276000" lon="-15.711594000">
        <ele>894.50</ele>
        <time>2013-07-19T16:52:47Z</time>
      </trkpt>
      <trkpt lat="28.026093000" lon="-15.711700000">
        <ele>892.10</ele>
        <time>2013-07-19T16:52:53Z</time>
      </trkpt>
      <trkpt lat="28.025925000" lon="-15.711899000">
        <ele>886.70</ele>
        <time>2013-07-19T16:52:59Z</time>
      </trkpt>
      <trkpt lat="28.025696000" lon="-15.711975000">
        <ele>888.40</ele>
        <time>2013-07-19T16:53:05Z</time>
      </trkpt>
      <trkpt lat="28.025436000" lon="-15.711960000">
        <ele>894.90</ele>
        <time>2013-07-19T16:53:11Z</time>
      </trkpt>
      <trkpt lat="28.025223000" lon="-15.712097000">
        <ele>895.60</ele>
        <time>2013-07-19T16:53:16Z</time>
      </trkpt>
      <trkpt lat="28.025009000" lon="-15.712204000">
        <ele>897.00</ele>
        <time>2013-07-19T16:53:21Z</time>
      </trkpt>
      <trkpt lat="28.024796000" lon="-15.712250000">
        <ele>897.00</ele>
        <time>2013-07-19T16:53:26Z</time>
      </trkpt>
      <trkpt lat="28.024536000" lon="-15.712234000">
        <ele>899.10</ele>
        <time>2013-07-19T16:53:31Z</time>
      </trkpt>
      <trkpt lat="28.024277000" lon="-15.712341000">
        <ele>896.90</ele>
        <time>2013-07-19T16:53:36Z</time>
      </trkpt>
      <trkpt lat="28.023956000" lon="-15.712296000">
        <ele>895.50</ele>
        <time>2013-07-19T16:53:42Z</time>
      </trkpt>
      <trkpt lat="28.023743000" lon="-15.712204000">
        <ele>895.30</ele>
        <time>2013-07-19T16:53:47Z</time>
      </trkpt>
      <trkpt lat="28.023514000" lon="-15.712067000">
        <ele>898.20</ele>
        <time>2013-07-19T16:53:53Z</time>
      </trkpt>
      <trkpt lat="28.023331000" lon="-15.711746000">
        <ele>914.60</ele>
        <time>2013-07-19T16:53:59Z</time>
      </trkpt>
      <trkpt lat="28.023010000" lon="-15.711639000">
        <ele>905.70</ele>
        <time>2013-07-19T16:54:05Z</time>
      </trkpt>
      <trkpt lat="28.022644000" lon="-15.711441000">
        <ele>899.20</ele>
        <time>2013-07-19T16:54:11Z</time>
      </trkpt>
      <trkpt lat="28.022354000" lon="-15.711212000">
        <ele>898.30</ele>
        <time>2013-07-19T16:54:16Z</time>
      </trkpt>
      <trkpt lat="28.022095000" lon="-15.711075000">
        <ele>891.70</ele>
        <time>2013-07-19T16:54:21Z</time>
      </trkpt>
      <trkpt lat="28.021896000" lon="-15.710846000">
        <ele>892.50</ele>
        <time>2013-07-19T16:54:26Z</time>
      </trkpt>
      <trkpt lat="28.021759000" lon="-15.710602000">
        <ele>895.90</ele>
        <time>2013-07-19T16:54:31Z</time>
      </trkpt>
      <trkpt lat="28.021652000" lon="-15.710434000">
        <ele>897.70</ele>
        <time>2013-07-19T16:54:37Z</time>
      </trkpt>
      <trkpt lat="28.021454000" lon="-15.710388000">
        <ele>895.30</ele>
        <time>2013-07-19T16:54:42Z</time>
      </trkpt>
      <trkpt lat="28.021591000" lon="-15.710587000">
        <ele>889.80</ele>
        <time>2013-07-19T16:54:48Z</time>
      </trkpt>
      <trkpt lat="28.021744000" lon="-15.710815000">
        <ele>885.60</ele>
        <time>2013-07-19T16:54:54Z</time>
      </trkpt>
      <trkpt lat="28.021805000" lon="-15.710953000">
        <ele>882.20</ele>
        <time>2013-07-19T16:54:59Z</time>
      </trkpt>
      <trkpt lat="28.021820000" lon="-15.711075000">
        <ele>877.50</ele>
        <time>2013-07-19T16:55:05Z</time>
      </trkpt>
      <trkpt lat="28.021866000" lon="-15.711105000">
        <ele>878.40</ele>
        <time>2013-07-19T16:55:16Z</time>
      </trkpt>
      <trkpt lat="28.021912000" lon="-15.711151000">
        <ele>878.30</ele>
        <time>2013-07-19T16:55:44Z</time>
      </trkpt>
      <trkpt lat="28.022125000" lon="-15.711365000">
        <ele>878.30</ele>
        <time>2013-07-19T16:55:49Z</time>
      </trkpt>
      <trkpt lat="28.022461000" lon="-15.711685000">
        <ele>876.30</ele>
        <time>2013-07-19T16:55:55Z</time>
      </trkpt>
      <trkpt lat="28.022736000" lon="-15.712036000">
        <ele>869.30</ele>
        <time>2013-07-19T16:56:00Z</time>
      </trkpt>
      <trkpt lat="28.023087000" lon="-15.712387000">
        <ele>865.30</ele>
        <time>2013-07-19T16:56:06Z</time>
      </trkpt>
      <trkpt lat="28.023422000" lon="-15.712418000">
        <ele>877.00</ele>
        <time>2013-07-19T16:56:12Z</time>
      </trkpt>
      <trkpt lat="28.023422000" lon="-15.712646000">
        <ele>864.20</ele>
        <time>2013-07-19T16:56:17Z</time>
      </trkpt>
      <trkpt lat="28.023224000" lon="-15.712723000">
        <ele>852.10</ele>
        <time>2013-07-19T16:56:23Z</time>
      </trkpt>
      <trkpt lat="28.022964000" lon="-15.712540000">
        <ele>851.10</ele>
        <time>2013-07-19T16:56:28Z</time>
      </trkpt>
      <trkpt lat="28.022568000" lon="-15.712280000">
        <ele>848.10</ele>
        <time>2013-07-19T16:56:34Z</time>
      </trkpt>
      <trkpt lat="28.022171000" lon="-15.711975000">
        <ele>849.40</ele>
        <time>2013-07-19T16:56:40Z</time>
      </trkpt>
      <trkpt lat="28.021851000" lon="-15.711731000">
        <ele>848.00</ele>
        <time>2013-07-19T16:56:45Z</time>
      </trkpt>
      <trkpt lat="28.021667000" lon="-15.711823000">
        <ele>836.20</ele>
        <time>2013-07-19T16:56:50Z</time>
      </trkpt>
      <trkpt lat="28.021988000" lon="-15.712021000">
        <ele>839.60</ele>
        <time>2013-07-19T16:56:56Z</time>
      </trkpt>
      <trkpt lat="28.022354000" lon="-15.712357000">
        <ele>835.80</ele>
        <time>2013-07-19T16:57:02Z</time>
      </trkpt>
      <trkpt lat="28.022675000" lon="-15.712662000">
        <ele>832.70</ele>
        <time>2013-07-19T16:57:07Z</time>
      </trkpt>
      <trkpt lat="28.022980000" lon="-15.713104000">
        <ele>821.60</ele>
        <time>2013-07-19T16:57:13Z</time>
      </trkpt>
      <trkpt lat="28.023209000" lon="-15.713364000">
        <ele>815.10</ele>
        <time>2013-07-19T16:57:18Z</time>
      </trkpt>
      <trkpt lat="28.023285000" lon="-15.713394000">
        <ele>815.70</ele>
        <time>2013-07-19T16:57:24Z</time>
      </trkpt>
      <trkpt lat="28.023331000" lon="-15.713455000">
        <ele>814.60</ele>
        <time>2013-07-19T16:58:09Z</time>
      </trkpt>
      <trkpt lat="28.023605000" lon="-15.713440000">
        <ele>823.60</ele>
        <time>2013-07-19T16:58:14Z</time>
      </trkpt>
      <trkpt lat="28.023865000" lon="-15.713226000">
        <ele>844.90</ele>
        <time>2013-07-19T16:58:20Z</time>
      </trkpt>
      <trkpt lat="28.024078000" lon="-15.713211000">
        <ele>852.80</ele>
        <time>2013-07-19T16:58:25Z</time>
      </trkpt>
      <trkpt lat="28.024017000" lon="-15.713348000">
        <ele>843.00</ele>
        <time>2013-07-19T16:58:31Z</time>
      </trkpt>
      <trkpt lat="28.023865000" lon="-15.713394000">
        <ele>834.00</ele>
        <time>2013-07-19T16:58:36Z</time>
      </trkpt>
      <trkpt lat="28.023758000" lon="-15.713516000">
        <ele>822.20</ele>
        <time>2013-07-19T16:58:42Z</time>
      </trkpt>
      <trkpt lat="28.023438000" lon="-15.713654000">
        <ele>807.30</ele>
        <time>2013-07-19T16:58:48Z</time>
      </trkpt>
      <trkpt lat="28.023087000" lon="-15.713547000">
        <ele>803.60</ele>
        <time>2013-07-19T16:58:54Z</time>
      </trkpt>
      <trkpt lat="28.022980000" lon="-15.713654000">
        <ele>796.10</ele>
        <time>2013-07-19T16:58:59Z</time>
      </trkpt>
      <trkpt lat="28.023270000" lon="-15.713760000">
        <ele>799.10</ele>
        <time>2013-07-19T16:59:05Z</time>
      </trkpt>
      <trkpt lat="28.023697000" lon="-15.713776000">
        <ele>803.50</ele>
        <time>2013-07-19T16:59:11Z</time>
      </trkpt>
      <trkpt lat="28.023941000" lon="-15.713669000">
        <ele>815.20</ele>
        <time>2013-07-19T16:59:16Z</time>
      </trkpt>
      <trkpt lat="28.024216000" lon="-15.713608000">
        <ele>824.80</ele>
        <time>2013-07-19T16:59:22Z</time>
      </trkpt>
      <trkpt lat="28.024429000" lon="-15.713593000">
        <ele>827.10</ele>
        <time>2013-07-19T16:59:28Z</time>
      </trkpt>
      <trkpt lat="28.024582000" lon="-15.713547000">
        <ele>832.20</ele>
        <time>2013-07-19T16:59:33Z</time>
      </trkpt>
      <trkpt lat="28.024551000" lon="-15.713745000">
        <ele>816.20</ele>
        <time>2013-07-19T16:59:38Z</time>
      </trkpt>
      <trkpt lat="28.024261000" lon="-15.713730000">
        <ele>813.80</ele>
        <time>2013-07-19T16:59:44Z</time>
      </trkpt>
      <trkpt lat="28.024139000" lon="-15.713806000">
        <ele>805.40</ele>
        <time>2013-07-19T16:59:50Z</time>
      </trkpt>
      <trkpt lat="28.024399000" lon="-15.713791000">
        <ele>810.10</ele>
        <time>2013-07-19T16:59:55Z</time>
      </trkpt>
      <trkpt lat="28.024765000" lon="-15.713837000">
        <ele>811.10</ele>
        <time>2013-07-19T17:00:01Z</time>
      </trkpt>
      <trkpt lat="28.025024000" lon="-15.713943000">
        <ele>805.50</ele>
        <time>2013-07-19T17:00:06Z</time>
      </trkpt>
      <trkpt lat="28.025253000" lon="-15.714020000">
        <ele>799.60</ele>
        <time>2013-07-19T17:00:12Z</time>
      </trkpt>
      <trkpt lat="28.025070000" lon="-15.714096000">
        <ele>793.90</ele>
        <time>2013-07-19T17:00:18Z</time>
      </trkpt>
      <trkpt lat="28.024796000" lon="-15.714035000">
        <ele>795.90</ele>
        <time>2013-07-19T17:00:23Z</time>
      </trkpt>
      <trkpt lat="28.024521000" lon="-15.713974000">
        <ele>796.10</ele>
        <time>2013-07-19T17:00:29Z</time>
      </trkpt>
      <trkpt lat="28.024597000" lon="-15.714111000">
        <ele>785.60</ele>
        <time>2013-07-19T17:00:35Z</time>
      </trkpt>
      <trkpt lat="28.024887000" lon="-15.714142000">
        <ele>789.20</ele>
        <time>2013-07-19T17:00:40Z</time>
      </trkpt>
      <trkpt lat="28.025223000" lon="-15.714233000">
        <ele>783.20</ele>
        <time>2013-07-19T17:00:46Z</time>
      </trkpt>
      <trkpt lat="28.025543000" lon="-15.714294000">
        <ele>779.90</ele>
        <time>2013-07-19T17:00:52Z</time>
      </trkpt>
      <trkpt lat="28.025803000" lon="-15.714233000">
        <ele>785.00</ele>
        <time>2013-07-19T17:00:57Z</time>
      </trkpt>
      <trkpt lat="28.026123000" lon="-15.714188000">
        <ele>791.80</ele>
        <time>2013-07-19T17:01:03Z</time>
      </trkpt>
      <trkpt lat="28.026199000" lon="-15.714310000">
        <ele>785.10</ele>
        <time>2013-07-19T17:01:08Z</time>
      </trkpt>
      <trkpt lat="28.026108000" lon="-15.714355000">
        <ele>780.20</ele>
        <time>2013-07-19T17:01:14Z</time>
      </trkpt>
      <trkpt lat="28.026047000" lon="-15.714340000">
        <ele>780.70</ele>
        <time>2013-07-19T17:02:22Z</time>
      </trkpt>
      <trkpt lat="28.025803000" lon="-15.714355000">
        <ele>775.50</ele>
        <time>2013-07-19T17:02:28Z</time>
      </trkpt>
      <trkpt lat="28.025604000" lon="-15.714417000">
        <ele>769.60</ele>
        <time>2013-07-19T17:02:33Z</time>
      </trkpt>
      <trkpt lat="28.025406000" lon="-15.714493000">
        <ele>762.50</ele>
        <time>2013-07-19T17:02:39Z</time>
      </trkpt>
      <trkpt lat="28.025238000" lon="-15.714478000">
        <ele>762.60</ele>
        <time>2013-07-19T17:02:45Z</time>
      </trkpt>
      <trkpt lat="28.024979000" lon="-15.714401000">
        <ele>767.90</ele>
        <time>2013-07-19T17:02:50Z</time>
      </trkpt>
      <trkpt lat="28.024887000" lon="-15.714523000">
        <ele>756.60</ele>
        <time>2013-07-19T17:02:56Z</time>
      </trkpt>
      <trkpt lat="28.025116000" lon="-15.714584000">
        <ele>753.50</ele>
        <time>2013-07-19T17:03:02Z</time>
      </trkpt>
      <trkpt lat="28.025192000" lon="-15.714584000">
        <ele>754.40</ele>
        <time>2013-07-19T17:03:46Z</time>
      </trkpt>
      <trkpt lat="28.025482000" lon="-15.714615000">
        <ele>753.50</ele>
        <time>2013-07-19T17:03:51Z</time>
      </trkpt>
      <trkpt lat="28.025833000" lon="-15.714523000">
        <ele>763.40</ele>
        <time>2013-07-19T17:03:57Z</time>
      </trkpt>
      <trkpt lat="28.025970000" lon="-15.714630000">
        <ele>758.20</ele>
        <time>2013-07-19T17:04:03Z</time>
      </trkpt>
      <trkpt lat="28.025772000" lon="-15.714752000">
        <ele>745.70</ele>
        <time>2013-07-19T17:04:08Z</time>
      </trkpt>
      <trkpt lat="28.025421000" lon="-15.714859000">
        <ele>733.30</ele>
        <time>2013-07-19T17:04:14Z</time>
      </trkpt>
      <trkpt lat="28.025223000" lon="-15.715027000">
        <ele>718.20</ele>
        <time>2013-07-19T17:04:20Z</time>
      </trkpt>
      <trkpt lat="28.025436000" lon="-15.715210000">
        <ele>713.00</ele>
        <time>2013-07-19T17:04:25Z</time>
      </trkpt>
      <trkpt lat="28.025787000" lon="-15.715210000">
        <ele>713.40</ele>
        <time>2013-07-19T17:04:30Z</time>
      </trkpt>
      <trkpt lat="28.026016000" lon="-15.715408000">
        <ele>704.10</ele>
        <time>2013-07-19T17:04:36Z</time>
      </trkpt>
      <trkpt lat="28.026154000" lon="-15.715698000">
        <ele>683.00</ele>
        <time>2013-07-19T17:04:41Z</time>
      </trkpt>
      <trkpt lat="28.026230000" lon="-15.716232000">
        <ele>662.60</ele>
        <time>2013-07-19T17:04:47Z</time>
      </trkpt>
      <trkpt lat="28.026184000" lon="-15.716553000">
        <ele>657.40</ele>
        <time>2013-07-19T17:04:52Z</time>
      </trkpt>
      <trkpt lat="28.026276000" lon="-15.716812000">
        <ele>649.40</ele>
        <time>2013-07-19T17:04:57Z</time>
      </trkpt>
      <trkpt lat="28.026367000" lon="-15.717224000">
        <ele>644.90</ele>
        <time>2013-07-19T17:05:03Z</time>
      </trkpt>
      <trkpt lat="28.026169000" lon="-15.717636000">
        <ele>665.10</ele>
        <time>2013-07-19T17:05:09Z</time>
      </trkpt>
      <trkpt lat="28.026306000" lon="-15.717819000">
        <ele>653.40</ele>
        <time>2013-07-19T17:05:14Z</time>
      </trkpt>
      <trkpt lat="28.026566000" lon="-15.717880000">
        <ele>631.30</ele>
        <time>2013-07-19T17:05:19Z</time>
      </trkpt>
      <trkpt lat="28.026779000" lon="-15.717987000">
        <ele>617.50</ele>
        <time>2013-07-19T17:05:25Z</time>
      </trkpt>
      <trkpt lat="28.026779000" lon="-15.718307000">
        <ele>620.10</ele>
        <time>2013-07-19T17:05:31Z</time>
      </trkpt>
      <trkpt lat="28.026764000" lon="-15.718628000">
        <ele>624.70</ele>
        <time>2013-07-19T17:05:37Z</time>
      </trkpt>
      <trkpt lat="28.026901000" lon="-15.718628000">
        <ele>615.90</ele>
        <time>2013-07-19T17:05:43Z</time>
      </trkpt>
      <trkpt lat="28.026840000" lon="-15.718277000">
        <ele>615.70</ele>
        <time>2013-07-19T17:05:49Z</time>
      </trkpt>
      <trkpt lat="28.026825000" lon="-15.718231000">
        <ele>616.20</ele>
        <time>2013-07-19T17:06:49Z</time>
      </trkpt>
      <trkpt lat="28.026855000" lon="-15.718079000">
        <ele>614.30</ele>
        <time>2013-07-19T17:06:54Z</time>
      </trkpt>
      <trkpt lat="28.026810000" lon="-15.717819000">
        <ele>614.60</ele>
        <time>2013-07-19T17:07:00Z</time>
      </trkpt>
      <trkpt lat="28.026688000" lon="-15.717758000">
        <ele>619.70</ele>
        <time>2013-07-19T17:07:05Z</time>
      </trkpt>
      <trkpt lat="28.026566000" lon="-15.717651000">
        <ele>629.40</ele>
        <time>2013-07-19T17:07:11Z</time>
      </trkpt>
      <trkpt lat="28.026749000" lon="-15.717636000">
        <ele>616.00</ele>
        <time>2013-07-19T17:07:16Z</time>
      </trkpt>
      <trkpt lat="28.026962000" lon="-15.717926000">
        <ele>608.10</ele>
        <time>2013-07-19T17:07:22Z</time>
      </trkpt>
      <trkpt lat="28.026993000" lon="-15.718185000">
        <ele>606.60</ele>
        <time>2013-07-19T17:07:27Z</time>
      </trkpt>
      <trkpt lat="28.027039000" lon="-15.718491000">
        <ele>605.50</ele>
        <time>2013-07-19T17:07:33Z</time>
      </trkpt>
      <trkpt lat="28.027176000" lon="-15.718689000">
        <ele>597.90</ele>
        <time>2013-07-19T17:07:39Z</time>
      </trkpt>
      <trkpt lat="28.027283000" lon="-15.718796000">
        <ele>591.90</ele>
        <time>2013-07-19T17:07:45Z</time>
      </trkpt>
      <trkpt lat="28.027283000" lon="-15.718857000">
        <ele>592.40</ele>
        <time>2013-07-19T17:08:28Z</time>
      </trkpt>
      <trkpt lat="28.027100000" lon="-15.718994000">
        <ele>606.00</ele>
        <time>2013-07-19T17:08:33Z</time>
      </trkpt>
      <trkpt lat="28.026993000" lon="-15.719070000">
        <ele>614.40</ele>
        <time>2013-07-19T17:08:38Z</time>
      </trkpt>
      <trkpt lat="28.026794000" lon="-15.719131000">
        <ele>628.80</ele>
        <time>2013-07-19T17:08:43Z</time>
      </trkpt>
      <trkpt lat="28.026627000" lon="-15.719193000">
        <ele>640.40</ele>
        <time>2013-07-19T17:08:49Z</time>
      </trkpt>
      <trkpt lat="28.026611000" lon="-15.719421000">
        <ele>638.80</ele>
        <time>2013-07-19T17:08:54Z</time>
      </trkpt>
      <trkpt lat="28.026810000" lon="-15.719589000">
        <ele>625.00</ele>
        <time>2013-07-19T17:08:59Z</time>
      </trkpt>
      <trkpt lat="28.027145000" lon="-15.719742000">
        <ele>603.20</ele>
        <time>2013-07-19T17:09:05Z</time>
      </trkpt>
      <trkpt lat="28.027405000" lon="-15.720001000">
        <ele>588.20</ele>
        <time>2013-07-19T17:09:10Z</time>
      </trkpt>
      <trkpt lat="28.027679000" lon="-15.720276000">
        <ele>578.80</ele>
        <time>2013-07-19T17:09:16Z</time>
      </trkpt>
      <trkpt lat="28.027863000" lon="-15.720535000">
        <ele>572.40</ele>
        <time>2013-07-19T17:09:21Z</time>
      </trkpt>
      <trkpt lat="28.028076000" lon="-15.720673000">
        <ele>562.10</ele>
        <time>2013-07-19T17:09:26Z</time>
      </trkpt>
      <trkpt lat="28.028320000" lon="-15.720871000">
        <ele>550.90</ele>
        <time>2013-07-19T17:09:32Z</time>
      </trkpt>
      <trkpt lat="28.028381000" lon="-15.721008000">
        <ele>552.30</ele>
        <time>2013-07-19T17:09:37Z</time>
      </trkpt>
      <trkpt lat="28.028381000" lon="-15.721237000">
        <ele>558.80</ele>
        <time>2013-07-19T17:09:42Z</time>
      </trkpt>
      <trkpt lat="28.028381000" lon="-15.721573000">
        <ele>568.70</ele>
        <time>2013-07-19T17:09:48Z</time>
      </trkpt>
      <trkpt lat="28.028366000" lon="-15.721863000">
        <ele>575.80</ele>
        <time>2013-07-19T17:09:54Z</time>
      </trkpt>
      <trkpt lat="28.028595000" lon="-15.721970000">
        <ele>566.90</ele>
        <time>2013-07-19T17:09:59Z</time>
      </trkpt>
      <trkpt lat="28.028870000" lon="-15.722076000">
        <ele>556.80</ele>
        <time>2013-07-19T17:10:05Z</time>
      </trkpt>
      <trkpt lat="28.028976000" lon="-15.722214000">
        <ele>555.90</ele>
        <time>2013-07-19T17:10:10Z</time>
      </trkpt>
      <trkpt lat="28.028976000" lon="-15.722305000">
        <ele>558.10</ele>
        <time>2013-07-19T17:10:15Z</time>
      </trkpt>
      <trkpt lat="28.028976000" lon="-15.722382000">
        <ele>560.60</ele>
        <time>2013-07-19T17:10:36Z</time>
      </trkpt>
      <trkpt lat="28.028915000" lon="-15.722549000">
        <ele>566.80</ele>
        <time>2013-07-19T17:10:41Z</time>
      </trkpt>
      <trkpt lat="28.028870000" lon="-15.722809000">
        <ele>570.60</ele>
        <time>2013-07-19T17:10:47Z</time>
      </trkpt>
      <trkpt lat="28.028961000" lon="-15.723068000">
        <ele>568.70</ele>
        <time>2013-07-19T17:10:53Z</time>
      </trkpt>
      <trkpt lat="28.029053000" lon="-15.723358000">
        <ele>567.40</ele>
        <time>2013-07-19T17:10:59Z</time>
      </trkpt>
      <trkpt lat="28.029053000" lon="-15.723694000">
        <ele>567.50</ele>
        <time>2013-07-19T17:11:05Z</time>
      </trkpt>
      <trkpt lat="28.029068000" lon="-15.723999000">
        <ele>567.30</ele>
        <time>2013-07-19T17:11:10Z</time>
      </trkpt>
      <trkpt lat="28.029037000" lon="-15.724365000">
        <ele>568.10</ele>
        <time>2013-07-19T17:11:16Z</time>
      </trkpt>
      <trkpt lat="28.029160000" lon="-15.724609000">
        <ele>564.30</ele>
        <time>2013-07-19T17:11:21Z</time>
      </trkpt>
      <trkpt lat="28.029495000" lon="-15.724747000">
        <ele>557.00</ele>
        <time>2013-07-19T17:11:27Z</time>
      </trkpt>
      <trkpt lat="28.029633000" lon="-15.725037000">
        <ele>555.30</ele>
        <time>2013-07-19T17:11:33Z</time>
      </trkpt>
      <trkpt lat="28.029633000" lon="-15.725113000">
        <ele>555.50</ele>
        <time>2013-07-19T17:11:46Z</time>
      </trkpt>
      <trkpt lat="28.029602000" lon="-15.725189000">
        <ele>556.40</ele>
        <time>2013-07-19T17:11:51Z</time>
      </trkpt>
      <trkpt lat="28.029495000" lon="-15.725266000">
        <ele>558.20</ele>
        <time>2013-07-19T17:11:56Z</time>
      </trkpt>
      <trkpt lat="28.029388000" lon="-15.725357000">
        <ele>559.90</ele>
        <time>2013-07-19T17:12:01Z</time>
      </trkpt>
      <trkpt lat="28.029266000" lon="-15.725403000">
        <ele>561.70</ele>
        <time>2013-07-19T17:12:07Z</time>
      </trkpt>
      <trkpt lat="28.029144000" lon="-15.725388000">
        <ele>563.60</ele>
        <time>2013-07-19T17:12:12Z</time>
      </trkpt>
      <trkpt lat="28.029007000" lon="-15.725342000">
        <ele>566.80</ele>
        <time>2013-07-19T17:12:18Z</time>
      </trkpt>
      <trkpt lat="28.028870000" lon="-15.725296000">
        <ele>570.00</ele>
        <time>2013-07-19T17:12:24Z</time>
      </trkpt>
      <trkpt lat="28.028748000" lon="-15.725266000">
        <ele>573.20</ele>
        <time>2013-07-19T17:12:30Z</time>
      </trkpt>
      <trkpt lat="28.028641000" lon="-15.725220000">
        <ele>575.90</ele>
        <time>2013-07-19T17:12:35Z</time>
      </trkpt>
      <trkpt lat="28.028503000" lon="-15.725220000">
        <ele>579.40</ele>
        <time>2013-07-19T17:12:41Z</time>
      </trkpt>
      <trkpt lat="28.028442000" lon="-15.725357000">
        <ele>578.70</ele>
        <time>2013-07-19T17:12:47Z</time>
      </trkpt>
      <trkpt lat="28.028519000" lon="-15.725479000">
        <ele>575.80</ele>
        <time>2013-07-19T17:12:52Z</time>
      </trkpt>
      <trkpt lat="28.028580000" lon="-15.725616000">
        <ele>573.30</ele>
        <time>2013-07-19T17:12:58Z</time>
      </trkpt>
      <trkpt lat="28.028549000" lon="-15.725723000">
        <ele>572.60</ele>
        <time>2013-07-19T17:13:04Z</time>
      </trkpt>
      <trkpt lat="28.028458000" lon="-15.725769000">
        <ele>573.70</ele>
        <time>2013-07-19T17:13:09Z</time>
      </trkpt>
      <trkpt lat="28.028351000" lon="-15.725800000">
        <ele>575.00</ele>
        <time>2013-07-19T17:13:15Z</time>
      </trkpt>
      <trkpt lat="28.028275000" lon="-15.725815000">
        <ele>576.60</ele>
        <time>2013-07-19T17:13:20Z</time>
      </trkpt>
      <trkpt lat="28.028183000" lon="-15.725861000">
        <ele>578.50</ele>
        <time>2013-07-19T17:13:26Z</time>
      </trkpt>
      <trkpt lat="28.028076000" lon="-15.725876000">
        <ele>580.70</ele>
        <time>2013-07-19T17:13:32Z</time>
      </trkpt>
      <trkpt lat="28.028000000" lon="-15.725876000">
        <ele>582.70</ele>
        <time>2013-07-19T17:13:38Z</time>
      </trkpt>
      <trkpt lat="28.027954000" lon="-15.725876000">
        <ele>583.70</ele>
        <time>2013-07-19T17:14:05Z</time>
      </trkpt>
      <trkpt lat="28.027847000" lon="-15.725891000">
        <ele>585.90</ele>
        <time>2013-07-19T17:14:10Z</time>
      </trkpt>
      <trkpt lat="28.027740000" lon="-15.725861000">
        <ele>588.90</ele>
        <time>2013-07-19T17:14:16Z</time>
      </trkpt>
      <trkpt lat="28.027618000" lon="-15.725845000">
        <ele>591.90</ele>
        <time>2013-07-19T17:14:22Z</time>
      </trkpt>
      <trkpt lat="28.027527000" lon="-15.725861000">
        <ele>594.00</ele>
        <time>2013-07-19T17:14:27Z</time>
      </trkpt>
      <trkpt lat="28.027435000" lon="-15.725952000">
        <ele>595.40</ele>
        <time>2013-07-19T17:14:33Z</time>
      </trkpt>
      <trkpt lat="28.027405000" lon="-15.726044000">
        <ele>594.90</ele>
        <time>2013-07-19T17:14:38Z</time>
      </trkpt>
      <trkpt lat="28.027359000" lon="-15.726151000">
        <ele>594.80</ele>
        <time>2013-07-19T17:14:44Z</time>
      </trkpt>
      <trkpt lat="28.027283000" lon="-15.726227000">
        <ele>595.80</ele>
        <time>2013-07-19T17:14:49Z</time>
      </trkpt>
      <trkpt lat="28.027206000" lon="-15.726273000">
        <ele>597.10</ele>
        <time>2013-07-19T17:14:54Z</time>
      </trkpt>
      <trkpt lat="28.027115000" lon="-15.726364000">
        <ele>597.90</ele>
        <time>2013-07-19T17:15:00Z</time>
      </trkpt>
      <trkpt lat="28.027069000" lon="-15.726486000">
        <ele>596.60</ele>
        <time>2013-07-19T17:15:06Z</time>
      </trkpt>
      <trkpt lat="28.027100000" lon="-15.726624000">
        <ele>593.40</ele>
        <time>2013-07-19T17:15:11Z</time>
      </trkpt>
      <trkpt lat="28.027069000" lon="-15.726746000">
        <ele>592.20</ele>
        <time>2013-07-19T17:15:16Z</time>
      </trkpt>
      <trkpt lat="28.026962000" lon="-15.726776000">
        <ele>594.10</ele>
        <time>2013-07-19T17:15:22Z</time>
      </trkpt>
      <trkpt lat="28.026871000" lon="-15.726776000">
        <ele>595.90</ele>
        <time>2013-07-19T17:15:27Z</time>
      </trkpt>
      <trkpt lat="28.026794000" lon="-15.726776000">
        <ele>597.60</ele>
        <time>2013-07-19T17:15:32Z</time>
      </trkpt>
      <trkpt lat="28.026703000" lon="-15.726761000">
        <ele>599.50</ele>
        <time>2013-07-19T17:15:37Z</time>
      </trkpt>
      <trkpt lat="28.026611000" lon="-15.726746000">
        <ele>601.70</ele>
        <time>2013-07-19T17:15:43Z</time>
      </trkpt>
      <trkpt lat="28.026535000" lon="-15.726730000">
        <ele>603.50</ele>
        <time>2013-07-19T17:15:48Z</time>
      </trkpt>
      <trkpt lat="28.026443000" lon="-15.726746000">
        <ele>605.00</ele>
        <time>2013-07-19T17:15:54Z</time>
      </trkpt>
      <trkpt lat="28.026398000" lon="-15.726852000">
        <ele>604.20</ele>
        <time>2013-07-19T17:15:59Z</time>
      </trkpt>
      <trkpt lat="28.026398000" lon="-15.726974000">
        <ele>602.10</ele>
        <time>2013-07-19T17:16:05Z</time>
      </trkpt>
      <trkpt lat="28.026367000" lon="-15.727066000">
        <ele>601.10</ele>
        <time>2013-07-19T17:16:10Z</time>
      </trkpt>
      <trkpt lat="28.026337000" lon="-15.727158000">
        <ele>600.20</ele>
        <time>2013-07-19T17:16:15Z</time>
      </trkpt>
      <trkpt lat="28.026306000" lon="-15.727295000">
        <ele>598.60</ele>
        <time>2013-07-19T17:16:21Z</time>
      </trkpt>
      <trkpt lat="28.026321000" lon="-15.727448000">
        <ele>596.00</ele>
        <time>2013-07-19T17:16:27Z</time>
      </trkpt>
      <trkpt lat="28.026413000" lon="-15.727600000">
        <ele>593.40</ele>
        <time>2013-07-19T17:16:33Z</time>
      </trkpt>
      <trkpt lat="28.026581000" lon="-15.727631000">
        <ele>590.00</ele>
        <time>2013-07-19T17:16:39Z</time>
      </trkpt>
      <trkpt lat="28.026718000" lon="-15.727661000">
        <ele>587.50</ele>
        <time>2013-07-19T17:16:44Z</time>
      </trkpt>
      <trkpt lat="28.026840000" lon="-15.727722000">
        <ele>585.50</ele>
        <time>2013-07-19T17:16:49Z</time>
      </trkpt>
      <trkpt lat="28.027008000" lon="-15.727814000">
        <ele>582.60</ele>
        <time>2013-07-19T17:16:55Z</time>
      </trkpt>
      <trkpt lat="28.027161000" lon="-15.727905000">
        <ele>579.90</ele>
        <time>2013-07-19T17:17:00Z</time>
      </trkpt>
      <trkpt lat="28.027313000" lon="-15.728043000">
        <ele>577.00</ele>
        <time>2013-07-19T17:17:06Z</time>
      </trkpt>
      <trkpt lat="28.027405000" lon="-15.728180000">
        <ele>575.00</ele>
        <time>2013-07-19T17:17:11Z</time>
      </trkpt>
      <trkpt lat="28.027420000" lon="-15.728394000">
        <ele>575.50</ele>
        <time>2013-07-19T17:17:17Z</time>
      </trkpt>
      <trkpt lat="28.027313000" lon="-15.728577000">
        <ele>579.80</ele>
        <time>2013-07-19T17:17:23Z</time>
      </trkpt>
      <trkpt lat="28.027176000" lon="-15.728638000">
        <ele>583.20</ele>
        <time>2013-07-19T17:17:28Z</time>
      </trkpt>
      <trkpt lat="28.027039000" lon="-15.728668000">
        <ele>586.60</ele>
        <time>2013-07-19T17:17:34Z</time>
      </trkpt>
      <trkpt lat="28.026886000" lon="-15.728714000">
        <ele>589.80</ele>
        <time>2013-07-19T17:17:40Z</time>
      </trkpt>
      <trkpt lat="28.026764000" lon="-15.728760000">
        <ele>592.90</ele>
        <time>2013-07-19T17:17:46Z</time>
      </trkpt>
      <trkpt lat="28.026627000" lon="-15.728806000">
        <ele>596.00</ele>
        <time>2013-07-19T17:17:52Z</time>
      </trkpt>
      <trkpt lat="28.026535000" lon="-15.728851000">
        <ele>598.30</ele>
        <time>2013-07-19T17:17:57Z</time>
      </trkpt>
      <trkpt lat="28.026459000" lon="-15.728912000">
        <ele>600.60</ele>
        <time>2013-07-19T17:18:03Z</time>
      </trkpt>
      <trkpt lat="28.026398000" lon="-15.728958000">
        <ele>602.70</ele>
        <time>2013-07-19T17:18:08Z</time>
      </trkpt>
      <trkpt lat="28.026306000" lon="-15.729034000">
        <ele>605.60</ele>
        <time>2013-07-19T17:18:14Z</time>
      </trkpt>
      <trkpt lat="28.026215000" lon="-15.729111000">
        <ele>608.70</ele>
        <time>2013-07-19T17:18:20Z</time>
      </trkpt>
      <trkpt lat="28.026138000" lon="-15.729202000">
        <ele>610.90</ele>
        <time>2013-07-19T17:18:25Z</time>
      </trkpt>
      <trkpt lat="28.026077000" lon="-15.729324000">
        <ele>611.80</ele>
        <time>2013-07-19T17:18:31Z</time>
      </trkpt>
      <trkpt lat="28.026031000" lon="-15.729446000">
        <ele>612.10</ele>
        <time>2013-07-19T17:18:36Z</time>
      </trkpt>
      <trkpt lat="28.026031000" lon="-15.729568000">
        <ele>611.30</ele>
        <time>2013-07-19T17:18:41Z</time>
      </trkpt>
      <trkpt lat="28.026169000" lon="-15.729675000">
        <ele>608.20</ele>
        <time>2013-07-19T17:18:47Z</time>
      </trkpt>
      <trkpt lat="28.026306000" lon="-15.729706000">
        <ele>605.00</ele>
        <time>2013-07-19T17:18:53Z</time>
      </trkpt>
      <trkpt lat="28.026382000" lon="-15.729797000">
        <ele>603.10</ele>
        <time>2013-07-19T17:18:58Z</time>
      </trkpt>
      <trkpt lat="28.026459000" lon="-15.729904000">
        <ele>601.40</ele>
        <time>2013-07-19T17:19:03Z</time>
      </trkpt>
      <trkpt lat="28.026520000" lon="-15.730042000">
        <ele>600.20</ele>
        <time>2013-07-19T17:19:09Z</time>
      </trkpt>
      <trkpt lat="28.026611000" lon="-15.730194000">
        <ele>599.90</ele>
        <time>2013-07-19T17:19:15Z</time>
      </trkpt>
      <trkpt lat="28.026718000" lon="-15.730316000">
        <ele>599.40</ele>
        <time>2013-07-19T17:19:21Z</time>
      </trkpt>
      <trkpt lat="28.026749000" lon="-15.730438000">
        <ele>600.20</ele>
        <time>2013-07-19T17:19:26Z</time>
      </trkpt>
      <trkpt lat="28.026749000" lon="-15.730621000">
        <ele>602.10</ele>
        <time>2013-07-19T17:19:32Z</time>
      </trkpt>
      <trkpt lat="28.026749000" lon="-15.730820000">
        <ele>604.20</ele>
        <time>2013-07-19T17:19:37Z</time>
      </trkpt>
      <trkpt lat="28.026703000" lon="-15.731125000">
        <ele>605.60</ele>
        <time>2013-07-19T17:19:42Z</time>
      </trkpt>
      <trkpt lat="28.026413000" lon="-15.731461000">
        <ele>611.10</ele>
        <time>2013-07-19T17:19:48Z</time>
      </trkpt>
      <trkpt lat="28.026031000" lon="-15.731628000">
        <ele>619.10</ele>
        <time>2013-07-19T17:19:53Z</time>
      </trkpt>
      <trkpt lat="28.026031000" lon="-15.731873000">
        <ele>616.40</ele>
        <time>2013-07-19T17:19:59Z</time>
      </trkpt>
      <trkpt lat="28.026215000" lon="-15.732025000">
        <ele>610.10</ele>
        <time>2013-07-19T17:20:04Z</time>
      </trkpt>
      <trkpt lat="28.026489000" lon="-15.732193000">
        <ele>601.30</ele>
        <time>2013-07-19T17:20:10Z</time>
      </trkpt>
      <trkpt lat="28.026703000" lon="-15.732330000">
        <ele>594.20</ele>
        <time>2013-07-19T17:20:15Z</time>
      </trkpt>
      <trkpt lat="28.026901000" lon="-15.732544000">
        <ele>591.50</ele>
        <time>2013-07-19T17:20:20Z</time>
      </trkpt>
      <trkpt lat="28.027039000" lon="-15.732864000">
        <ele>588.90</ele>
        <time>2013-07-19T17:20:26Z</time>
      </trkpt>
      <trkpt lat="28.026932000" lon="-15.733185000">
        <ele>588.80</ele>
        <time>2013-07-19T17:20:32Z</time>
      </trkpt>
      <trkpt lat="28.026917000" lon="-15.733459000">
        <ele>590.20</ele>
        <time>2013-07-19T17:20:37Z</time>
      </trkpt>
      <trkpt lat="28.026947000" lon="-15.733780000">
        <ele>591.70</ele>
        <time>2013-07-19T17:20:43Z</time>
      </trkpt>
      <trkpt lat="28.027008000" lon="-15.734039000">
        <ele>591.60</ele>
        <time>2013-07-19T17:20:48Z</time>
      </trkpt>
      <trkpt lat="28.026993000" lon="-15.734329000">
        <ele>594.40</ele>
        <time>2013-07-19T17:20:54Z</time>
      </trkpt>
      <trkpt lat="28.026962000" lon="-15.734573000">
        <ele>596.00</ele>
        <time>2013-07-19T17:20:59Z</time>
      </trkpt>
      <trkpt lat="28.026962000" lon="-15.734863000">
        <ele>597.20</ele>
        <time>2013-07-19T17:21:05Z</time>
      </trkpt>
      <trkpt lat="28.026947000" lon="-15.735107000">
        <ele>597.90</ele>
        <time>2013-07-19T17:21:11Z</time>
      </trkpt>
      <trkpt lat="28.026947000" lon="-15.735397000">
        <ele>597.70</ele>
        <time>2013-07-19T17:21:17Z</time>
      </trkpt>
      <trkpt lat="28.026871000" lon="-15.735687000">
        <ele>599.10</ele>
        <time>2013-07-19T17:21:22Z</time>
      </trkpt>
      <trkpt lat="28.026749000" lon="-15.736008000">
        <ele>599.40</ele>
        <time>2013-07-19T17:21:27Z</time>
      </trkpt>
      <trkpt lat="28.026505000" lon="-15.736221000">
        <ele>603.70</ele>
        <time>2013-07-19T17:21:32Z</time>
      </trkpt>
      <trkpt lat="28.026138000" lon="-15.736374000">
        <ele>612.90</ele>
        <time>2013-07-19T17:21:38Z</time>
      </trkpt>
      <trkpt lat="28.025803000" lon="-15.736404000">
        <ele>622.30</ele>
        <time>2013-07-19T17:21:43Z</time>
      </trkpt>
      <trkpt lat="28.025497000" lon="-15.736328000">
        <ele>630.40</ele>
        <time>2013-07-19T17:21:48Z</time>
      </trkpt>
      <trkpt lat="28.025421000" lon="-15.736572000">
        <ele>621.10</ele>
        <time>2013-07-19T17:21:54Z</time>
      </trkpt>
      <trkpt lat="28.025574000" lon="-15.736847000">
        <ele>610.00</ele>
        <time>2013-07-19T17:22:00Z</time>
      </trkpt>
      <trkpt lat="28.025681000" lon="-15.737183000">
        <ele>597.50</ele>
        <time>2013-07-19T17:22:06Z</time>
      </trkpt>
      <trkpt lat="28.025833000" lon="-15.737457000">
        <ele>583.50</ele>
        <time>2013-07-19T17:22:12Z</time>
      </trkpt>
      <trkpt lat="28.026093000" lon="-15.737625000">
        <ele>577.50</ele>
        <time>2013-07-19T17:22:18Z</time>
      </trkpt>
      <trkpt lat="28.026184000" lon="-15.737885000">
        <ele>577.20</ele>
        <time>2013-07-19T17:22:24Z</time>
      </trkpt>
      <trkpt lat="28.026260000" lon="-15.738205000">
        <ele>577.30</ele>
        <time>2013-07-19T17:22:30Z</time>
      </trkpt>
      <trkpt lat="28.026428000" lon="-15.738327000">
        <ele>573.90</ele>
        <time>2013-07-19T17:22:35Z</time>
      </trkpt>
      <trkpt lat="28.026596000" lon="-15.738312000">
        <ele>569.70</ele>
        <time>2013-07-19T17:22:40Z</time>
      </trkpt>
      <trkpt lat="28.026657000" lon="-15.738434000">
        <ele>570.20</ele>
        <time>2013-07-19T17:22:45Z</time>
      </trkpt>
      <trkpt lat="28.026550000" lon="-15.738617000">
        <ele>575.80</ele>
        <time>2013-07-19T17:22:51Z</time>
      </trkpt>
      <trkpt lat="28.026489000" lon="-15.738800000">
        <ele>581.00</ele>
        <time>2013-07-19T17:22:57Z</time>
      </trkpt>
      <trkpt lat="28.026443000" lon="-15.738968000">
        <ele>585.50</ele>
        <time>2013-07-19T17:23:02Z</time>
      </trkpt>
      <trkpt lat="28.026337000" lon="-15.739166000">
        <ele>592.40</ele>
        <time>2013-07-19T17:23:08Z</time>
      </trkpt>
      <trkpt lat="28.026276000" lon="-15.739380000">
        <ele>594.20</ele>
        <time>2013-07-19T17:23:14Z</time>
      </trkpt>
      <trkpt lat="28.026199000" lon="-15.739578000">
        <ele>596.70</ele>
        <time>2013-07-19T17:23:20Z</time>
      </trkpt>
      <trkpt lat="28.026108000" lon="-15.739731000">
        <ele>599.80</ele>
        <time>2013-07-19T17:23:25Z</time>
      </trkpt>
      <trkpt lat="28.026031000" lon="-15.739914000">
        <ele>602.90</ele>
        <time>2013-07-19T17:23:31Z</time>
      </trkpt>
      <trkpt lat="28.025879000" lon="-15.740036000">
        <ele>608.40</ele>
        <time>2013-07-19T17:23:37Z</time>
      </trkpt>
      <trkpt lat="28.025696000" lon="-15.740097000">
        <ele>614.70</ele>
        <time>2013-07-19T17:23:43Z</time>
      </trkpt>
      <trkpt lat="28.025558000" lon="-15.740204000">
        <ele>619.30</ele>
        <time>2013-07-19T17:23:49Z</time>
      </trkpt>
      <trkpt lat="28.025436000" lon="-15.740326000">
        <ele>622.10</ele>
        <time>2013-07-19T17:23:55Z</time>
      </trkpt>
      <trkpt lat="28.025467000" lon="-15.740494000">
        <ele>616.70</ele>
        <time>2013-07-19T17:24:00Z</time>
      </trkpt>
      <trkpt lat="28.025497000" lon="-15.740677000">
        <ele>611.40</ele>
        <time>2013-07-19T17:24:06Z</time>
      </trkpt>
      <trkpt lat="28.025482000" lon="-15.740768000">
        <ele>609.80</ele>
        <time>2013-07-19T17:24:11Z</time>
      </trkpt>
      <trkpt lat="28.025436000" lon="-15.740799000">
        <ele>611.30</ele>
        <time>2013-07-19T17:24:17Z</time>
      </trkpt>
      <trkpt lat="28.025391000" lon="-15.740799000">
        <ele>613.60</ele>
        <time>2013-07-19T17:24:23Z</time>
      </trkpt>
      <trkpt lat="28.025345000" lon="-15.740845000">
        <ele>614.50</ele>
        <time>2013-07-19T17:24:28Z</time>
      </trkpt>
      <trkpt lat="28.025375000" lon="-15.740891000">
        <ele>613.00</ele>
        <time>2013-07-19T17:24:34Z</time>
      </trkpt>
      <trkpt lat="28.025330000" lon="-15.740875000">
        <ele>615.20</ele>
        <time>2013-07-19T17:24:44Z</time>
      </trkpt>
      <trkpt lat="28.024673000" lon="-15.741364000">
        <ele>614.10</ele>
        <time>2013-07-19T17:25:31Z</time>
      </trkpt>
      <trkpt lat="28.024475000" lon="-15.741455000">
        <ele>613.90</ele>
        <time>2013-07-19T17:25:40Z</time>
      </trkpt>
      <trkpt lat="28.024719000" lon="-15.741837000">
        <ele>613.50</ele>
        <time>2013-07-19T17:25:56Z</time>
      </trkpt>
      <trkpt lat="28.025742000" lon="-15.741592000">
        <ele>612.60</ele>
        <time>2013-07-19T17:26:36Z</time>
      </trkpt>
      <trkpt lat="28.024719000" lon="-15.742294000">
        <ele>608.80</ele>
        <time>2013-07-19T17:29:21Z</time>
      </trkpt>
      <trkpt lat="28.024811000" lon="-15.742661000">
        <ele>607.70</ele>
        <time>2013-07-19T17:30:08Z</time>
      </trkpt>
      <trkpt lat="28.025040000" lon="-15.742401000">
        <ele>606.70</ele>
        <time>2013-07-19T17:30:51Z</time>
      </trkpt>
      <trkpt lat="28.025757000" lon="-15.742706000">
        <ele>604.40</ele>
        <time>2013-07-19T17:32:34Z</time>
      </trkpt>
      <trkpt lat="28.025940000" lon="-15.742706000">
        <ele>603.80</ele>
        <time>2013-07-19T17:32:58Z</time>
      </trkpt>
      <trkpt lat="28.026062000" lon="-15.743088000">
        <ele>602.70</ele>
        <time>2013-07-19T17:33:46Z</time>
      </trkpt>
      <trkpt lat="28.025833000" lon="-15.743500000">
        <ele>601.40</ele>
        <time>2013-07-19T17:34:42Z</time>
      </trkpt>
      <trkpt lat="28.025406000" lon="-15.743851000">
        <ele>599.90</ele>
        <time>2013-07-19T17:35:49Z</time>
      </trkpt>
      <trkpt lat="28.025406000" lon="-15.744171000">
        <ele>599.00</ele>
        <time>2013-07-19T17:36:25Z</time>
      </trkpt>
      <trkpt lat="28.025574000" lon="-15.744110000">
        <ele>598.50</ele>
        <time>2013-07-19T17:36:47Z</time>
      </trkpt>
      <trkpt lat="28.025787000" lon="-15.744110000">
        <ele>597.90</ele>
        <time>2013-07-19T17:37:14Z</time>
      </trkpt>
      <trkpt lat="28.026062000" lon="-15.744339000">
        <ele>597.00</ele>
        <time>2013-07-19T17:37:56Z</time>
      </trkpt>
      <trkpt lat="28.026276000" lon="-15.744247000">
        <ele>596.30</ele>
        <time>2013-07-19T17:38:24Z</time>
      </trkpt>
      <trkpt lat="28.026413000" lon="-15.744034000">
        <ele>595.70</ele>
        <time>2013-07-19T17:38:52Z</time>
      </trkpt>
      <trkpt lat="28.026962000" lon="-15.743851000">
        <ele>594.10</ele>
        <time>2013-07-19T17:39:59Z</time>
      </trkpt>
      <trkpt lat="28.027222000" lon="-15.743484000">
        <ele>593.00</ele>
        <time>2013-07-19T17:40:46Z</time>
      </trkpt>
      <trkpt lat="28.027374000" lon="-15.743210000">
        <ele>592.30</ele>
        <time>2013-07-19T17:41:17Z</time>
      </trkpt>
      <trkpt lat="28.027756000" lon="-15.742935000">
        <ele>591.20</ele>
        <time>2013-07-19T17:42:05Z</time>
      </trkpt>
      <trkpt lat="28.028381000" lon="-15.743317000">
        <ele>589.50</ele>
        <time>2013-07-19T17:43:20Z</time>
      </trkpt>
      <trkpt lat="28.028488000" lon="-15.743591000">
        <ele>588.80</ele>
        <time>2013-07-19T17:43:48Z</time>
      </trkpt>
      <trkpt lat="28.028351000" lon="-15.744110000">
        <ele>587.70</ele>
        <time>2013-07-19T17:44:38Z</time>
      </trkpt>
      <trkpt lat="28.028336000" lon="-15.744446000">
        <ele>587.00</ele>
        <time>2013-07-19T17:45:09Z</time>
      </trkpt>
      <trkpt lat="28.028412000" lon="-15.744705000">
        <ele>586.40</ele>
        <time>2013-07-19T17:45:34Z</time>
      </trkpt>
      <trkpt lat="28.028290000" lon="-15.745163000">
        <ele>585.40</ele>
        <time>2013-07-19T17:46:18Z</time>
      </trkpt>
      <trkpt lat="28.028015000" lon="-15.745468000">
        <ele>584.50</ele>
        <time>2013-07-19T17:46:56Z</time>
      </trkpt>
      <trkpt lat="28.027893000" lon="-15.746078000">
        <ele>583.30</ele>
        <time>2013-07-19T17:47:51Z</time>
      </trkpt>
      <trkpt lat="28.027863000" lon="-15.746597000">
        <ele>582.20</ele>
        <time>2013-07-19T17:48:36Z</time>
      </trkpt>
      <trkpt lat="28.027679000" lon="-15.746826000">
        <ele>581.60</ele>
        <time>2013-07-19T17:49:03Z</time>
      </trkpt>
      <trkpt lat="28.027359000" lon="-15.746689000">
        <ele>580.90</ele>
        <time>2013-07-19T17:49:34Z</time>
      </trkpt>
      <trkpt lat="28.027145000" lon="-15.746811000">
        <ele>580.40</ele>
        <time>2013-07-19T17:49:56Z</time>
      </trkpt>
      <trkpt lat="28.027283000" lon="-15.747360000">
        <ele>579.40</ele>
        <time>2013-07-19T17:50:41Z</time>
      </trkpt>
      <trkpt lat="28.027405000" lon="-15.747635000">
        <ele>578.80</ele>
        <time>2013-07-19T17:51:05Z</time>
      </trkpt>
      <trkpt lat="28.027618000" lon="-15.747574000">
        <ele>578.30</ele>
        <time>2013-07-19T17:51:24Z</time>
      </trkpt>
      <trkpt lat="28.027954000" lon="-15.747604000">
        <ele>577.70</ele>
        <time>2013-07-19T17:51:54Z</time>
      </trkpt>
      <trkpt lat="28.028275000" lon="-15.747894000">
        <ele>576.80</ele>
        <time>2013-07-19T17:52:30Z</time>
      </trkpt>
      <trkpt lat="28.028717000" lon="-15.747528000">
        <ele>575.80</ele>
        <time>2013-07-19T17:53:15Z</time>
      </trkpt>
      <trkpt lat="28.029373000" lon="-15.747238000">
        <ele>574.50</ele>
        <time>2013-07-19T17:54:11Z</time>
      </trkpt>
      <trkpt lat="28.029694000" lon="-15.747238000">
        <ele>573.90</ele>
        <time>2013-07-19T17:54:36Z</time>
      </trkpt>
      <trkpt lat="28.029907000" lon="-15.747269000">
        <ele>573.60</ele>
        <time>2013-07-19T17:54:52Z</time>
      </trkpt>
      <trkpt lat="28.030075000" lon="-15.747025000">
        <ele>573.10</ele>
        <time>2013-07-19T17:55:13Z</time>
      </trkpt>
      <trkpt lat="28.030838000" lon="-15.746475000">
        <ele>571.70</ele>
        <time>2013-07-19T17:56:14Z</time>
      </trkpt>
      <trkpt lat="28.031067000" lon="-15.746445000">
        <ele>571.30</ele>
        <time>2013-07-19T17:56:29Z</time>
      </trkpt>
      <trkpt lat="28.031250000" lon="-15.746628000">
        <ele>571.00</ele>
        <time>2013-07-19T17:56:45Z</time>
      </trkpt>
      <trkpt lat="28.031784000" lon="-15.746780000">
        <ele>570.10</ele>
        <time>2013-07-19T17:57:21Z</time>
      </trkpt>
      <trkpt lat="28.032074000" lon="-15.746948000">
        <ele>569.70</ele>
        <time>2013-07-19T17:57:42Z</time>
      </trkpt>
      <trkpt lat="28.032623000" lon="-15.747528000">
        <ele>568.60</ele>
        <time>2013-07-19T17:58:29Z</time>
      </trkpt>
      <trkpt lat="28.032959000" lon="-15.747223000">
        <ele>568.00</ele>
        <time>2013-07-19T17:58:55Z</time>
      </trkpt>
      <trkpt lat="28.033585000" lon="-15.746979000">
        <ele>567.10</ele>
        <time>2013-07-19T17:59:31Z</time>
      </trkpt>
      <trkpt lat="28.034210000" lon="-15.746750000">
        <ele>566.40</ele>
        <time>2013-07-19T18:00:04Z</time>
      </trkpt>
      <trkpt lat="28.034714000" lon="-15.746536000">
        <ele>565.80</ele>
        <time>2013-07-19T18:00:30Z</time>
      </trkpt>
      <trkpt lat="28.035080000" lon="-15.746399000">
        <ele>565.40</ele>
        <time>2013-07-19T18:00:47Z</time>
      </trkpt>
      <trkpt lat="28.035065000" lon="-15.746628000">
        <ele>565.20</ele>
        <time>2013-07-19T18:00:56Z</time>
      </trkpt>
      <trkpt lat="28.034683000" lon="-15.746964000">
        <ele>564.70</ele>
        <time>2013-07-19T18:01:17Z</time>
      </trkpt>
      <trkpt lat="28.034470000" lon="-15.747559000">
        <ele>564.10</ele>
        <time>2013-07-19T18:01:42Z</time>
      </trkpt>
      <trkpt lat="28.034225000" lon="-15.748230000">
        <ele>563.50</ele>
        <time>2013-07-19T18:02:10Z</time>
      </trkpt>
      <trkpt lat="28.034225000" lon="-15.749390000">
        <ele>562.50</ele>
        <time>2013-07-19T18:02:54Z</time>
      </trkpt>
      <trkpt lat="28.034302000" lon="-15.750046000">
        <ele>561.90</ele>
        <time>2013-07-19T18:03:19Z</time>
      </trkpt>
      <trkpt lat="28.034515000" lon="-15.750259000">
        <ele>561.60</ele>
        <time>2013-07-19T18:03:31Z</time>
      </trkpt>
      <trkpt lat="28.034576000" lon="-15.750809000">
        <ele>561.10</ele>
        <time>2013-07-19T18:03:52Z</time>
      </trkpt>
      <trkpt lat="28.034409000" lon="-15.751312000">
        <ele>560.70</ele>
        <time>2013-07-19T18:04:12Z</time>
      </trkpt>
      <trkpt lat="28.034515000" lon="-15.751663000">
        <ele>560.30</ele>
        <time>2013-07-19T18:04:26Z</time>
      </trkpt>
      <trkpt lat="28.034714000" lon="-15.751694000">
        <ele>560.20</ele>
        <time>2013-07-19T18:04:35Z</time>
      </trkpt>
      <trkpt lat="28.034744000" lon="-15.751968000">
        <ele>559.90</ele>
        <time>2013-07-19T18:04:45Z</time>
      </trkpt>
      <trkpt lat="28.034683000" lon="-15.752182000">
        <ele>559.70</ele>
        <time>2013-07-19T18:04:53Z</time>
      </trkpt>
      <trkpt lat="28.034256000" lon="-15.752060000">
        <ele>559.40</ele>
        <time>2013-07-19T18:05:09Z</time>
      </trkpt>
      <trkpt lat="28.033936000" lon="-15.751740000">
        <ele>559.10</ele>
        <time>2013-07-19T18:05:22Z</time>
      </trkpt>
      <trkpt lat="28.033585000" lon="-15.751801000">
        <ele>558.80</ele>
        <time>2013-07-19T18:05:33Z</time>
      </trkpt>
      <trkpt lat="28.033356000" lon="-15.751541000">
        <ele>558.60</ele>
        <time>2013-07-19T18:05:41Z</time>
      </trkpt>
      <trkpt lat="28.033112000" lon="-15.751572000">
        <ele>558.50</ele>
        <time>2013-07-19T18:05:48Z</time>
      </trkpt>
      <trkpt lat="28.033112000" lon="-15.751862000">
        <ele>558.30</ele>
        <time>2013-07-19T18:05:54Z</time>
      </trkpt>
      <trkpt lat="28.032837000" lon="-15.752136000">
        <ele>558.10</ele>
        <time>2013-07-19T18:06:03Z</time>
      </trkpt>
      <trkpt lat="28.032944000" lon="-15.752823000">
        <ele>557.80</ele>
        <time>2013-07-19T18:06:18Z</time>
      </trkpt>
      <trkpt lat="28.032410000" lon="-15.753265000">
        <ele>557.50</ele>
        <time>2013-07-19T18:06:32Z</time>
      </trkpt>
      <trkpt lat="28.032684000" lon="-15.753799000">
        <ele>557.20</ele>
        <time>2013-07-19T18:06:44Z</time>
      </trkpt>
      <trkpt lat="28.033081000" lon="-15.754135000">
        <ele>556.90</ele>
        <time>2013-07-19T18:06:54Z</time>
      </trkpt>
      <trkpt lat="28.033051000" lon="-15.754471000">
        <ele>556.80</ele>
        <time>2013-07-19T18:07:00Z</time>
      </trkpt>
      <trkpt lat="28.032639000" lon="-15.755005000">
        <ele>556.50</ele>
        <time>2013-07-19T18:07:11Z</time>
      </trkpt>
      <trkpt lat="28.032394000" lon="-15.755188000">
        <ele>556.40</ele>
        <time>2013-07-19T18:07:16Z</time>
      </trkpt>
      <trkpt lat="28.032471000" lon="-15.755478000">
        <ele>556.30</ele>
        <time>2013-07-19T18:07:20Z</time>
      </trkpt>
      <trkpt lat="28.032333000" lon="-15.755875000">
        <ele>556.20</ele>
        <time>2013-07-19T18:07:26Z</time>
      </trkpt>
      <trkpt lat="28.032455000" lon="-15.755997000">
        <ele>556.20</ele>
        <time>2013-07-19T18:07:28Z</time>
      </trkpt>
      <trkpt lat="28.032867000" lon="-15.755951000">
        <ele>556.00</ele>
        <time>2013-07-19T18:07:34Z</time>
      </trkpt>
      <trkpt lat="28.033203000" lon="-15.756012000">
        <ele>555.90</ele>
        <time>2013-07-19T18:07:39Z</time>
      </trkpt>
      <trkpt lat="28.033600000" lon="-15.756271000">
        <ele>555.80</ele>
        <time>2013-07-19T18:07:45Z</time>
      </trkpt>
      <trkpt lat="28.033691000" lon="-15.756332000">
        <ele>555.70</ele>
        <time>2013-07-19T18:07:46Z</time>
      </trkpt>
      <trkpt lat="28.034042000" lon="-15.756165000">
        <ele>555.60</ele>
        <time>2013-07-19T18:07:51Z</time>
      </trkpt>
      <trkpt lat="28.034500000" lon="-15.756363000">
        <ele>555.50</ele>
        <time>2013-07-19T18:07:56Z</time>
      </trkpt>
      <trkpt lat="28.034698000" lon="-15.756760000">
        <ele>555.40</ele>
        <time>2013-07-19T18:08:00Z</time>
      </trkpt>
      <trkpt lat="28.034821000" lon="-15.756958000">
        <ele>555.40</ele>
        <time>2013-07-19T18:08:02Z</time>
      </trkpt>
      <trkpt lat="28.034424000" lon="-15.757538000">
        <ele>555.30</ele>
        <time>2013-07-19T18:08:06Z</time>
      </trkpt>
      <trkpt lat="28.034500000" lon="-15.757645000">
        <ele>555.30</ele>
        <time>2013-07-19T18:08:06Z</time>
      </trkpt>
      <trkpt lat="28.034775000" lon="-15.757202000">
        <ele>555.30</ele>
        <time>2013-07-19T18:08:07Z</time>
      </trkpt>
      <trkpt lat="28.034653000" lon="-15.757690000">
        <ele>555.30</ele>
        <time>2013-07-19T18:08:07Z</time>
      </trkpt>
      <trkpt lat="28.034775000" lon="-15.757568000">
        <ele>555.30</ele>
        <time>2013-07-19T18:08:08Z</time>
      </trkpt>
      <trkpt lat="28.034805000" lon="-15.757614000">
        <ele>553.20</ele>
        <time>2013-07-19T18:09:06Z</time>
      </trkpt>
      <trkpt lat="28.034866000" lon="-15.757584000">
        <ele>549.20</ele>
        <time>2013-07-19T18:09:12Z</time>
      </trkpt>
      <trkpt lat="28.035126000" lon="-15.757278000">
        <ele>527.70</ele>
        <time>2013-07-19T18:09:18Z</time>
      </trkpt>
      <trkpt lat="28.035233000" lon="-15.757034000">
        <ele>514.90</ele>
        <time>2013-07-19T18:09:24Z</time>
      </trkpt>
      <trkpt lat="28.035202000" lon="-15.756714000">
        <ele>508.80</ele>
        <time>2013-07-19T18:09:29Z</time>
      </trkpt>
      <trkpt lat="28.035156000" lon="-15.756287000">
        <ele>497.80</ele>
        <time>2013-07-19T18:09:34Z</time>
      </trkpt>
      <trkpt lat="28.034943000" lon="-15.755829000">
        <ele>491.60</ele>
        <time>2013-07-19T18:09:40Z</time>
      </trkpt>
      <trkpt lat="28.034454000" lon="-15.755569000">
        <ele>508.80</ele>
        <time>2013-07-19T18:09:46Z</time>
      </trkpt>
      <trkpt lat="28.034042000" lon="-15.755386000">
        <ele>525.20</ele>
        <time>2013-07-19T18:09:51Z</time>
      </trkpt>
      <trkpt lat="28.034027000" lon="-15.754944000">
        <ele>530.30</ele>
        <time>2013-07-19T18:09:57Z</time>
      </trkpt>
      <trkpt lat="28.034271000" lon="-15.754517000">
        <ele>533.40</ele>
        <time>2013-07-19T18:10:02Z</time>
      </trkpt>
      <trkpt lat="28.034103000" lon="-15.753876000">
        <ele>559.40</ele>
        <time>2013-07-19T18:10:08Z</time>
      </trkpt>
      <trkpt lat="28.034393000" lon="-15.753738000">
        <ele>566.10</ele>
        <time>2013-07-19T18:10:13Z</time>
      </trkpt>
      <trkpt lat="28.034851000" lon="-15.754028000">
        <ele>552.50</ele>
        <time>2013-07-19T18:10:19Z</time>
      </trkpt>
      <trkpt lat="28.035477000" lon="-15.754013000">
        <ele>536.90</ele>
        <time>2013-07-19T18:10:25Z</time>
      </trkpt>
      <trkpt lat="28.035995000" lon="-15.753983000">
        <ele>515.20</ele>
        <time>2013-07-19T18:10:30Z</time>
      </trkpt>
      <trkpt lat="28.036362000" lon="-15.753494000">
        <ele>498.80</ele>
        <time>2013-07-19T18:10:36Z</time>
      </trkpt>
      <trkpt lat="28.036667000" lon="-15.753143000">
        <ele>475.30</ele>
        <time>2013-07-19T18:10:41Z</time>
      </trkpt>
      <trkpt lat="28.036728000" lon="-15.752548000">
        <ele>460.60</ele>
        <time>2013-07-19T18:10:47Z</time>
      </trkpt>
      <trkpt lat="28.036499000" lon="-15.751907000">
        <ele>479.40</ele>
        <time>2013-07-19T18:10:53Z</time>
      </trkpt>
      <trkpt lat="28.036575000" lon="-15.751404000">
        <ele>469.70</ele>
        <time>2013-07-19T18:10:58Z</time>
      </trkpt>
      <trkpt lat="28.036850000" lon="-15.751083000">
        <ele>443.80</ele>
        <time>2013-07-19T18:11:04Z</time>
      </trkpt>
      <trkpt lat="28.036652000" lon="-15.750504000">
        <ele>466.40</ele>
        <time>2013-07-19T18:11:09Z</time>
      </trkpt>
      <trkpt lat="28.036484000" lon="-15.750015000">
        <ele>498.90</ele>
        <time>2013-07-19T18:11:14Z</time>
      </trkpt>
      <trkpt lat="28.036758000" lon="-15.749496000">
        <ele>518.00</ele>
        <time>2013-07-19T18:11:20Z</time>
      </trkpt>
      <trkpt lat="28.037186000" lon="-15.749268000">
        <ele>509.90</ele>
        <time>2013-07-19T18:11:26Z</time>
      </trkpt>
      <trkpt lat="28.037750000" lon="-15.749298000">
        <ele>470.70</ele>
        <time>2013-07-19T18:11:31Z</time>
      </trkpt>
      <trkpt lat="28.038269000" lon="-15.749298000">
        <ele>427.10</ele>
        <time>2013-07-19T18:11:37Z</time>
      </trkpt>
      <trkpt lat="28.038315000" lon="-15.748734000">
        <ele>436.90</ele>
        <time>2013-07-19T18:11:43Z</time>
      </trkpt>
      <trkpt lat="28.038208000" lon="-15.748138000">
        <ele>469.10</ele>
        <time>2013-07-19T18:11:48Z</time>
      </trkpt>
      <trkpt lat="28.038589000" lon="-15.747696000">
        <ele>452.90</ele>
        <time>2013-07-19T18:11:53Z</time>
      </trkpt>
      <trkpt lat="28.039017000" lon="-15.747070000">
        <ele>437.20</ele>
        <time>2013-07-19T18:11:59Z</time>
      </trkpt>
      <trkpt lat="28.039154000" lon="-15.746399000">
        <ele>443.70</ele>
        <time>2013-07-19T18:12:04Z</time>
      </trkpt>
      <trkpt lat="28.039505000" lon="-15.745987000">
        <ele>431.60</ele>
        <time>2013-07-19T18:12:09Z</time>
      </trkpt>
      <trkpt lat="28.039795000" lon="-15.745605000">
        <ele>417.70</ele>
        <time>2013-07-19T18:12:14Z</time>
      </trkpt>
      <trkpt lat="28.040222000" lon="-15.745270000">
        <ele>390.80</ele>
        <time>2013-07-19T18:12:20Z</time>
      </trkpt>
      <trkpt lat="28.040756000" lon="-15.744843000">
        <ele>355.70</ele>
        <time>2013-07-19T18:12:26Z</time>
      </trkpt>
      <trkpt lat="28.041092000" lon="-15.744583000">
        <ele>333.00</ele>
        <time>2013-07-19T18:12:32Z</time>
      </trkpt>
      <trkpt lat="28.040604000" lon="-15.744415000">
        <ele>334.90</ele>
        <time>2013-07-19T18:12:38Z</time>
      </trkpt>
      <trkpt lat="28.040192000" lon="-15.744141000">
        <ele>332.20</ele>
        <time>2013-07-19T18:12:43Z</time>
      </trkpt>
      <trkpt lat="28.039612000" lon="-15.743774000">
        <ele>354.10</ele>
        <time>2013-07-19T18:12:49Z</time>
      </trkpt>
      <trkpt lat="28.039444000" lon="-15.743393000">
        <ele>350.60</ele>
        <time>2013-07-19T18:12:54Z</time>
      </trkpt>
      <trkpt lat="28.039322000" lon="-15.742874000">
        <ele>338.70</ele>
        <time>2013-07-19T18:12:59Z</time>
      </trkpt>
      <trkpt lat="28.039276000" lon="-15.742371000">
        <ele>322.90</ele>
        <time>2013-07-19T18:13:04Z</time>
      </trkpt>
      <trkpt lat="28.038956000" lon="-15.741852000">
        <ele>322.90</ele>
        <time>2013-07-19T18:13:09Z</time>
      </trkpt>
      <trkpt lat="28.038574000" lon="-15.741333000">
        <ele>321.40</ele>
        <time>2013-07-19T18:13:15Z</time>
      </trkpt>
      <trkpt lat="28.038483000" lon="-15.740768000">
        <ele>301.40</ele>
        <time>2013-07-19T18:13:21Z</time>
      </trkpt>
      <trkpt lat="28.038055000" lon="-15.740723000">
        <ele>310.20</ele>
        <time>2013-07-19T18:13:26Z</time>
      </trkpt>
      <trkpt lat="28.037735000" lon="-15.740189000">
        <ele>292.80</ele>
        <time>2013-07-19T18:13:31Z</time>
      </trkpt>
      <trkpt lat="28.037338000" lon="-15.740067000">
        <ele>291.60</ele>
        <time>2013-07-19T18:13:36Z</time>
      </trkpt>
      <trkpt lat="28.036621000" lon="-15.740005000">
        <ele>286.10</ele>
        <time>2013-07-19T18:13:42Z</time>
      </trkpt>
      <trkpt lat="28.035950000" lon="-15.739655000">
        <ele>281.90</ele>
        <time>2013-07-19T18:13:48Z</time>
      </trkpt>
      <trkpt lat="28.035507000" lon="-15.739319000">
        <ele>271.00</ele>
        <time>2013-07-19T18:13:53Z</time>
      </trkpt>
      <trkpt lat="28.035110000" lon="-15.739563000">
        <ele>283.00</ele>
        <time>2013-07-19T18:13:58Z</time>
      </trkpt>
      <trkpt lat="28.034576000" lon="-15.739609000">
        <ele>276.50</ele>
        <time>2013-07-19T18:14:03Z</time>
      </trkpt>
      <trkpt lat="28.033768000" lon="-15.739838000">
        <ele>278.10</ele>
        <time>2013-07-19T18:14:12Z</time>
      </trkpt>
      <trkpt lat="28.033295000" lon="-15.739716000">
        <ele>275.30</ele>
        <time>2013-07-19T18:14:17Z</time>
      </trkpt>
      <trkpt lat="28.033203000" lon="-15.739166000">
        <ele>262.00</ele>
        <time>2013-07-19T18:14:23Z</time>
      </trkpt>
      <trkpt lat="28.032700000" lon="-15.738968000">
        <ele>279.60</ele>
        <time>2013-07-19T18:14:29Z</time>
      </trkpt>
      <trkpt lat="28.032700000" lon="-15.738495000">
        <ele>274.70</ele>
        <time>2013-07-19T18:14:34Z</time>
      </trkpt>
      <trkpt lat="28.032913000" lon="-15.737808000">
        <ele>274.00</ele>
        <time>2013-07-19T18:14:40Z</time>
      </trkpt>
      <trkpt lat="28.032974000" lon="-15.737015000">
        <ele>295.70</ele>
        <time>2013-07-19T18:14:46Z</time>
      </trkpt>
      <trkpt lat="28.033539000" lon="-15.736435000">
        <ele>303.20</ele>
        <time>2013-07-19T18:14:52Z</time>
      </trkpt>
      <trkpt lat="28.034164000" lon="-15.736099000">
        <ele>294.10</ele>
        <time>2013-07-19T18:14:57Z</time>
      </trkpt>
      <trkpt lat="28.034744000" lon="-15.735916000">
        <ele>279.10</ele>
        <time>2013-07-19T18:15:02Z</time>
      </trkpt>
      <trkpt lat="28.035172000" lon="-15.735580000">
        <ele>282.20</ele>
        <time>2013-07-19T18:15:07Z</time>
      </trkpt>
      <trkpt lat="28.035645000" lon="-15.735809000">
        <ele>267.60</ele>
        <time>2013-07-19T18:15:13Z</time>
      </trkpt>
      <trkpt lat="28.035995000" lon="-15.735596000">
        <ele>274.40</ele>
        <time>2013-07-19T18:15:19Z</time>
      </trkpt>
      <trkpt lat="28.036148000" lon="-15.735413000">
        <ele>280.10</ele>
        <time>2013-07-19T18:15:25Z</time>
      </trkpt>
      <trkpt lat="28.036087000" lon="-15.735397000">
        <ele>281.10</ele>
        <time>2013-07-19T18:15:57Z</time>
      </trkpt>
      <trkpt lat="28.036270000" lon="-15.735443000">
        <ele>277.70</ele>
        <time>2013-07-19T18:16:02Z</time>
      </trkpt>
      <trkpt lat="28.036514000" lon="-15.735733000">
        <ele>267.40</ele>
        <time>2013-07-19T18:16:07Z</time>
      </trkpt>
      <trkpt lat="28.036987000" lon="-15.735855000">
        <ele>250.50</ele>
        <time>2013-07-19T18:16:12Z</time>
      </trkpt>
      <trkpt lat="28.037354000" lon="-15.735687000">
        <ele>240.60</ele>
        <time>2013-07-19T18:16:17Z</time>
      </trkpt>
      <trkpt lat="28.037689000" lon="-15.735092000">
        <ele>256.50</ele>
        <time>2013-07-19T18:16:23Z</time>
      </trkpt>
      <trkpt lat="28.038162000" lon="-15.734970000">
        <ele>268.60</ele>
        <time>2013-07-19T18:16:28Z</time>
      </trkpt>
      <trkpt lat="28.038727000" lon="-15.735428000">
        <ele>252.90</ele>
        <time>2013-07-19T18:16:34Z</time>
      </trkpt>
      <trkpt lat="28.039200000" lon="-15.735703000">
        <ele>243.40</ele>
        <time>2013-07-19T18:16:39Z</time>
      </trkpt>
      <trkpt lat="28.039627000" lon="-15.735550000">
        <ele>250.60</ele>
        <time>2013-07-19T18:16:44Z</time>
      </trkpt>
      <trkpt lat="28.040161000" lon="-15.735428000">
        <ele>251.00</ele>
        <time>2013-07-19T18:16:50Z</time>
      </trkpt>
      <trkpt lat="28.040451000" lon="-15.735489000">
        <ele>240.80</ele>
        <time>2013-07-19T18:16:55Z</time>
      </trkpt>
      <trkpt lat="28.040649000" lon="-15.735641000">
        <ele>228.80</ele>
        <time>2013-07-19T18:17:01Z</time>
      </trkpt>
      <trkpt lat="28.040924000" lon="-15.735657000">
        <ele>220.10</ele>
        <time>2013-07-19T18:17:07Z</time>
      </trkpt>
      <trkpt lat="28.041229000" lon="-15.735443000">
        <ele>217.50</ele>
        <time>2013-07-19T18:17:12Z</time>
      </trkpt>
      <trkpt lat="28.041809000" lon="-15.734940000">
        <ele>223.70</ele>
        <time>2013-07-19T18:17:20Z</time>
      </trkpt>
      <trkpt lat="28.042389000" lon="-15.734879000">
        <ele>221.90</ele>
        <time>2013-07-19T18:17:26Z</time>
      </trkpt>
      <trkpt lat="28.042648000" lon="-15.735229000">
        <ele>201.70</ele>
        <time>2013-07-19T18:17:32Z</time>
      </trkpt>
      <trkpt lat="28.043137000" lon="-15.735123000">
        <ele>205.30</ele>
        <time>2013-07-19T18:17:37Z</time>
      </trkpt>
      <trkpt lat="28.043594000" lon="-15.735092000">
        <ele>198.80</ele>
        <time>2013-07-19T18:17:42Z</time>
      </trkpt>
      <trkpt lat="28.043976000" lon="-15.734863000">
        <ele>199.30</ele>
        <time>2013-07-19T18:17:47Z</time>
      </trkpt>
      <trkpt lat="28.044479000" lon="-15.734680000">
        <ele>191.00</ele>
        <time>2013-07-19T18:17:52Z</time>
      </trkpt>
      <trkpt lat="28.045181000" lon="-15.734543000">
        <ele>171.20</ele>
        <time>2013-07-19T18:17:58Z</time>
      </trkpt>
      <trkpt lat="28.045670000" lon="-15.734497000">
        <ele>155.60</ele>
        <time>2013-07-19T18:18:03Z</time>
      </trkpt>
      <trkpt lat="28.046295000" lon="-15.734894000">
        <ele>147.80</ele>
        <time>2013-07-19T18:18:09Z</time>
      </trkpt>
      <trkpt lat="28.046631000" lon="-15.734955000">
        <ele>139.00</ele>
        <time>2013-07-19T18:18:14Z</time>
      </trkpt>
      <trkpt lat="28.046997000" lon="-15.734741000">
        <ele>115.80</ele>
        <time>2013-07-19T18:18:19Z</time>
      </trkpt>
      <trkpt lat="28.047256000" lon="-15.734329000">
        <ele>89.50</ele>
        <time>2013-07-19T18:18:25Z</time>
      </trkpt>
      <trkpt lat="28.046814000" lon="-15.733704000">
        <ele>96.00</ele>
        <time>2013-07-19T18:18:31Z</time>
      </trkpt>
      <trkpt lat="28.046509000" lon="-15.732941000">
        <ele>94.60</ele>
        <time>2013-07-19T18:18:36Z</time>
      </trkpt>
      <trkpt lat="28.046234000" lon="-15.732101000">
        <ele>90.70</ele>
        <time>2013-07-19T18:18:41Z</time>
      </trkpt>
      <trkpt lat="28.045929000" lon="-15.731094000">
        <ele>89.40</ele>
        <time>2013-07-19T18:18:47Z</time>
      </trkpt>
      <trkpt lat="28.045944000" lon="-15.730042000">
        <ele>89.80</ele>
        <time>2013-07-19T18:18:53Z</time>
      </trkpt>
      <trkpt lat="28.046036000" lon="-15.729233000">
        <ele>87.00</ele>
        <time>2013-07-19T18:18:58Z</time>
      </trkpt>
      <trkpt lat="28.046326000" lon="-15.728348000">
        <ele>86.70</ele>
        <time>2013-07-19T18:19:04Z</time>
      </trkpt>
      <trkpt lat="28.046539000" lon="-15.727982000">
        <ele>93.70</ele>
        <time>2013-07-19T18:19:09Z</time>
      </trkpt>
      <trkpt lat="28.046509000" lon="-15.727951000">
        <ele>94.30</ele>
        <time>2013-07-19T18:19:42Z</time>
      </trkpt>
      <trkpt lat="28.046494000" lon="-15.727890000">
        <ele>95.10</ele>
        <time>2013-07-19T18:19:53Z</time>
      </trkpt>
      <trkpt lat="28.046524000" lon="-15.727859000">
        <ele>96.00</ele>
        <time>2013-07-19T18:19:58Z</time>
      </trkpt>
      <trkpt lat="28.046555000" lon="-15.727814000">
        <ele>97.00</ele>
        <time>2013-07-19T18:20:07Z</time>
      </trkpt>
      <trkpt lat="28.046570000" lon="-15.727753000">
        <ele>98.20</ele>
        <time>2013-07-19T18:20:12Z</time>
      </trkpt>
      <trkpt lat="28.046585000" lon="-15.727798000">
        <ele>97.50</ele>
        <time>2013-07-19T18:20:48Z</time>
      </trkpt>
      <trkpt lat="28.046555000" lon="-15.727844000">
        <ele>96.50</ele>
        <time>2013-07-19T18:20:55Z</time>
      </trkpt>
      <trkpt lat="28.046509000" lon="-15.727829000">
        <ele>96.30</ele>
        <time>2013-07-19T18:21:14Z</time>
      </trkpt>
      <trkpt lat="28.046478000" lon="-15.727783000">
        <ele>96.80</ele>
        <time>2013-07-19T18:21:23Z</time>
      </trkpt>
      <trkpt lat="28.046494000" lon="-15.727829000">
        <ele>96.10</ele>
        <time>2013-07-19T18:21:29Z</time>
      </trkpt>
      <trkpt lat="28.046539000" lon="-15.727859000">
        <ele>96.10</ele>
        <time>2013-07-19T18:21:34Z</time>
      </trkpt>
      <trkpt lat="28.046570000" lon="-15.727905000">
        <ele>95.50</ele>
        <time>2013-07-19T18:21:39Z</time>
      </trkpt>
      <trkpt lat="28.046677000" lon="-15.727997000">
        <ele>94.60</ele>
        <time>2013-07-19T18:21:45Z</time>
      </trkpt>
      <trkpt lat="28.046799000" lon="-15.728088000">
        <ele>96.50</ele>
        <time>2013-07-19T18:21:51Z</time>
      </trkpt>
      <trkpt lat="28.046906000" lon="-15.728149000">
        <ele>98.90</ele>
        <time>2013-07-19T18:21:57Z</time>
      </trkpt>
      <trkpt lat="28.046844000" lon="-15.728119000">
        <ele>97.80</ele>
        <time>2013-07-19T18:22:05Z</time>
      </trkpt>
      <trkpt lat="28.046799000" lon="-15.728088000">
        <ele>96.60</ele>
        <time>2013-07-19T18:22:11Z</time>
      </trkpt>
      <trkpt lat="28.046738000" lon="-15.728058000">
        <ele>95.60</ele>
        <time>2013-07-19T18:22:26Z</time>
      </trkpt>
      <trkpt lat="28.046555000" lon="-15.727982000">
        <ele>94.00</ele>
        <time>2013-07-19T18:22:33Z</time>
      </trkpt>
      <trkpt lat="28.046524000" lon="-15.727875000">
        <ele>95.50</ele>
        <time>2013-07-19T18:22:41Z</time>
      </trkpt>
      <trkpt lat="28.046448000" lon="-15.727905000">
        <ele>94.50</ele>
        <time>2013-07-19T18:22:48Z</time>
      </trkpt>
      <trkpt lat="28.046387000" lon="-15.727951000">
        <ele>93.30</ele>
        <time>2013-07-19T18:22:54Z</time>
      </trkpt>
      <trkpt lat="28.046616000" lon="-15.727829000">
        <ele>97.40</ele>
        <time>2013-07-19T18:22:59Z</time>
      </trkpt>
      <trkpt lat="28.046661000" lon="-15.727875000">
        <ele>96.70</ele>
        <time>2013-07-19T18:23:06Z</time>
      </trkpt>
      <trkpt lat="28.046646000" lon="-15.727722000">
        <ele>99.50</ele>
        <time>2013-07-19T18:37:34Z</time>
      </trkpt>
      <trkpt lat="28.046631000" lon="-15.727859000">
        <ele>96.80</ele>
        <time>2013-07-19T18:37:43Z</time>
      </trkpt>
      <trkpt lat="28.046585000" lon="-15.727829000">
        <ele>97.10</ele>
        <time>2013-07-19T18:37:54Z</time>
      </trkpt>
      <trkpt lat="28.046585000" lon="-15.727753000">
        <ele>98.40</ele>
        <time>2013-07-19T18:38:27Z</time>
      </trkpt>
      <trkpt lat="28.046585000" lon="-15.727798000">
        <ele>97.40</ele>
        <time>2013-07-19T18:38:33Z</time>
      </trkpt>
      <trkpt lat="28.046570000" lon="-15.727875000">
        <ele>96.00</ele>
        <time>2013-07-19T18:38:44Z</time>
      </trkpt>
      <trkpt lat="28.046585000" lon="-15.727921000">
        <ele>95.50</ele>
        <time>2013-07-19T18:39:00Z</time>
      </trkpt>
      <trkpt lat="28.046585000" lon="-15.727966000">
        <ele>94.40</ele>
        <time>2013-07-19T18:39:07Z</time>
      </trkpt>
      <trkpt lat="28.046570000" lon="-15.728012000">
        <ele>93.40</ele>
        <time>2013-07-19T18:39:24Z</time>
      </trkpt>
      <trkpt lat="28.046616000" lon="-15.728012000">
        <ele>93.80</ele>
        <time>2013-07-19T18:40:06Z</time>
      </trkpt>
      <trkpt lat="28.046646000" lon="-15.728058000">
        <ele>93.30</ele>
        <time>2013-07-19T18:40:52Z</time>
      </trkpt>
      <trkpt lat="28.046692000" lon="-15.728043000">
        <ele>94.40</ele>
        <time>2013-07-19T18:41:22Z</time>
      </trkpt>
      <trkpt lat="28.046692000" lon="-15.727997000">
        <ele>95.20</ele>
        <time>2013-07-19T18:41:56Z</time>
      </trkpt>
      <trkpt lat="28.046738000" lon="-15.727982000">
        <ele>96.80</ele>
        <time>2013-07-19T18:42:08Z</time>
      </trkpt>
      <trkpt lat="28.046783000" lon="-15.727966000">
        <ele>98.60</ele>
        <time>2013-07-19T18:42:35Z</time>
      </trkpt>
      <trkpt lat="28.046768000" lon="-15.728012000">
        <ele>97.10</ele>
        <time>2013-07-19T18:43:05Z</time>
      </trkpt>
      <trkpt lat="28.046722000" lon="-15.728043000">
        <ele>95.40</ele>
        <time>2013-07-19T18:45:14Z</time>
      </trkpt>
      <trkpt lat="28.046677000" lon="-15.728027000">
        <ele>94.00</ele>
        <time>2013-07-19T18:45:20Z</time>
      </trkpt>
      <trkpt lat="28.046753000" lon="-15.727982000">
        <ele>97.50</ele>
        <time>2013-07-19T18:45:25Z</time>
      </trkpt>
      <trkpt lat="28.047180000" lon="-15.728195000">
        <ele>106.50</ele>
        <time>2013-07-19T18:45:31Z</time>
      </trkpt>
      <trkpt lat="28.047638000" lon="-15.728378000">
        <ele>117.40</ele>
        <time>2013-07-19T18:45:36Z</time>
      </trkpt>
      <trkpt lat="28.048035000" lon="-15.728806000">
        <ele>117.60</ele>
        <time>2013-07-19T18:45:41Z</time>
      </trkpt>
      <trkpt lat="28.048096000" lon="-15.729385000">
        <ele>100.10</ele>
        <time>2013-07-19T18:45:46Z</time>
      </trkpt>
      <trkpt lat="28.048309000" lon="-15.730103000">
        <ele>87.20</ele>
        <time>2013-07-19T18:45:51Z</time>
      </trkpt>
      <trkpt lat="28.048630000" lon="-15.731110000">
        <ele>84.80</ele>
        <time>2013-07-19T18:45:57Z</time>
      </trkpt>
      <trkpt lat="28.048950000" lon="-15.731995000">
        <ele>81.90</ele>
        <time>2013-07-19T18:46:03Z</time>
      </trkpt>
      <trkpt lat="28.049194000" lon="-15.732468000">
        <ele>78.60</ele>
        <time>2013-07-19T18:46:08Z</time>
      </trkpt>
      <trkpt lat="28.049835000" lon="-15.732605000">
        <ele>92.70</ele>
        <time>2013-07-19T18:46:14Z</time>
      </trkpt>
      <trkpt lat="28.050476000" lon="-15.732788000">
        <ele>87.20</ele>
        <time>2013-07-19T18:46:19Z</time>
      </trkpt>
      <trkpt lat="28.050949000" lon="-15.732376000">
        <ele>96.90</ele>
        <time>2013-07-19T18:46:25Z</time>
      </trkpt>
      <trkpt lat="28.051361000" lon="-15.731766000">
        <ele>86.00</ele>
        <time>2013-07-19T18:46:31Z</time>
      </trkpt>
      <trkpt lat="28.051483000" lon="-15.731094000">
        <ele>90.60</ele>
        <time>2013-07-19T18:46:36Z</time>
      </trkpt>
      <trkpt lat="28.051849000" lon="-15.730972000">
        <ele>92.40</ele>
        <time>2013-07-19T18:46:42Z</time>
      </trkpt>
      <trkpt lat="28.052017000" lon="-15.731476000">
        <ele>84.60</ele>
        <time>2013-07-19T18:46:47Z</time>
      </trkpt>
      <trkpt lat="28.052353000" lon="-15.731735000">
        <ele>85.10</ele>
        <time>2013-07-19T18:46:53Z</time>
      </trkpt>
      <trkpt lat="28.052887000" lon="-15.731293000">
        <ele>97.10</ele>
        <time>2013-07-19T18:46:58Z</time>
      </trkpt>
      <trkpt lat="28.053207000" lon="-15.731537000">
        <ele>97.50</ele>
        <time>2013-07-19T18:47:04Z</time>
      </trkpt>
      <trkpt lat="28.052780000" lon="-15.732193000">
        <ele>87.30</ele>
        <time>2013-07-19T18:47:10Z</time>
      </trkpt>
      <trkpt lat="28.052536000" lon="-15.732666000">
        <ele>79.80</ele>
        <time>2013-07-19T18:47:15Z</time>
      </trkpt>
      <trkpt lat="28.052963000" lon="-15.733063000">
        <ele>94.80</ele>
        <time>2013-07-19T18:47:20Z</time>
      </trkpt>
      <trkpt lat="28.053574000" lon="-15.733444000">
        <ele>110.10</ele>
        <time>2013-07-19T18:47:26Z</time>
      </trkpt>
      <trkpt lat="28.053970000" lon="-15.733200000">
        <ele>116.10</ele>
        <time>2013-07-19T18:47:32Z</time>
      </trkpt>
      <trkpt lat="28.054230000" lon="-15.732559000">
        <ele>124.00</ele>
        <time>2013-07-19T18:47:37Z</time>
      </trkpt>
      <trkpt lat="28.054688000" lon="-15.731979000">
        <ele>131.60</ele>
        <time>2013-07-19T18:47:42Z</time>
      </trkpt>
      <trkpt lat="28.055389000" lon="-15.731628000">
        <ele>147.60</ele>
        <time>2013-07-19T18:47:48Z</time>
      </trkpt>
      <trkpt lat="28.055984000" lon="-15.731369000">
        <ele>158.40</ele>
        <time>2013-07-19T18:47:54Z</time>
      </trkpt>
      <trkpt lat="28.056137000" lon="-15.730835000">
        <ele>169.90</ele>
        <time>2013-07-19T18:47:59Z</time>
      </trkpt>
      <trkpt lat="28.056595000" lon="-15.731049000">
        <ele>161.60</ele>
        <time>2013-07-19T18:48:05Z</time>
      </trkpt>
      <trkpt lat="28.056808000" lon="-15.731583000">
        <ele>154.60</ele>
        <time>2013-07-19T18:48:10Z</time>
      </trkpt>
      <trkpt lat="28.057343000" lon="-15.731598000">
        <ele>165.90</ele>
        <time>2013-07-19T18:48:15Z</time>
      </trkpt>
      <trkpt lat="28.057968000" lon="-15.731003000">
        <ele>181.70</ele>
        <time>2013-07-19T18:48:22Z</time>
      </trkpt>
      <trkpt lat="28.058731000" lon="-15.730255000">
        <ele>193.50</ele>
        <time>2013-07-19T18:48:27Z</time>
      </trkpt>
      <trkpt lat="28.059372000" lon="-15.729736000">
        <ele>197.50</ele>
        <time>2013-07-19T18:48:34Z</time>
      </trkpt>
      <trkpt lat="28.059967000" lon="-15.729599000">
        <ele>203.60</ele>
        <time>2013-07-19T18:48:39Z</time>
      </trkpt>
      <trkpt lat="28.060272000" lon="-15.730194000">
        <ele>198.10</ele>
        <time>2013-07-19T18:48:44Z</time>
      </trkpt>
      <trkpt lat="28.060226000" lon="-15.730911000">
        <ele>186.70</ele>
        <time>2013-07-19T18:48:49Z</time>
      </trkpt>
      <trkpt lat="28.060593000" lon="-15.731140000">
        <ele>190.20</ele>
        <time>2013-07-19T18:48:54Z</time>
      </trkpt>
      <trkpt lat="28.060959000" lon="-15.730637000">
        <ele>205.60</ele>
        <time>2013-07-19T18:49:00Z</time>
      </trkpt>
      <trkpt lat="28.061310000" lon="-15.729965000">
        <ele>218.00</ele>
        <time>2013-07-19T18:49:06Z</time>
      </trkpt>
      <trkpt lat="28.061783000" lon="-15.729523000">
        <ele>245.00</ele>
        <time>2013-07-19T18:49:12Z</time>
      </trkpt>
      <trkpt lat="28.062317000" lon="-15.729599000">
        <ele>219.60</ele>
        <time>2013-07-19T18:49:18Z</time>
      </trkpt>
      <trkpt lat="28.062576000" lon="-15.729156000">
        <ele>239.00</ele>
        <time>2013-07-19T18:49:23Z</time>
      </trkpt>
      <trkpt lat="28.062988000" lon="-15.728592000">
        <ele>257.50</ele>
        <time>2013-07-19T18:49:29Z</time>
      </trkpt>
      <trkpt lat="28.063248000" lon="-15.728256000">
        <ele>277.50</ele>
        <time>2013-07-19T18:49:34Z</time>
      </trkpt>
      <trkpt lat="28.063477000" lon="-15.727798000">
        <ele>290.10</ele>
        <time>2013-07-19T18:49:40Z</time>
      </trkpt>
      <trkpt lat="28.063995000" lon="-15.727722000">
        <ele>240.00</ele>
        <time>2013-07-19T18:49:45Z</time>
      </trkpt>
      <trkpt lat="28.064255000" lon="-15.727371000">
        <ele>223.40</ele>
        <time>2013-07-19T18:49:50Z</time>
      </trkpt>
      <trkpt lat="28.064651000" lon="-15.726837000">
        <ele>195.60</ele>
        <time>2013-07-19T18:49:56Z</time>
      </trkpt>
      <trkpt lat="28.064651000" lon="-15.726257000">
        <ele>215.30</ele>
        <time>2013-07-19T18:50:01Z</time>
      </trkpt>
      <trkpt lat="28.064636000" lon="-15.725616000">
        <ele>244.20</ele>
        <time>2013-07-19T18:50:06Z</time>
      </trkpt>
      <trkpt lat="28.065048000" lon="-15.724915000">
        <ele>251.60</ele>
        <time>2013-07-19T18:50:12Z</time>
      </trkpt>
      <trkpt lat="28.065582000" lon="-15.724625000">
        <ele>238.80</ele>
        <time>2013-07-19T18:50:17Z</time>
      </trkpt>
      <trkpt lat="28.066116000" lon="-15.724335000">
        <ele>222.50</ele>
        <time>2013-07-19T18:50:23Z</time>
      </trkpt>
      <trkpt lat="28.066544000" lon="-15.723938000">
        <ele>208.10</ele>
        <time>2013-07-19T18:50:28Z</time>
      </trkpt>
      <trkpt lat="28.066620000" lon="-15.723389000">
        <ele>216.30</ele>
        <time>2013-07-19T18:50:33Z</time>
      </trkpt>
      <trkpt lat="28.066895000" lon="-15.722839000">
        <ele>233.40</ele>
        <time>2013-07-19T18:50:39Z</time>
      </trkpt>
      <trkpt lat="28.067078000" lon="-15.722397000">
        <ele>268.00</ele>
        <time>2013-07-19T18:50:44Z</time>
      </trkpt>
      <trkpt lat="28.067657000" lon="-15.722244000">
        <ele>265.00</ele>
        <time>2013-07-19T18:50:49Z</time>
      </trkpt>
      <trkpt lat="28.068161000" lon="-15.721832000">
        <ele>221.40</ele>
        <time>2013-07-19T18:50:55Z</time>
      </trkpt>
      <trkpt lat="28.068619000" lon="-15.721344000">
        <ele>211.00</ele>
        <time>2013-07-19T18:51:00Z</time>
      </trkpt>
      <trkpt lat="28.069107000" lon="-15.720490000">
        <ele>199.80</ele>
        <time>2013-07-19T18:51:06Z</time>
      </trkpt>
      <trkpt lat="28.069168000" lon="-15.719772000">
        <ele>215.70</ele>
        <time>2013-07-19T18:51:12Z</time>
      </trkpt>
      <trkpt lat="28.069443000" lon="-15.719559000">
        <ele>199.60</ele>
        <time>2013-07-19T18:51:17Z</time>
      </trkpt>
      <trkpt lat="28.070190000" lon="-15.719315000">
        <ele>165.40</ele>
        <time>2013-07-19T18:51:23Z</time>
      </trkpt>
      <trkpt lat="28.070557000" lon="-15.718689000">
        <ele>154.80</ele>
        <time>2013-07-19T18:51:28Z</time>
      </trkpt>
      <trkpt lat="28.070068000" lon="-15.718292000">
        <ele>172.90</ele>
        <time>2013-07-19T18:51:35Z</time>
      </trkpt>
      <trkpt lat="28.070358000" lon="-15.717758000">
        <ele>174.00</ele>
        <time>2013-07-19T18:51:40Z</time>
      </trkpt>
      <trkpt lat="28.070190000" lon="-15.717209000">
        <ele>197.30</ele>
        <time>2013-07-19T18:51:46Z</time>
      </trkpt>
      <trkpt lat="28.070206000" lon="-15.716751000">
        <ele>226.90</ele>
        <time>2013-07-19T18:51:52Z</time>
      </trkpt>
      <trkpt lat="28.071106000" lon="-15.716949000">
        <ele>215.10</ele>
        <time>2013-07-19T18:51:58Z</time>
      </trkpt>
      <trkpt lat="28.071808000" lon="-15.716827000">
        <ele>201.80</ele>
        <time>2013-07-19T18:52:03Z</time>
      </trkpt>
      <trkpt lat="28.072128000" lon="-15.716309000">
        <ele>221.20</ele>
        <time>2013-07-19T18:52:08Z</time>
      </trkpt>
      <trkpt lat="28.072540000" lon="-15.715973000">
        <ele>223.40</ele>
        <time>2013-07-19T18:52:13Z</time>
      </trkpt>
      <trkpt lat="28.073151000" lon="-15.715759000">
        <ele>219.70</ele>
        <time>2013-07-19T18:52:19Z</time>
      </trkpt>
      <trkpt lat="28.073563000" lon="-15.715988000">
        <ele>205.20</ele>
        <time>2013-07-19T18:52:24Z</time>
      </trkpt>
      <trkpt lat="28.074051000" lon="-15.715561000">
        <ele>197.00</ele>
        <time>2013-07-19T18:52:29Z</time>
      </trkpt>
      <trkpt lat="28.074692000" lon="-15.715591000">
        <ele>181.00</ele>
        <time>2013-07-19T18:52:35Z</time>
      </trkpt>
      <trkpt lat="28.075058000" lon="-15.715424000">
        <ele>165.10</ele>
        <time>2013-07-19T18:52:40Z</time>
      </trkpt>
      <trkpt lat="28.075211000" lon="-15.714981000">
        <ele>143.40</ele>
        <time>2013-07-19T18:52:46Z</time>
      </trkpt>
      <trkpt lat="28.074768000" lon="-15.714661000">
        <ele>144.70</ele>
        <time>2013-07-19T18:52:51Z</time>
      </trkpt>
      <trkpt lat="28.074158000" lon="-15.714371000">
        <ele>150.50</ele>
        <time>2013-07-19T18:52:56Z</time>
      </trkpt>
      <trkpt lat="28.073578000" lon="-15.714188000">
        <ele>153.00</ele>
        <time>2013-07-19T18:53:01Z</time>
      </trkpt>
      <trkpt lat="28.072906000" lon="-15.713867000">
        <ele>156.60</ele>
        <time>2013-07-19T18:53:07Z</time>
      </trkpt>
      <trkpt lat="28.072266000" lon="-15.713364000">
        <ele>153.00</ele>
        <time>2013-07-19T18:53:13Z</time>
      </trkpt>
      <trkpt lat="28.071625000" lon="-15.712769000">
        <ele>169.20</ele>
        <time>2013-07-19T18:53:19Z</time>
      </trkpt>
      <trkpt lat="28.071014000" lon="-15.712372000">
        <ele>180.20</ele>
        <time>2013-07-19T18:53:24Z</time>
      </trkpt>
      <trkpt lat="28.070328000" lon="-15.712021000">
        <ele>197.10</ele>
        <time>2013-07-19T18:53:30Z</time>
      </trkpt>
      <trkpt lat="28.070114000" lon="-15.711258000">
        <ele>229.20</ele>
        <time>2013-07-19T18:53:36Z</time>
      </trkpt>
      <trkpt lat="28.070526000" lon="-15.711029000">
        <ele>249.00</ele>
        <time>2013-07-19T18:53:41Z</time>
      </trkpt>
      <trkpt lat="28.071472000" lon="-15.710815000">
        <ele>272.40</ele>
        <time>2013-07-19T18:53:47Z</time>
      </trkpt>
      <trkpt lat="28.072464000" lon="-15.710846000">
        <ele>281.80</ele>
        <time>2013-07-19T18:53:53Z</time>
      </trkpt>
      <trkpt lat="28.073059000" lon="-15.710495000">
        <ele>270.60</ele>
        <time>2013-07-19T18:53:59Z</time>
      </trkpt>
      <trkpt lat="28.073776000" lon="-15.710281000">
        <ele>256.00</ele>
        <time>2013-07-19T18:54:04Z</time>
      </trkpt>
      <trkpt lat="28.074631000" lon="-15.710114000">
        <ele>239.70</ele>
        <time>2013-07-19T18:54:10Z</time>
      </trkpt>
      <trkpt lat="28.074921000" lon="-15.709549000">
        <ele>239.00</ele>
        <time>2013-07-19T18:54:15Z</time>
      </trkpt>
      <trkpt lat="28.075455000" lon="-15.708801000">
        <ele>239.00</ele>
        <time>2013-07-19T18:54:21Z</time>
      </trkpt>
      <trkpt lat="28.075714000" lon="-15.708252000">
        <ele>246.20</ele>
        <time>2013-07-19T18:54:27Z</time>
      </trkpt>
      <trkpt lat="28.076157000" lon="-15.708679000">
        <ele>229.90</ele>
        <time>2013-07-19T18:54:33Z</time>
      </trkpt>
      <trkpt lat="28.077072000" lon="-15.708328000">
        <ele>216.80</ele>
        <time>2013-07-19T18:54:39Z</time>
      </trkpt>
      <trkpt lat="28.078003000" lon="-15.708008000">
        <ele>182.10</ele>
        <time>2013-07-19T18:54:45Z</time>
      </trkpt>
      <trkpt lat="28.078445000" lon="-15.707794000">
        <ele>160.40</ele>
        <time>2013-07-19T18:54:50Z</time>
      </trkpt>
      <trkpt lat="28.078156000" lon="-15.707138000">
        <ele>153.60</ele>
        <time>2013-07-19T18:54:55Z</time>
      </trkpt>
      <trkpt lat="28.077774000" lon="-15.706635000">
        <ele>155.40</ele>
        <time>2013-07-19T18:55:01Z</time>
      </trkpt>
      <trkpt lat="28.077225000" lon="-15.706589000">
        <ele>176.30</ele>
        <time>2013-07-19T18:55:06Z</time>
      </trkpt>
      <trkpt lat="28.077316000" lon="-15.706070000">
        <ele>162.60</ele>
        <time>2013-07-19T18:55:11Z</time>
      </trkpt>
      <trkpt lat="28.077087000" lon="-15.705093000">
        <ele>155.90</ele>
        <time>2013-07-19T18:55:18Z</time>
      </trkpt>
      <trkpt lat="28.076645000" lon="-15.704529000">
        <ele>165.20</ele>
        <time>2013-07-19T18:55:24Z</time>
      </trkpt>
      <trkpt lat="28.076752000" lon="-15.704361000">
        <ele>166.90</ele>
        <time>2013-07-19T18:55:29Z</time>
      </trkpt>
      <trkpt lat="28.077545000" lon="-15.705261000">
        <ele>148.10</ele>
        <time>2013-07-19T18:55:35Z</time>
      </trkpt>
      <trkpt lat="28.077927000" lon="-15.706055000">
        <ele>144.20</ele>
        <time>2013-07-19T18:55:41Z</time>
      </trkpt>
      <trkpt lat="28.078583000" lon="-15.706711000">
        <ele>130.90</ele>
        <time>2013-07-19T18:55:47Z</time>
      </trkpt>
      <trkpt lat="28.079086000" lon="-15.707321000">
        <ele>123.70</ele>
        <time>2013-07-19T18:55:52Z</time>
      </trkpt>
      <trkpt lat="28.079498000" lon="-15.707504000">
        <ele>114.20</ele>
        <time>2013-07-19T18:55:58Z</time>
      </trkpt>
      <trkpt lat="28.079224000" lon="-15.707092000">
        <ele>119.40</ele>
        <time>2013-07-19T18:56:04Z</time>
      </trkpt>
      <trkpt lat="28.078705000" lon="-15.706039000">
        <ele>131.10</ele>
        <time>2013-07-19T18:56:10Z</time>
      </trkpt>
      <trkpt lat="28.078613000" lon="-15.705292000">
        <ele>142.40</ele>
        <time>2013-07-19T18:56:16Z</time>
      </trkpt>
      <trkpt lat="28.079102000" lon="-15.705399000">
        <ele>137.10</ele>
        <time>2013-07-19T18:56:21Z</time>
      </trkpt>
      <trkpt lat="28.080185000" lon="-15.706024000">
        <ele>122.90</ele>
        <time>2013-07-19T18:56:27Z</time>
      </trkpt>
      <trkpt lat="28.080948000" lon="-15.705780000">
        <ele>108.60</ele>
        <time>2013-07-19T18:56:33Z</time>
      </trkpt>
      <trkpt lat="28.080826000" lon="-15.705093000">
        <ele>110.90</ele>
        <time>2013-07-19T18:56:38Z</time>
      </trkpt>
      <trkpt lat="28.081085000" lon="-15.704742000">
        <ele>120.00</ele>
        <time>2013-07-19T18:56:44Z</time>
      </trkpt>
      <trkpt lat="28.081589000" lon="-15.705521000">
        <ele>109.70</ele>
        <time>2013-07-19T18:56:49Z</time>
      </trkpt>
      <trkpt lat="28.081940000" lon="-15.705704000">
        <ele>107.70</ele>
        <time>2013-07-19T18:56:55Z</time>
      </trkpt>
      <trkpt lat="28.082092000" lon="-15.705307000">
        <ele>115.20</ele>
        <time>2013-07-19T18:57:00Z</time>
      </trkpt>
      <trkpt lat="28.082474000" lon="-15.704895000">
        <ele>124.40</ele>
        <time>2013-07-19T18:57:05Z</time>
      </trkpt>
      <trkpt lat="28.082520000" lon="-15.705338000">
        <ele>116.50</ele>
        <time>2013-07-19T18:57:11Z</time>
      </trkpt>
      <trkpt lat="28.082901000" lon="-15.705841000">
        <ele>115.70</ele>
        <time>2013-07-19T18:57:16Z</time>
      </trkpt>
      <trkpt lat="28.083374000" lon="-15.706039000">
        <ele>116.80</ele>
        <time>2013-07-19T18:57:22Z</time>
      </trkpt>
      <trkpt lat="28.083572000" lon="-15.705551000">
        <ele>120.30</ele>
        <time>2013-07-19T18:57:27Z</time>
      </trkpt>
      <trkpt lat="28.083801000" lon="-15.704758000">
        <ele>135.20</ele>
        <time>2013-07-19T18:57:32Z</time>
      </trkpt>
      <trkpt lat="28.084061000" lon="-15.703964000">
        <ele>152.30</ele>
        <time>2013-07-19T18:57:38Z</time>
      </trkpt>
      <trkpt lat="28.084473000" lon="-15.703598000">
        <ele>147.70</ele>
        <time>2013-07-19T18:57:43Z</time>
      </trkpt>
      <trkpt lat="28.084763000" lon="-15.703278000">
        <ele>149.20</ele>
        <time>2013-07-19T18:57:49Z</time>
      </trkpt>
      <trkpt lat="28.085037000" lon="-15.703812000">
        <ele>138.60</ele>
        <time>2013-07-19T18:57:55Z</time>
      </trkpt>
      <trkpt lat="28.085083000" lon="-15.704742000">
        <ele>128.90</ele>
        <time>2013-07-19T18:58:01Z</time>
      </trkpt>
      <trkpt lat="28.085129000" lon="-15.705307000">
        <ele>124.20</ele>
        <time>2013-07-19T18:58:06Z</time>
      </trkpt>
      <trkpt lat="28.085526000" lon="-15.705368000">
        <ele>137.10</ele>
        <time>2013-07-19T18:58:11Z</time>
      </trkpt>
      <trkpt lat="28.085953000" lon="-15.704987000">
        <ele>160.20</ele>
        <time>2013-07-19T18:58:16Z</time>
      </trkpt>
      <trkpt lat="28.086380000" lon="-15.704544000">
        <ele>167.40</ele>
        <time>2013-07-19T18:58:21Z</time>
      </trkpt>
      <trkpt lat="28.086838000" lon="-15.704651000">
        <ele>163.40</ele>
        <time>2013-07-19T18:58:26Z</time>
      </trkpt>
      <trkpt lat="28.087173000" lon="-15.704254000">
        <ele>172.40</ele>
        <time>2013-07-19T18:58:32Z</time>
      </trkpt>
      <trkpt lat="28.087326000" lon="-15.703827000">
        <ele>192.80</ele>
        <time>2013-07-19T18:58:37Z</time>
      </trkpt>
      <trkpt lat="28.087784000" lon="-15.704102000">
        <ele>174.40</ele>
        <time>2013-07-19T18:58:43Z</time>
      </trkpt>
      <trkpt lat="28.088028000" lon="-15.703842000">
        <ele>189.40</ele>
        <time>2013-07-19T18:58:48Z</time>
      </trkpt>
      <trkpt lat="28.088531000" lon="-15.703323000">
        <ele>217.50</ele>
        <time>2013-07-19T18:58:54Z</time>
      </trkpt>
      <trkpt lat="28.088821000" lon="-15.703705000">
        <ele>198.00</ele>
        <time>2013-07-19T18:58:59Z</time>
      </trkpt>
      <trkpt lat="28.089081000" lon="-15.703598000">
        <ele>205.60</ele>
        <time>2013-07-19T18:59:05Z</time>
      </trkpt>
      <trkpt lat="28.089401000" lon="-15.703262000">
        <ele>229.60</ele>
        <time>2013-07-19T18:59:10Z</time>
      </trkpt>
      <trkpt lat="28.089859000" lon="-15.703735000">
        <ele>214.00</ele>
        <time>2013-07-19T18:59:16Z</time>
      </trkpt>
      <trkpt lat="28.090195000" lon="-15.704483000">
        <ele>194.40</ele>
        <time>2013-07-19T18:59:21Z</time>
      </trkpt>
      <trkpt lat="28.090500000" lon="-15.705124000">
        <ele>189.70</ele>
        <time>2013-07-19T18:59:26Z</time>
      </trkpt>
      <trkpt lat="28.090820000" lon="-15.705673000">
        <ele>196.00</ele>
        <time>2013-07-19T18:59:32Z</time>
      </trkpt>
      <trkpt lat="28.091171000" lon="-15.706375000">
        <ele>182.50</ele>
        <time>2013-07-19T18:59:38Z</time>
      </trkpt>
      <trkpt lat="28.091629000" lon="-15.706528000">
        <ele>184.30</ele>
        <time>2013-07-19T18:59:43Z</time>
      </trkpt>
      <trkpt lat="28.091995000" lon="-15.706223000">
        <ele>187.40</ele>
        <time>2013-07-19T18:59:49Z</time>
      </trkpt>
      <trkpt lat="28.092392000" lon="-15.705994000">
        <ele>190.60</ele>
        <time>2013-07-19T18:59:55Z</time>
      </trkpt>
      <trkpt lat="28.093094000" lon="-15.706177000">
        <ele>177.10</ele>
        <time>2013-07-19T19:00:01Z</time>
      </trkpt>
      <trkpt lat="28.093658000" lon="-15.705978000">
        <ele>160.20</ele>
        <time>2013-07-19T19:00:06Z</time>
      </trkpt>
      <trkpt lat="28.093750000" lon="-15.705399000">
        <ele>146.30</ele>
        <time>2013-07-19T19:00:12Z</time>
      </trkpt>
      <trkpt lat="28.093399000" lon="-15.704468000">
        <ele>147.90</ele>
        <time>2013-07-19T19:00:17Z</time>
      </trkpt>
      <trkpt lat="28.093201000" lon="-15.703232000">
        <ele>138.90</ele>
        <time>2013-07-19T19:00:22Z</time>
      </trkpt>
      <trkpt lat="28.092926000" lon="-15.702103000">
        <ele>137.60</ele>
        <time>2013-07-19T19:00:27Z</time>
      </trkpt>
      <trkpt lat="28.092575000" lon="-15.700851000">
        <ele>138.30</ele>
        <time>2013-07-19T19:00:33Z</time>
      </trkpt>
      <trkpt lat="28.092422000" lon="-15.699951000">
        <ele>152.20</ele>
        <time>2013-07-19T19:00:39Z</time>
      </trkpt>
      <trkpt lat="28.092621000" lon="-15.699753000">
        <ele>153.10</ele>
        <time>2013-07-19T19:00:44Z</time>
      </trkpt>
      <trkpt lat="28.093201000" lon="-15.700424000">
        <ele>143.10</ele>
        <time>2013-07-19T19:00:49Z</time>
      </trkpt>
      <trkpt lat="28.093842000" lon="-15.701172000">
        <ele>133.60</ele>
        <time>2013-07-19T19:00:54Z</time>
      </trkpt>
      <trkpt lat="28.094559000" lon="-15.702042000">
        <ele>117.90</ele>
        <time>2013-07-19T19:01:00Z</time>
      </trkpt>
      <trkpt lat="28.095123000" lon="-15.702606000">
        <ele>116.40</ele>
        <time>2013-07-19T19:01:06Z</time>
      </trkpt>
      <trkpt lat="28.095551000" lon="-15.703186000">
        <ele>107.00</ele>
        <time>2013-07-19T19:01:12Z</time>
      </trkpt>
      <trkpt lat="28.096069000" lon="-15.702835000">
        <ele>94.80</ele>
        <time>2013-07-19T19:01:17Z</time>
      </trkpt>
      <trkpt lat="28.096222000" lon="-15.701965000">
        <ele>79.80</ele>
        <time>2013-07-19T19:01:23Z</time>
      </trkpt>
      <trkpt lat="28.095932000" lon="-15.701096000">
        <ele>80.40</ele>
        <time>2013-07-19T19:01:29Z</time>
      </trkpt>
      <trkpt lat="28.095657000" lon="-15.700516000">
        <ele>85.00</ele>
        <time>2013-07-19T19:01:35Z</time>
      </trkpt>
      <trkpt lat="28.095810000" lon="-15.699677000">
        <ele>78.30</ele>
        <time>2013-07-19T19:01:41Z</time>
      </trkpt>
      <trkpt lat="28.095963000" lon="-15.699158000">
        <ele>75.80</ele>
        <time>2013-07-19T19:01:47Z</time>
      </trkpt>
      <trkpt lat="28.096268000" lon="-15.699615000">
        <ele>72.30</ele>
        <time>2013-07-19T19:01:52Z</time>
      </trkpt>
      <trkpt lat="28.096512000" lon="-15.700287000">
        <ele>67.80</ele>
        <time>2013-07-19T19:01:58Z</time>
      </trkpt>
      <trkpt lat="28.096848000" lon="-15.701004000">
        <ele>61.30</ele>
        <time>2013-07-19T19:02:04Z</time>
      </trkpt>
      <trkpt lat="28.097214000" lon="-15.701736000">
        <ele>56.00</ele>
        <time>2013-07-19T19:02:09Z</time>
      </trkpt>
      <trkpt lat="28.097534000" lon="-15.702469000">
        <ele>51.70</ele>
        <time>2013-07-19T19:02:14Z</time>
      </trkpt>
      <trkpt lat="28.098007000" lon="-15.703247000">
        <ele>47.80</ele>
        <time>2013-07-19T19:02:21Z</time>
      </trkpt>
      <trkpt lat="28.098083000" lon="-15.703720000">
        <ele>47.80</ele>
        <time>2013-07-19T19:02:26Z</time>
      </trkpt>
      <trkpt lat="28.098602000" lon="-15.703934000">
        <ele>44.20</ele>
        <time>2013-07-19T19:02:31Z</time>
      </trkpt>
      <trkpt lat="28.098953000" lon="-15.704376000">
        <ele>42.30</ele>
        <time>2013-07-19T19:02:37Z</time>
      </trkpt>
      <trkpt lat="28.099152000" lon="-15.704285000">
        <ele>40.20</ele>
        <time>2013-07-19T19:02:42Z</time>
      </trkpt>
      <trkpt lat="28.099335000" lon="-15.703842000">
        <ele>39.20</ele>
        <time>2013-07-19T19:02:47Z</time>
      </trkpt>
      <trkpt lat="28.099503000" lon="-15.703415000">
        <ele>39.10</ele>
        <time>2013-07-19T19:02:52Z</time>
      </trkpt>
      <trkpt lat="28.099808000" lon="-15.703308000">
        <ele>38.50</ele>
        <time>2013-07-19T19:02:57Z</time>
      </trkpt>
      <trkpt lat="28.100235000" lon="-15.703796000">
        <ele>36.70</ele>
        <time>2013-07-19T19:03:03Z</time>
      </trkpt>
      <trkpt lat="28.100876000" lon="-15.704193000">
        <ele>35.90</ele>
        <time>2013-07-19T19:03:08Z</time>
      </trkpt>
      <trkpt lat="28.101624000" lon="-15.704681000">
        <ele>32.50</ele>
        <time>2013-07-19T19:03:14Z</time>
      </trkpt>
      <trkpt lat="28.102264000" lon="-15.705093000">
        <ele>29.30</ele>
        <time>2013-07-19T19:03:20Z</time>
      </trkpt>
    </trkseg>
  </trk>
</gpx>
